<?xml version="1.0" encoding="UTF-8" standalone="no" ?>
<gpx xmlns="http://www.topografix.com/GPX/1/1" xmlns:xsi="http://www.w3.org/2001/XMLSchema-instance" xsi:schemaLocation="http://www.topografix.com/GPX/1/1 http://www.topografix.com/GPX/1/1/gpx.xsd" version="1.1" creator="VisuGPX - https://www.visugpx.com">
  <metadata>
    <name>randonnée messier oloron sainte marie 30km</name>
    <desc><![CDATA[parcours très sympa malgré la boue....]]></desc>
  </metadata>
  <trk>
    <name><![CDATA[Tracé actuel: 05 MARS 2017 08:09]]></name>
    <trkseg>
      <trkpt lat="43.18079" lon="-0.62609">
        <ele>239.51</ele>
        <time>2017-03-05T07:09:20Z</time>
      </trkpt>
      <trkpt lat="43.18045" lon="-0.62583">
        <ele>238.54</ele>
        <time>2017-03-05T07:09:33Z</time>
      </trkpt>
      <trkpt lat="43.18013" lon="-0.62557">
        <ele>238.54</ele>
        <time>2017-03-05T07:09:47Z</time>
      </trkpt>
      <trkpt lat="43.18004" lon="-0.62549">
        <ele>237.58</ele>
        <time>2017-03-05T07:10:03Z</time>
      </trkpt>
      <trkpt lat="43.18004" lon="-0.6255">
        <ele>238.06</ele>
        <time>2017-03-05T07:10:24Z</time>
      </trkpt>
      <trkpt lat="43.18026" lon="-0.62569">
        <ele>237.58</ele>
        <time>2017-03-05T07:10:39Z</time>
      </trkpt>
      <trkpt lat="43.1805" lon="-0.6259">
        <ele>237.58</ele>
        <time>2017-03-05T07:10:47Z</time>
      </trkpt>
      <trkpt lat="43.18089" lon="-0.62621">
        <ele>237.58</ele>
        <time>2017-03-05T07:10:59Z</time>
      </trkpt>
      <trkpt lat="43.18089" lon="-0.62626">
        <ele>237.58</ele>
        <time>2017-03-05T07:11:01Z</time>
      </trkpt>
      <trkpt lat="43.18088" lon="-0.62629">
        <ele>237.58</ele>
        <time>2017-03-05T07:11:02Z</time>
      </trkpt>
      <trkpt lat="43.18084" lon="-0.62635">
        <ele>237.58</ele>
        <time>2017-03-05T07:11:05Z</time>
      </trkpt>
      <trkpt lat="43.18085" lon="-0.62637">
        <ele>237.58</ele>
        <time>2017-03-05T07:11:06Z</time>
      </trkpt>
      <trkpt lat="43.18088" lon="-0.62641">
        <ele>237.58</ele>
        <time>2017-03-05T07:11:08Z</time>
      </trkpt>
      <trkpt lat="43.18095" lon="-0.62645">
        <ele>237.58</ele>
        <time>2017-03-05T07:11:11Z</time>
      </trkpt>
      <trkpt lat="43.18098" lon="-0.62645">
        <ele>237.1</ele>
        <time>2017-03-05T07:11:12Z</time>
      </trkpt>
      <trkpt lat="43.18101" lon="-0.62645">
        <ele>237.1</ele>
        <time>2017-03-05T07:11:13Z</time>
      </trkpt>
      <trkpt lat="43.18103" lon="-0.62644">
        <ele>237.1</ele>
        <time>2017-03-05T07:11:14Z</time>
      </trkpt>
      <trkpt lat="43.18105" lon="-0.62643">
        <ele>237.1</ele>
        <time>2017-03-05T07:11:15Z</time>
      </trkpt>
      <trkpt lat="43.18107" lon="-0.62642">
        <ele>237.1</ele>
        <time>2017-03-05T07:11:16Z</time>
      </trkpt>
      <trkpt lat="43.18108" lon="-0.6264">
        <ele>237.1</ele>
        <time>2017-03-05T07:11:17Z</time>
      </trkpt>
      <trkpt lat="43.18126" lon="-0.62598">
        <ele>238.54</ele>
        <time>2017-03-05T07:11:31Z</time>
      </trkpt>
      <trkpt lat="43.18129" lon="-0.62588">
        <ele>239.02</ele>
        <time>2017-03-05T07:11:34Z</time>
      </trkpt>
      <trkpt lat="43.18119" lon="-0.62575">
        <ele>238.54</ele>
        <time>2017-03-05T07:11:39Z</time>
      </trkpt>
      <trkpt lat="43.18117" lon="-0.62573">
        <ele>238.06</ele>
        <time>2017-03-05T07:11:40Z</time>
      </trkpt>
      <trkpt lat="43.1807" lon="-0.62536">
        <ele>237.1</ele>
        <time>2017-03-05T07:11:57Z</time>
      </trkpt>
      <trkpt lat="43.18015" lon="-0.62491">
        <ele>237.1</ele>
        <time>2017-03-05T07:12:17Z</time>
      </trkpt>
      <trkpt lat="43.17968" lon="-0.6244">
        <ele>237.1</ele>
        <time>2017-03-05T07:12:35Z</time>
      </trkpt>
      <trkpt lat="43.17947" lon="-0.62391">
        <ele>238.54</ele>
        <time>2017-03-05T07:12:49Z</time>
      </trkpt>
      <trkpt lat="43.1797" lon="-0.62342">
        <ele>240.95</ele>
        <time>2017-03-05T07:13:03Z</time>
      </trkpt>
      <trkpt lat="43.18003" lon="-0.62294">
        <ele>242.39</ele>
        <time>2017-03-05T07:13:18Z</time>
      </trkpt>
      <trkpt lat="43.18036" lon="-0.62226">
        <ele>242.87</ele>
        <time>2017-03-05T07:13:36Z</time>
      </trkpt>
      <trkpt lat="43.18062" lon="-0.62182">
        <ele>243.35</ele>
        <time>2017-03-05T07:13:49Z</time>
      </trkpt>
      <trkpt lat="43.18074" lon="-0.62145">
        <ele>242.87</ele>
        <time>2017-03-05T07:13:59Z</time>
      </trkpt>
      <trkpt lat="43.18074" lon="-0.62143">
        <ele>242.39</ele>
        <time>2017-03-05T07:14:00Z</time>
      </trkpt>
      <trkpt lat="43.18073" lon="-0.62142">
        <ele>242.39</ele>
        <time>2017-03-05T07:14:11Z</time>
      </trkpt>
      <trkpt lat="43.18072" lon="-0.62133">
        <ele>242.87</ele>
        <time>2017-03-05T07:14:23Z</time>
      </trkpt>
      <trkpt lat="43.1806" lon="-0.62098">
        <ele>240.95</ele>
        <time>2017-03-05T07:14:32Z</time>
      </trkpt>
      <trkpt lat="43.18052" lon="-0.62075">
        <ele>239.99</ele>
        <time>2017-03-05T07:14:38Z</time>
      </trkpt>
      <trkpt lat="43.18049" lon="-0.62075">
        <ele>239.99</ele>
        <time>2017-03-05T07:14:40Z</time>
      </trkpt>
      <trkpt lat="43.18045" lon="-0.62077">
        <ele>240.47</ele>
        <time>2017-03-05T07:14:41Z</time>
      </trkpt>
      <trkpt lat="43.18042" lon="-0.62078">
        <ele>240.47</ele>
        <time>2017-03-05T07:14:42Z</time>
      </trkpt>
      <trkpt lat="43.17998" lon="-0.62118">
        <ele>241.43</ele>
        <time>2017-03-05T07:14:58Z</time>
      </trkpt>
      <trkpt lat="43.17947" lon="-0.62169">
        <ele>241.91</ele>
        <time>2017-03-05T07:15:14Z</time>
      </trkpt>
      <trkpt lat="43.17905" lon="-0.62241">
        <ele>242.87</ele>
        <time>2017-03-05T07:15:29Z</time>
      </trkpt>
      <trkpt lat="43.17901" lon="-0.62251">
        <ele>242.39</ele>
        <time>2017-03-05T07:15:31Z</time>
      </trkpt>
      <trkpt lat="43.17899" lon="-0.62257">
        <ele>242.39</ele>
        <time>2017-03-05T07:15:32Z</time>
      </trkpt>
      <trkpt lat="43.17896" lon="-0.62261">
        <ele>242.39</ele>
        <time>2017-03-05T07:15:33Z</time>
      </trkpt>
      <trkpt lat="43.1788" lon="-0.62296">
        <ele>242.87</ele>
        <time>2017-03-05T07:15:40Z</time>
      </trkpt>
      <trkpt lat="43.17863" lon="-0.62329">
        <ele>243.35</ele>
        <time>2017-03-05T07:15:47Z</time>
      </trkpt>
      <trkpt lat="43.17853" lon="-0.62349">
        <ele>243.35</ele>
        <time>2017-03-05T07:15:51Z</time>
      </trkpt>
      <trkpt lat="43.17821" lon="-0.62407">
        <ele>243.83</ele>
        <time>2017-03-05T07:16:03Z</time>
      </trkpt>
      <trkpt lat="43.17819" lon="-0.62411">
        <ele>243.83</ele>
        <time>2017-03-05T07:16:04Z</time>
      </trkpt>
      <trkpt lat="43.17772" lon="-0.62493">
        <ele>244.79</ele>
        <time>2017-03-05T07:16:21Z</time>
      </trkpt>
      <trkpt lat="43.17764" lon="-0.62513">
        <ele>245.27</ele>
        <time>2017-03-05T07:16:25Z</time>
      </trkpt>
      <trkpt lat="43.17763" lon="-0.62519">
        <ele>245.75</ele>
        <time>2017-03-05T07:16:26Z</time>
      </trkpt>
      <trkpt lat="43.1776" lon="-0.62543">
        <ele>246.23</ele>
        <time>2017-03-05T07:16:31Z</time>
      </trkpt>
      <trkpt lat="43.17758" lon="-0.62549">
        <ele>246.23</ele>
        <time>2017-03-05T07:16:32Z</time>
      </trkpt>
      <trkpt lat="43.17755" lon="-0.62554">
        <ele>245.75</ele>
        <time>2017-03-05T07:16:33Z</time>
      </trkpt>
      <trkpt lat="43.17752" lon="-0.62559">
        <ele>245.27</ele>
        <time>2017-03-05T07:16:34Z</time>
      </trkpt>
      <trkpt lat="43.17748" lon="-0.62564">
        <ele>245.27</ele>
        <time>2017-03-05T07:16:35Z</time>
      </trkpt>
      <trkpt lat="43.17745" lon="-0.62568">
        <ele>245.27</ele>
        <time>2017-03-05T07:16:36Z</time>
      </trkpt>
      <trkpt lat="43.17702" lon="-0.6262">
        <ele>246.23</ele>
        <time>2017-03-05T07:16:50Z</time>
      </trkpt>
      <trkpt lat="43.17646" lon="-0.62683">
        <ele>248.16</ele>
        <time>2017-03-05T07:17:08Z</time>
      </trkpt>
      <trkpt lat="43.17613" lon="-0.62702">
        <ele>250.08</ele>
        <time>2017-03-05T07:17:20Z</time>
      </trkpt>
      <trkpt lat="43.17581" lon="-0.62726">
        <ele>253.93</ele>
        <time>2017-03-05T07:17:34Z</time>
      </trkpt>
      <trkpt lat="43.17568" lon="-0.62732">
        <ele>255.37</ele>
        <time>2017-03-05T07:17:42Z</time>
      </trkpt>
      <trkpt lat="43.17566" lon="-0.62732">
        <ele>255.85</ele>
        <time>2017-03-05T07:17:43Z</time>
      </trkpt>
      <trkpt lat="43.17564" lon="-0.62733">
        <ele>255.85</ele>
        <time>2017-03-05T07:17:44Z</time>
      </trkpt>
      <trkpt lat="43.17563" lon="-0.62734">
        <ele>255.85</ele>
        <time>2017-03-05T07:17:45Z</time>
      </trkpt>
      <trkpt lat="43.17561" lon="-0.62734">
        <ele>256.33</ele>
        <time>2017-03-05T07:17:46Z</time>
      </trkpt>
      <trkpt lat="43.1756" lon="-0.62734">
        <ele>256.81</ele>
        <time>2017-03-05T07:17:47Z</time>
      </trkpt>
      <trkpt lat="43.17534" lon="-0.62737">
        <ele>263.06</ele>
        <time>2017-03-05T07:18:04Z</time>
      </trkpt>
      <trkpt lat="43.17505" lon="-0.62739">
        <ele>268.35</ele>
        <time>2017-03-05T07:18:21Z</time>
      </trkpt>
      <trkpt lat="43.17478" lon="-0.62744">
        <ele>271.71</ele>
        <time>2017-03-05T07:18:37Z</time>
      </trkpt>
      <trkpt lat="43.17454" lon="-0.62753">
        <ele>273.63</ele>
        <time>2017-03-05T07:18:52Z</time>
      </trkpt>
      <trkpt lat="43.1742" lon="-0.6277">
        <ele>275.56</ele>
        <time>2017-03-05T07:19:10Z</time>
      </trkpt>
      <trkpt lat="43.17385" lon="-0.62786">
        <ele>277</ele>
        <time>2017-03-05T07:19:26Z</time>
      </trkpt>
      <trkpt lat="43.17341" lon="-0.62796">
        <ele>277.96</ele>
        <time>2017-03-05T07:19:42Z</time>
      </trkpt>
      <trkpt lat="43.17275" lon="-0.62811">
        <ele>277.96</ele>
        <time>2017-03-05T07:19:58Z</time>
      </trkpt>
      <trkpt lat="43.17211" lon="-0.62825">
        <ele>279.88</ele>
        <time>2017-03-05T07:20:15Z</time>
      </trkpt>
      <trkpt lat="43.17157" lon="-0.62835">
        <ele>282.77</ele>
        <time>2017-03-05T07:20:30Z</time>
      </trkpt>
      <trkpt lat="43.17099" lon="-0.62845">
        <ele>283.73</ele>
        <time>2017-03-05T07:20:46Z</time>
      </trkpt>
      <trkpt lat="43.17034" lon="-0.6284">
        <ele>282.28</ele>
        <time>2017-03-05T07:21:01Z</time>
      </trkpt>
      <trkpt lat="43.16979" lon="-0.62834">
        <ele>281.8</ele>
        <time>2017-03-05T07:21:13Z</time>
      </trkpt>
      <trkpt lat="43.16926" lon="-0.62837">
        <ele>284.69</ele>
        <time>2017-03-05T07:21:26Z</time>
      </trkpt>
      <trkpt lat="43.16922" lon="-0.62838">
        <ele>284.69</ele>
        <time>2017-03-05T07:21:27Z</time>
      </trkpt>
      <trkpt lat="43.16918" lon="-0.6284">
        <ele>285.17</ele>
        <time>2017-03-05T07:21:28Z</time>
      </trkpt>
      <trkpt lat="43.16914" lon="-0.62842">
        <ele>285.17</ele>
        <time>2017-03-05T07:21:29Z</time>
      </trkpt>
      <trkpt lat="43.16907" lon="-0.62847">
        <ele>285.17</ele>
        <time>2017-03-05T07:21:31Z</time>
      </trkpt>
      <trkpt lat="43.16903" lon="-0.62849">
        <ele>285.17</ele>
        <time>2017-03-05T07:21:32Z</time>
      </trkpt>
      <trkpt lat="43.16899" lon="-0.62852">
        <ele>285.17</ele>
        <time>2017-03-05T07:21:33Z</time>
      </trkpt>
      <trkpt lat="43.16865" lon="-0.6288">
        <ele>286.13</ele>
        <time>2017-03-05T07:21:44Z</time>
      </trkpt>
      <trkpt lat="43.16827" lon="-0.62909">
        <ele>289.49</ele>
        <time>2017-03-05T07:21:57Z</time>
      </trkpt>
      <trkpt lat="43.16829" lon="-0.62954">
        <ele>290.46</ele>
        <time>2017-03-05T07:22:08Z</time>
      </trkpt>
      <trkpt lat="43.16853" lon="-0.63021">
        <ele>289.49</ele>
        <time>2017-03-05T07:22:19Z</time>
      </trkpt>
      <trkpt lat="43.16879" lon="-0.63092">
        <ele>286.61</ele>
        <time>2017-03-05T07:22:28Z</time>
      </trkpt>
      <trkpt lat="43.16883" lon="-0.63102">
        <ele>285.65</ele>
        <time>2017-03-05T07:22:29Z</time>
      </trkpt>
      <trkpt lat="43.16888" lon="-0.6311">
        <ele>285.17</ele>
        <time>2017-03-05T07:22:30Z</time>
      </trkpt>
      <trkpt lat="43.16893" lon="-0.63117">
        <ele>284.69</ele>
        <time>2017-03-05T07:22:31Z</time>
      </trkpt>
      <trkpt lat="43.16899" lon="-0.63123">
        <ele>284.21</ele>
        <time>2017-03-05T07:22:32Z</time>
      </trkpt>
      <trkpt lat="43.16903" lon="-0.63129">
        <ele>283.73</ele>
        <time>2017-03-05T07:22:33Z</time>
      </trkpt>
      <trkpt lat="43.16906" lon="-0.63134">
        <ele>283.73</ele>
        <time>2017-03-05T07:22:34Z</time>
      </trkpt>
      <trkpt lat="43.16908" lon="-0.6314">
        <ele>283.25</ele>
        <time>2017-03-05T07:22:35Z</time>
      </trkpt>
      <trkpt lat="43.16908" lon="-0.63146">
        <ele>283.25</ele>
        <time>2017-03-05T07:22:36Z</time>
      </trkpt>
      <trkpt lat="43.16907" lon="-0.6315">
        <ele>283.73</ele>
        <time>2017-03-05T07:22:37Z</time>
      </trkpt>
      <trkpt lat="43.16905" lon="-0.63155">
        <ele>283.73</ele>
        <time>2017-03-05T07:22:38Z</time>
      </trkpt>
      <trkpt lat="43.16902" lon="-0.63158">
        <ele>283.73</ele>
        <time>2017-03-05T07:22:39Z</time>
      </trkpt>
      <trkpt lat="43.169" lon="-0.63161">
        <ele>283.73</ele>
        <time>2017-03-05T07:22:40Z</time>
      </trkpt>
      <trkpt lat="43.16897" lon="-0.63164">
        <ele>283.73</ele>
        <time>2017-03-05T07:22:41Z</time>
      </trkpt>
      <trkpt lat="43.16893" lon="-0.63166">
        <ele>283.73</ele>
        <time>2017-03-05T07:22:42Z</time>
      </trkpt>
      <trkpt lat="43.1689" lon="-0.6317">
        <ele>283.73</ele>
        <time>2017-03-05T07:22:43Z</time>
      </trkpt>
      <trkpt lat="43.16877" lon="-0.63185">
        <ele>284.21</ele>
        <time>2017-03-05T07:22:47Z</time>
      </trkpt>
      <trkpt lat="43.16873" lon="-0.6319">
        <ele>284.69</ele>
        <time>2017-03-05T07:22:48Z</time>
      </trkpt>
      <trkpt lat="43.16806" lon="-0.63268">
        <ele>280.36</ele>
        <time>2017-03-05T07:23:03Z</time>
      </trkpt>
      <trkpt lat="43.16739" lon="-0.63337">
        <ele>271.23</ele>
        <time>2017-03-05T07:23:11Z</time>
      </trkpt>
      <trkpt lat="43.16734" lon="-0.63346">
        <ele>270.75</ele>
        <time>2017-03-05T07:23:12Z</time>
      </trkpt>
      <trkpt lat="43.16732" lon="-0.63355">
        <ele>270.27</ele>
        <time>2017-03-05T07:23:13Z</time>
      </trkpt>
      <trkpt lat="43.16731" lon="-0.63363">
        <ele>270.27</ele>
        <time>2017-03-05T07:23:14Z</time>
      </trkpt>
      <trkpt lat="43.16732" lon="-0.6337">
        <ele>269.79</ele>
        <time>2017-03-05T07:23:15Z</time>
      </trkpt>
      <trkpt lat="43.16731" lon="-0.63376">
        <ele>269.79</ele>
        <time>2017-03-05T07:23:16Z</time>
      </trkpt>
      <trkpt lat="43.1673" lon="-0.63382">
        <ele>269.79</ele>
        <time>2017-03-05T07:23:17Z</time>
      </trkpt>
      <trkpt lat="43.16723" lon="-0.63403">
        <ele>269.31</ele>
        <time>2017-03-05T07:23:20Z</time>
      </trkpt>
      <trkpt lat="43.1671" lon="-0.63455">
        <ele>268.35</ele>
        <time>2017-03-05T07:23:29Z</time>
      </trkpt>
      <trkpt lat="43.16704" lon="-0.63489">
        <ele>270.75</ele>
        <time>2017-03-05T07:23:35Z</time>
      </trkpt>
      <trkpt lat="43.167" lon="-0.63514">
        <ele>271.23</ele>
        <time>2017-03-05T07:23:39Z</time>
      </trkpt>
      <trkpt lat="43.16698" lon="-0.63533">
        <ele>270.75</ele>
        <time>2017-03-05T07:23:42Z</time>
      </trkpt>
      <trkpt lat="43.16692" lon="-0.63561">
        <ele>271.23</ele>
        <time>2017-03-05T07:23:47Z</time>
      </trkpt>
      <trkpt lat="43.16691" lon="-0.63594">
        <ele>270.75</ele>
        <time>2017-03-05T07:23:52Z</time>
      </trkpt>
      <trkpt lat="43.16688" lon="-0.63655">
        <ele>274.59</ele>
        <time>2017-03-05T07:24:03Z</time>
      </trkpt>
      <trkpt lat="43.16679" lon="-0.63678">
        <ele>279.4</ele>
        <time>2017-03-05T07:24:12Z</time>
      </trkpt>
      <trkpt lat="43.16651" lon="-0.63708">
        <ele>284.21</ele>
        <time>2017-03-05T07:24:27Z</time>
      </trkpt>
      <trkpt lat="43.16625" lon="-0.63734">
        <ele>286.61</ele>
        <time>2017-03-05T07:24:38Z</time>
      </trkpt>
      <trkpt lat="43.1662" lon="-0.63738">
        <ele>286.61</ele>
        <time>2017-03-05T07:24:39Z</time>
      </trkpt>
      <trkpt lat="43.16578" lon="-0.63767">
        <ele>280.36</ele>
        <time>2017-03-05T07:24:47Z</time>
      </trkpt>
      <trkpt lat="43.16571" lon="-0.63769">
        <ele>279.4</ele>
        <time>2017-03-05T07:24:48Z</time>
      </trkpt>
      <trkpt lat="43.16564" lon="-0.63769">
        <ele>278.92</ele>
        <time>2017-03-05T07:24:49Z</time>
      </trkpt>
      <trkpt lat="43.16556" lon="-0.63769">
        <ele>277.96</ele>
        <time>2017-03-05T07:24:50Z</time>
      </trkpt>
      <trkpt lat="43.16548" lon="-0.63769">
        <ele>277</ele>
        <time>2017-03-05T07:24:51Z</time>
      </trkpt>
      <trkpt lat="43.16539" lon="-0.6377">
        <ele>276.04</ele>
        <time>2017-03-05T07:24:52Z</time>
      </trkpt>
      <trkpt lat="43.16491" lon="-0.63768">
        <ele>272.19</ele>
        <time>2017-03-05T07:24:58Z</time>
      </trkpt>
      <trkpt lat="43.16458" lon="-0.638">
        <ele>268.83</ele>
        <time>2017-03-05T07:25:05Z</time>
      </trkpt>
      <trkpt lat="43.16454" lon="-0.63834">
        <ele>267.38</ele>
        <time>2017-03-05T07:25:10Z</time>
      </trkpt>
      <trkpt lat="43.1645" lon="-0.63863">
        <ele>265.46</ele>
        <time>2017-03-05T07:25:16Z</time>
      </trkpt>
      <trkpt lat="43.16449" lon="-0.6388">
        <ele>267.38</ele>
        <time>2017-03-05T07:25:21Z</time>
      </trkpt>
      <trkpt lat="43.16436" lon="-0.63925">
        <ele>274.59</ele>
        <time>2017-03-05T07:25:34Z</time>
      </trkpt>
      <trkpt lat="43.16409" lon="-0.63972">
        <ele>273.63</ele>
        <time>2017-03-05T07:25:45Z</time>
      </trkpt>
      <trkpt lat="43.16396" lon="-0.63996">
        <ele>272.67</ele>
        <time>2017-03-05T07:25:49Z</time>
      </trkpt>
      <trkpt lat="43.16386" lon="-0.64016">
        <ele>272.19</ele>
        <time>2017-03-05T07:25:52Z</time>
      </trkpt>
      <trkpt lat="43.16365" lon="-0.64066">
        <ele>267.38</ele>
        <time>2017-03-05T07:25:58Z</time>
      </trkpt>
      <trkpt lat="43.1637" lon="-0.64107">
        <ele>265.46</ele>
        <time>2017-03-05T07:26:04Z</time>
      </trkpt>
      <trkpt lat="43.164" lon="-0.6415">
        <ele>266.9</ele>
        <time>2017-03-05T07:26:18Z</time>
      </trkpt>
      <trkpt lat="43.1642" lon="-0.64175">
        <ele>274.11</ele>
        <time>2017-03-05T07:26:33Z</time>
      </trkpt>
      <trkpt lat="43.16429" lon="-0.6419">
        <ele>275.56</ele>
        <time>2017-03-05T07:26:41Z</time>
      </trkpt>
      <trkpt lat="43.16432" lon="-0.64195">
        <ele>275.56</ele>
        <time>2017-03-05T07:26:43Z</time>
      </trkpt>
      <trkpt lat="43.16434" lon="-0.64198">
        <ele>275.07</ele>
        <time>2017-03-05T07:26:44Z</time>
      </trkpt>
      <trkpt lat="43.16436" lon="-0.64202">
        <ele>275.07</ele>
        <time>2017-03-05T07:26:45Z</time>
      </trkpt>
      <trkpt lat="43.16438" lon="-0.64205">
        <ele>274.59</ele>
        <time>2017-03-05T07:26:46Z</time>
      </trkpt>
      <trkpt lat="43.16448" lon="-0.64218">
        <ele>273.63</ele>
        <time>2017-03-05T07:26:49Z</time>
      </trkpt>
      <trkpt lat="43.16455" lon="-0.64229">
        <ele>272.67</ele>
        <time>2017-03-05T07:26:51Z</time>
      </trkpt>
      <trkpt lat="43.1646" lon="-0.64235">
        <ele>271.71</ele>
        <time>2017-03-05T07:26:52Z</time>
      </trkpt>
      <trkpt lat="43.16464" lon="-0.64241">
        <ele>271.23</ele>
        <time>2017-03-05T07:26:53Z</time>
      </trkpt>
      <trkpt lat="43.16524" lon="-0.64333">
        <ele>258.73</ele>
        <time>2017-03-05T07:27:06Z</time>
      </trkpt>
      <trkpt lat="43.16543" lon="-0.64358">
        <ele>254.41</ele>
        <time>2017-03-05T07:27:10Z</time>
      </trkpt>
      <trkpt lat="43.16547" lon="-0.64365">
        <ele>253.44</ele>
        <time>2017-03-05T07:27:11Z</time>
      </trkpt>
      <trkpt lat="43.1655" lon="-0.64371">
        <ele>252</ele>
        <time>2017-03-05T07:27:12Z</time>
      </trkpt>
      <trkpt lat="43.16553" lon="-0.64378">
        <ele>251.04</ele>
        <time>2017-03-05T07:27:13Z</time>
      </trkpt>
      <trkpt lat="43.16557" lon="-0.64383">
        <ele>250.08</ele>
        <time>2017-03-05T07:27:14Z</time>
      </trkpt>
      <trkpt lat="43.16561" lon="-0.64386">
        <ele>249.12</ele>
        <time>2017-03-05T07:27:15Z</time>
      </trkpt>
      <trkpt lat="43.16566" lon="-0.64388">
        <ele>248.16</ele>
        <time>2017-03-05T07:27:16Z</time>
      </trkpt>
      <trkpt lat="43.16572" lon="-0.6439">
        <ele>247.2</ele>
        <time>2017-03-05T07:27:17Z</time>
      </trkpt>
      <trkpt lat="43.16585" lon="-0.64395">
        <ele>244.79</ele>
        <time>2017-03-05T07:27:19Z</time>
      </trkpt>
      <trkpt lat="43.16599" lon="-0.64402">
        <ele>242.87</ele>
        <time>2017-03-05T07:27:21Z</time>
      </trkpt>
      <trkpt lat="43.16604" lon="-0.64407">
        <ele>242.39</ele>
        <time>2017-03-05T07:27:22Z</time>
      </trkpt>
      <trkpt lat="43.16609" lon="-0.64412">
        <ele>241.43</ele>
        <time>2017-03-05T07:27:23Z</time>
      </trkpt>
      <trkpt lat="43.16614" lon="-0.6442">
        <ele>240.47</ele>
        <time>2017-03-05T07:27:24Z</time>
      </trkpt>
      <trkpt lat="43.16619" lon="-0.64427">
        <ele>239.99</ele>
        <time>2017-03-05T07:27:25Z</time>
      </trkpt>
      <trkpt lat="43.16624" lon="-0.64436">
        <ele>239.02</ele>
        <time>2017-03-05T07:27:26Z</time>
      </trkpt>
      <trkpt lat="43.16636" lon="-0.64455">
        <ele>237.1</ele>
        <time>2017-03-05T07:27:28Z</time>
      </trkpt>
      <trkpt lat="43.16642" lon="-0.64463">
        <ele>236.14</ele>
        <time>2017-03-05T07:27:29Z</time>
      </trkpt>
      <trkpt lat="43.16658" lon="-0.6448">
        <ele>235.66</ele>
        <time>2017-03-05T07:27:31Z</time>
      </trkpt>
      <trkpt lat="43.16718" lon="-0.64556">
        <ele>233.74</ele>
        <time>2017-03-05T07:27:41Z</time>
      </trkpt>
      <trkpt lat="43.16735" lon="-0.64579">
        <ele>233.74</ele>
        <time>2017-03-05T07:27:44Z</time>
      </trkpt>
      <trkpt lat="43.16741" lon="-0.64585">
        <ele>233.26</ele>
        <time>2017-03-05T07:27:45Z</time>
      </trkpt>
      <trkpt lat="43.16748" lon="-0.64591">
        <ele>233.26</ele>
        <time>2017-03-05T07:27:46Z</time>
      </trkpt>
      <trkpt lat="43.16801" lon="-0.64628">
        <ele>230.85</ele>
        <time>2017-03-05T07:27:56Z</time>
      </trkpt>
      <trkpt lat="43.16803" lon="-0.6463">
        <ele>231.33</ele>
        <time>2017-03-05T07:27:57Z</time>
      </trkpt>
      <trkpt lat="43.16805" lon="-0.64633">
        <ele>231.33</ele>
        <time>2017-03-05T07:27:58Z</time>
      </trkpt>
      <trkpt lat="43.16805" lon="-0.64636">
        <ele>230.85</ele>
        <time>2017-03-05T07:27:59Z</time>
      </trkpt>
      <trkpt lat="43.16801" lon="-0.64654">
        <ele>231.33</ele>
        <time>2017-03-05T07:28:08Z</time>
      </trkpt>
      <trkpt lat="43.16797" lon="-0.64659">
        <ele>232.3</ele>
        <time>2017-03-05T07:28:12Z</time>
      </trkpt>
      <trkpt lat="43.16792" lon="-0.64668">
        <ele>232.3</ele>
        <time>2017-03-05T07:28:18Z</time>
      </trkpt>
      <trkpt lat="43.16784" lon="-0.64704">
        <ele>230.85</ele>
        <time>2017-03-05T07:28:30Z</time>
      </trkpt>
      <trkpt lat="43.16775" lon="-0.64725">
        <ele>230.37</ele>
        <time>2017-03-05T07:28:39Z</time>
      </trkpt>
      <trkpt lat="43.16774" lon="-0.64727">
        <ele>230.37</ele>
        <time>2017-03-05T07:28:40Z</time>
      </trkpt>
      <trkpt lat="43.1677" lon="-0.64733">
        <ele>230.85</ele>
        <time>2017-03-05T07:28:44Z</time>
      </trkpt>
      <trkpt lat="43.16766" lon="-0.64736">
        <ele>230.85</ele>
        <time>2017-03-05T07:28:46Z</time>
      </trkpt>
      <trkpt lat="43.1676" lon="-0.64745">
        <ele>230.85</ele>
        <time>2017-03-05T07:28:50Z</time>
      </trkpt>
      <trkpt lat="43.16759" lon="-0.64748">
        <ele>230.37</ele>
        <time>2017-03-05T07:28:51Z</time>
      </trkpt>
      <trkpt lat="43.16758" lon="-0.6475">
        <ele>230.37</ele>
        <time>2017-03-05T07:28:52Z</time>
      </trkpt>
      <trkpt lat="43.16756" lon="-0.64753">
        <ele>230.37</ele>
        <time>2017-03-05T07:28:53Z</time>
      </trkpt>
      <trkpt lat="43.16755" lon="-0.64755">
        <ele>230.37</ele>
        <time>2017-03-05T07:28:54Z</time>
      </trkpt>
      <trkpt lat="43.16751" lon="-0.64761">
        <ele>229.89</ele>
        <time>2017-03-05T07:28:57Z</time>
      </trkpt>
      <trkpt lat="43.16749" lon="-0.64763">
        <ele>229.41</ele>
        <time>2017-03-05T07:28:58Z</time>
      </trkpt>
      <trkpt lat="43.16732" lon="-0.64785">
        <ele>226.53</ele>
        <time>2017-03-05T07:29:07Z</time>
      </trkpt>
      <trkpt lat="43.1671" lon="-0.64819">
        <ele>223.64</ele>
        <time>2017-03-05T07:29:18Z</time>
      </trkpt>
      <trkpt lat="43.16694" lon="-0.64845">
        <ele>223.64</ele>
        <time>2017-03-05T07:29:26Z</time>
      </trkpt>
      <trkpt lat="43.16693" lon="-0.64848">
        <ele>224.12</ele>
        <time>2017-03-05T07:29:27Z</time>
      </trkpt>
      <trkpt lat="43.16693" lon="-0.64851">
        <ele>224.61</ele>
        <time>2017-03-05T07:29:28Z</time>
      </trkpt>
      <trkpt lat="43.16693" lon="-0.64855">
        <ele>225.09</ele>
        <time>2017-03-05T07:29:29Z</time>
      </trkpt>
      <trkpt lat="43.16693" lon="-0.64861">
        <ele>225.57</ele>
        <time>2017-03-05T07:29:30Z</time>
      </trkpt>
      <trkpt lat="43.16693" lon="-0.64865">
        <ele>225.57</ele>
        <time>2017-03-05T07:29:31Z</time>
      </trkpt>
      <trkpt lat="43.16692" lon="-0.6487">
        <ele>226.05</ele>
        <time>2017-03-05T07:29:32Z</time>
      </trkpt>
      <trkpt lat="43.1669" lon="-0.64874">
        <ele>226.53</ele>
        <time>2017-03-05T07:29:33Z</time>
      </trkpt>
      <trkpt lat="43.16688" lon="-0.64877">
        <ele>227.01</ele>
        <time>2017-03-05T07:29:34Z</time>
      </trkpt>
      <trkpt lat="43.16685" lon="-0.64877">
        <ele>227.01</ele>
        <time>2017-03-05T07:29:35Z</time>
      </trkpt>
      <trkpt lat="43.16682" lon="-0.64878">
        <ele>227.01</ele>
        <time>2017-03-05T07:29:36Z</time>
      </trkpt>
      <trkpt lat="43.1668" lon="-0.64879">
        <ele>227.01</ele>
        <time>2017-03-05T07:29:37Z</time>
      </trkpt>
      <trkpt lat="43.16677" lon="-0.6488">
        <ele>227.49</ele>
        <time>2017-03-05T07:29:38Z</time>
      </trkpt>
      <trkpt lat="43.16675" lon="-0.64881">
        <ele>227.49</ele>
        <time>2017-03-05T07:29:39Z</time>
      </trkpt>
      <trkpt lat="43.16672" lon="-0.64883">
        <ele>227.49</ele>
        <time>2017-03-05T07:29:40Z</time>
      </trkpt>
      <trkpt lat="43.1667" lon="-0.64885">
        <ele>227.01</ele>
        <time>2017-03-05T07:29:41Z</time>
      </trkpt>
      <trkpt lat="43.16667" lon="-0.64887">
        <ele>226.53</ele>
        <time>2017-03-05T07:29:42Z</time>
      </trkpt>
      <trkpt lat="43.16665" lon="-0.64889">
        <ele>226.05</ele>
        <time>2017-03-05T07:29:43Z</time>
      </trkpt>
      <trkpt lat="43.16662" lon="-0.64891">
        <ele>226.05</ele>
        <time>2017-03-05T07:29:44Z</time>
      </trkpt>
      <trkpt lat="43.1664" lon="-0.64911">
        <ele>223.16</ele>
        <time>2017-03-05T07:29:53Z</time>
      </trkpt>
      <trkpt lat="43.16635" lon="-0.64915">
        <ele>223.16</ele>
        <time>2017-03-05T07:29:55Z</time>
      </trkpt>
      <trkpt lat="43.16633" lon="-0.64918">
        <ele>223.16</ele>
        <time>2017-03-05T07:29:56Z</time>
      </trkpt>
      <trkpt lat="43.16604" lon="-0.64929">
        <ele>225.09</ele>
        <time>2017-03-05T07:30:06Z</time>
      </trkpt>
      <trkpt lat="43.16572" lon="-0.64906">
        <ele>225.57</ele>
        <time>2017-03-05T07:30:18Z</time>
      </trkpt>
      <trkpt lat="43.16567" lon="-0.649">
        <ele>226.05</ele>
        <time>2017-03-05T07:30:20Z</time>
      </trkpt>
      <trkpt lat="43.16566" lon="-0.64897">
        <ele>226.05</ele>
        <time>2017-03-05T07:30:21Z</time>
      </trkpt>
      <trkpt lat="43.16564" lon="-0.64894">
        <ele>226.05</ele>
        <time>2017-03-05T07:30:22Z</time>
      </trkpt>
      <trkpt lat="43.16562" lon="-0.6489">
        <ele>226.05</ele>
        <time>2017-03-05T07:30:23Z</time>
      </trkpt>
      <trkpt lat="43.1656" lon="-0.64886">
        <ele>226.05</ele>
        <time>2017-03-05T07:30:24Z</time>
      </trkpt>
      <trkpt lat="43.16558" lon="-0.64882">
        <ele>226.05</ele>
        <time>2017-03-05T07:30:25Z</time>
      </trkpt>
      <trkpt lat="43.16556" lon="-0.64878">
        <ele>226.05</ele>
        <time>2017-03-05T07:30:26Z</time>
      </trkpt>
      <trkpt lat="43.16545" lon="-0.64843">
        <ele>224.12</ele>
        <time>2017-03-05T07:30:33Z</time>
      </trkpt>
      <trkpt lat="43.16543" lon="-0.64838">
        <ele>223.64</ele>
        <time>2017-03-05T07:30:34Z</time>
      </trkpt>
      <trkpt lat="43.16536" lon="-0.64824">
        <ele>222.2</ele>
        <time>2017-03-05T07:30:37Z</time>
      </trkpt>
      <trkpt lat="43.16533" lon="-0.64822">
        <ele>221.72</ele>
        <time>2017-03-05T07:30:38Z</time>
      </trkpt>
      <trkpt lat="43.16529" lon="-0.6482">
        <ele>220.76</ele>
        <time>2017-03-05T07:30:39Z</time>
      </trkpt>
      <trkpt lat="43.16526" lon="-0.64819">
        <ele>220.28</ele>
        <time>2017-03-05T07:30:40Z</time>
      </trkpt>
      <trkpt lat="43.16523" lon="-0.64819">
        <ele>220.28</ele>
        <time>2017-03-05T07:30:41Z</time>
      </trkpt>
      <trkpt lat="43.1652" lon="-0.6482">
        <ele>219.8</ele>
        <time>2017-03-05T07:30:42Z</time>
      </trkpt>
      <trkpt lat="43.16516" lon="-0.64822">
        <ele>219.32</ele>
        <time>2017-03-05T07:30:44Z</time>
      </trkpt>
      <trkpt lat="43.16516" lon="-0.64841">
        <ele>214.51</ele>
        <time>2017-03-05T07:30:52Z</time>
      </trkpt>
      <trkpt lat="43.16515" lon="-0.64844">
        <ele>214.03</ele>
        <time>2017-03-05T07:30:53Z</time>
      </trkpt>
      <trkpt lat="43.16517" lon="-0.64868">
        <ele>217.4</ele>
        <time>2017-03-05T07:31:01Z</time>
      </trkpt>
      <trkpt lat="43.16517" lon="-0.64872">
        <ele>218.36</ele>
        <time>2017-03-05T07:31:02Z</time>
      </trkpt>
      <trkpt lat="43.16518" lon="-0.64875">
        <ele>218.36</ele>
        <time>2017-03-05T07:31:03Z</time>
      </trkpt>
      <trkpt lat="43.16518" lon="-0.64879">
        <ele>218.84</ele>
        <time>2017-03-05T07:31:04Z</time>
      </trkpt>
      <trkpt lat="43.16518" lon="-0.64883">
        <ele>218.84</ele>
        <time>2017-03-05T07:31:05Z</time>
      </trkpt>
      <trkpt lat="43.16522" lon="-0.64918">
        <ele>216.43</ele>
        <time>2017-03-05T07:31:15Z</time>
      </trkpt>
      <trkpt lat="43.16527" lon="-0.64953">
        <ele>218.84</ele>
        <time>2017-03-05T07:31:25Z</time>
      </trkpt>
      <trkpt lat="43.16541" lon="-0.64979">
        <ele>220.28</ele>
        <time>2017-03-05T07:31:33Z</time>
      </trkpt>
      <trkpt lat="43.16542" lon="-0.64983">
        <ele>220.28</ele>
        <time>2017-03-05T07:31:34Z</time>
      </trkpt>
      <trkpt lat="43.16545" lon="-0.65022">
        <ele>221.72</ele>
        <time>2017-03-05T07:31:42Z</time>
      </trkpt>
      <trkpt lat="43.16546" lon="-0.65024">
        <ele>221.72</ele>
        <time>2017-03-05T07:31:43Z</time>
      </trkpt>
      <trkpt lat="43.16557" lon="-0.65029">
        <ele>224.61</ele>
        <time>2017-03-05T07:31:50Z</time>
      </trkpt>
      <trkpt lat="43.1656" lon="-0.65033">
        <ele>226.05</ele>
        <time>2017-03-05T07:31:56Z</time>
      </trkpt>
      <trkpt lat="43.16554" lon="-0.65044">
        <ele>226.53</ele>
        <time>2017-03-05T07:32:04Z</time>
      </trkpt>
      <trkpt lat="43.1655" lon="-0.65055">
        <ele>228.45</ele>
        <time>2017-03-05T07:32:13Z</time>
      </trkpt>
      <trkpt lat="43.16542" lon="-0.65065">
        <ele>230.85</ele>
        <time>2017-03-05T07:32:27Z</time>
      </trkpt>
      <trkpt lat="43.16538" lon="-0.65074">
        <ele>232.3</ele>
        <time>2017-03-05T07:32:32Z</time>
      </trkpt>
      <trkpt lat="43.16536" lon="-0.65074">
        <ele>232.78</ele>
        <time>2017-03-05T07:32:33Z</time>
      </trkpt>
      <trkpt lat="43.16535" lon="-0.65075">
        <ele>232.78</ele>
        <time>2017-03-05T07:32:34Z</time>
      </trkpt>
      <trkpt lat="43.16534" lon="-0.65076">
        <ele>232.78</ele>
        <time>2017-03-05T07:32:35Z</time>
      </trkpt>
      <trkpt lat="43.16533" lon="-0.65076">
        <ele>233.26</ele>
        <time>2017-03-05T07:32:36Z</time>
      </trkpt>
      <trkpt lat="43.16531" lon="-0.65077">
        <ele>233.26</ele>
        <time>2017-03-05T07:32:37Z</time>
      </trkpt>
      <trkpt lat="43.1653" lon="-0.65078">
        <ele>233.26</ele>
        <time>2017-03-05T07:32:38Z</time>
      </trkpt>
      <trkpt lat="43.16529" lon="-0.65078">
        <ele>233.26</ele>
        <time>2017-03-05T07:32:39Z</time>
      </trkpt>
      <trkpt lat="43.16527" lon="-0.65078">
        <ele>233.26</ele>
        <time>2017-03-05T07:32:40Z</time>
      </trkpt>
      <trkpt lat="43.16526" lon="-0.65079">
        <ele>233.74</ele>
        <time>2017-03-05T07:32:41Z</time>
      </trkpt>
      <trkpt lat="43.16525" lon="-0.6508">
        <ele>233.74</ele>
        <time>2017-03-05T07:32:42Z</time>
      </trkpt>
      <trkpt lat="43.16524" lon="-0.65081">
        <ele>233.74</ele>
        <time>2017-03-05T07:32:43Z</time>
      </trkpt>
      <trkpt lat="43.16522" lon="-0.65082">
        <ele>233.74</ele>
        <time>2017-03-05T07:32:44Z</time>
      </trkpt>
      <trkpt lat="43.16521" lon="-0.65083">
        <ele>233.74</ele>
        <time>2017-03-05T07:32:45Z</time>
      </trkpt>
      <trkpt lat="43.16519" lon="-0.65084">
        <ele>233.74</ele>
        <time>2017-03-05T07:32:46Z</time>
      </trkpt>
      <trkpt lat="43.16518" lon="-0.65085">
        <ele>234.22</ele>
        <time>2017-03-05T07:32:47Z</time>
      </trkpt>
      <trkpt lat="43.16499" lon="-0.65092">
        <ele>232.3</ele>
        <time>2017-03-05T07:32:55Z</time>
      </trkpt>
      <trkpt lat="43.16495" lon="-0.65098">
        <ele>231.33</ele>
        <time>2017-03-05T07:32:58Z</time>
      </trkpt>
      <trkpt lat="43.16494" lon="-0.65107">
        <ele>230.85</ele>
        <time>2017-03-05T07:33:02Z</time>
      </trkpt>
      <trkpt lat="43.16493" lon="-0.65113">
        <ele>230.85</ele>
        <time>2017-03-05T07:33:04Z</time>
      </trkpt>
      <trkpt lat="43.16497" lon="-0.65123">
        <ele>232.3</ele>
        <time>2017-03-05T07:33:08Z</time>
      </trkpt>
      <trkpt lat="43.16495" lon="-0.65132">
        <ele>232.3</ele>
        <time>2017-03-05T07:33:12Z</time>
      </trkpt>
      <trkpt lat="43.16493" lon="-0.65133">
        <ele>232.3</ele>
        <time>2017-03-05T07:33:13Z</time>
      </trkpt>
      <trkpt lat="43.16491" lon="-0.65135">
        <ele>232.3</ele>
        <time>2017-03-05T07:33:14Z</time>
      </trkpt>
      <trkpt lat="43.16489" lon="-0.65137">
        <ele>232.3</ele>
        <time>2017-03-05T07:33:15Z</time>
      </trkpt>
      <trkpt lat="43.16486" lon="-0.65139">
        <ele>232.3</ele>
        <time>2017-03-05T07:33:16Z</time>
      </trkpt>
      <trkpt lat="43.16482" lon="-0.65144">
        <ele>232.3</ele>
        <time>2017-03-05T07:33:18Z</time>
      </trkpt>
      <trkpt lat="43.16463" lon="-0.65195">
        <ele>235.66</ele>
        <time>2017-03-05T07:33:32Z</time>
      </trkpt>
      <trkpt lat="43.16456" lon="-0.65244">
        <ele>239.02</ele>
        <time>2017-03-05T07:33:44Z</time>
      </trkpt>
      <trkpt lat="43.16456" lon="-0.65256">
        <ele>239.51</ele>
        <time>2017-03-05T07:33:47Z</time>
      </trkpt>
      <trkpt lat="43.16455" lon="-0.6526">
        <ele>239.51</ele>
        <time>2017-03-05T07:33:48Z</time>
      </trkpt>
      <trkpt lat="43.16442" lon="-0.65294">
        <ele>241.43</ele>
        <time>2017-03-05T07:34:00Z</time>
      </trkpt>
      <trkpt lat="43.16427" lon="-0.65311">
        <ele>242.87</ele>
        <time>2017-03-05T07:34:11Z</time>
      </trkpt>
      <trkpt lat="43.16414" lon="-0.65329">
        <ele>247.2</ele>
        <time>2017-03-05T07:34:23Z</time>
      </trkpt>
      <trkpt lat="43.164" lon="-0.6535">
        <ele>251.04</ele>
        <time>2017-03-05T07:34:37Z</time>
      </trkpt>
      <trkpt lat="43.16387" lon="-0.65364">
        <ele>251.52</ele>
        <time>2017-03-05T07:34:49Z</time>
      </trkpt>
      <trkpt lat="43.16378" lon="-0.65375">
        <ele>254.89</ele>
        <time>2017-03-05T07:34:58Z</time>
      </trkpt>
      <trkpt lat="43.1636" lon="-0.65382">
        <ele>258.73</ele>
        <time>2017-03-05T07:35:12Z</time>
      </trkpt>
      <trkpt lat="43.16345" lon="-0.65395">
        <ele>258.73</ele>
        <time>2017-03-05T07:35:23Z</time>
      </trkpt>
      <trkpt lat="43.16318" lon="-0.65402">
        <ele>261.62</ele>
        <time>2017-03-05T07:35:36Z</time>
      </trkpt>
      <trkpt lat="43.1629" lon="-0.65411">
        <ele>264.5</ele>
        <time>2017-03-05T07:35:50Z</time>
      </trkpt>
      <trkpt lat="43.16274" lon="-0.65416">
        <ele>265.46</ele>
        <time>2017-03-05T07:35:58Z</time>
      </trkpt>
      <trkpt lat="43.1625" lon="-0.65443">
        <ele>266.9</ele>
        <time>2017-03-05T07:36:12Z</time>
      </trkpt>
      <trkpt lat="43.16239" lon="-0.65451">
        <ele>269.31</ele>
        <time>2017-03-05T07:36:18Z</time>
      </trkpt>
      <trkpt lat="43.16236" lon="-0.65452">
        <ele>269.31</ele>
        <time>2017-03-05T07:36:19Z</time>
      </trkpt>
      <trkpt lat="43.16234" lon="-0.65453">
        <ele>268.83</ele>
        <time>2017-03-05T07:36:20Z</time>
      </trkpt>
      <trkpt lat="43.16205" lon="-0.65465">
        <ele>268.35</ele>
        <time>2017-03-05T07:36:35Z</time>
      </trkpt>
      <trkpt lat="43.16184" lon="-0.65467">
        <ele>271.23</ele>
        <time>2017-03-05T07:36:46Z</time>
      </trkpt>
      <trkpt lat="43.1617" lon="-0.65479">
        <ele>270.75</ele>
        <time>2017-03-05T07:36:53Z</time>
      </trkpt>
      <trkpt lat="43.16171" lon="-0.65513">
        <ele>268.83</ele>
        <time>2017-03-05T07:37:03Z</time>
      </trkpt>
      <trkpt lat="43.16175" lon="-0.65558">
        <ele>267.38</ele>
        <time>2017-03-05T07:37:14Z</time>
      </trkpt>
      <trkpt lat="43.16176" lon="-0.6558">
        <ele>267.86</ele>
        <time>2017-03-05T07:37:20Z</time>
      </trkpt>
      <trkpt lat="43.16175" lon="-0.65584">
        <ele>267.86</ele>
        <time>2017-03-05T07:37:21Z</time>
      </trkpt>
      <trkpt lat="43.16176" lon="-0.65588">
        <ele>268.83</ele>
        <time>2017-03-05T07:37:22Z</time>
      </trkpt>
      <trkpt lat="43.16177" lon="-0.65591">
        <ele>269.31</ele>
        <time>2017-03-05T07:37:23Z</time>
      </trkpt>
      <trkpt lat="43.16177" lon="-0.65594">
        <ele>270.27</ele>
        <time>2017-03-05T07:37:24Z</time>
      </trkpt>
      <trkpt lat="43.16177" lon="-0.65598">
        <ele>270.75</ele>
        <time>2017-03-05T07:37:25Z</time>
      </trkpt>
      <trkpt lat="43.16177" lon="-0.65601">
        <ele>270.75</ele>
        <time>2017-03-05T07:37:26Z</time>
      </trkpt>
      <trkpt lat="43.16179" lon="-0.65621">
        <ele>271.23</ele>
        <time>2017-03-05T07:37:32Z</time>
      </trkpt>
      <trkpt lat="43.16177" lon="-0.6563">
        <ele>271.23</ele>
        <time>2017-03-05T07:37:36Z</time>
      </trkpt>
      <trkpt lat="43.16176" lon="-0.65631">
        <ele>271.23</ele>
        <time>2017-03-05T07:37:37Z</time>
      </trkpt>
      <trkpt lat="43.16174" lon="-0.65632">
        <ele>271.23</ele>
        <time>2017-03-05T07:37:38Z</time>
      </trkpt>
      <trkpt lat="43.16148" lon="-0.65639">
        <ele>267.38</ele>
        <time>2017-03-05T07:37:45Z</time>
      </trkpt>
      <trkpt lat="43.16144" lon="-0.65642">
        <ele>267.38</ele>
        <time>2017-03-05T07:37:46Z</time>
      </trkpt>
      <trkpt lat="43.1614" lon="-0.65644">
        <ele>266.42</ele>
        <time>2017-03-05T07:37:47Z</time>
      </trkpt>
      <trkpt lat="43.16132" lon="-0.65647">
        <ele>265.46</ele>
        <time>2017-03-05T07:37:49Z</time>
      </trkpt>
      <trkpt lat="43.16127" lon="-0.65647">
        <ele>264.98</ele>
        <time>2017-03-05T07:37:50Z</time>
      </trkpt>
      <trkpt lat="43.16123" lon="-0.65647">
        <ele>264.5</ele>
        <time>2017-03-05T07:37:51Z</time>
      </trkpt>
      <trkpt lat="43.16119" lon="-0.65648">
        <ele>264.02</ele>
        <time>2017-03-05T07:37:52Z</time>
      </trkpt>
      <trkpt lat="43.16114" lon="-0.6565">
        <ele>263.54</ele>
        <time>2017-03-05T07:37:53Z</time>
      </trkpt>
      <trkpt lat="43.1611" lon="-0.65652">
        <ele>263.06</ele>
        <time>2017-03-05T07:37:54Z</time>
      </trkpt>
      <trkpt lat="43.16105" lon="-0.65654">
        <ele>262.58</ele>
        <time>2017-03-05T07:37:55Z</time>
      </trkpt>
      <trkpt lat="43.161" lon="-0.65656">
        <ele>262.1</ele>
        <time>2017-03-05T07:37:56Z</time>
      </trkpt>
      <trkpt lat="43.1609" lon="-0.65659">
        <ele>261.14</ele>
        <time>2017-03-05T07:37:58Z</time>
      </trkpt>
      <trkpt lat="43.16085" lon="-0.65659">
        <ele>260.65</ele>
        <time>2017-03-05T07:37:59Z</time>
      </trkpt>
      <trkpt lat="43.16074" lon="-0.65659">
        <ele>259.21</ele>
        <time>2017-03-05T07:38:01Z</time>
      </trkpt>
      <trkpt lat="43.16049" lon="-0.65663">
        <ele>255.85</ele>
        <time>2017-03-05T07:38:06Z</time>
      </trkpt>
      <trkpt lat="43.16044" lon="-0.65662">
        <ele>255.37</ele>
        <time>2017-03-05T07:38:07Z</time>
      </trkpt>
      <trkpt lat="43.1604" lon="-0.65662">
        <ele>254.89</ele>
        <time>2017-03-05T07:38:08Z</time>
      </trkpt>
      <trkpt lat="43.16036" lon="-0.65661">
        <ele>253.93</ele>
        <time>2017-03-05T07:38:09Z</time>
      </trkpt>
      <trkpt lat="43.16032" lon="-0.65661">
        <ele>253.44</ele>
        <time>2017-03-05T07:38:10Z</time>
      </trkpt>
      <trkpt lat="43.16007" lon="-0.65656">
        <ele>250.08</ele>
        <time>2017-03-05T07:38:20Z</time>
      </trkpt>
      <trkpt lat="43.16004" lon="-0.65656">
        <ele>249.6</ele>
        <time>2017-03-05T07:38:21Z</time>
      </trkpt>
      <trkpt lat="43.16002" lon="-0.65656">
        <ele>249.12</ele>
        <time>2017-03-05T07:38:22Z</time>
      </trkpt>
      <trkpt lat="43.15999" lon="-0.65656">
        <ele>248.64</ele>
        <time>2017-03-05T07:38:23Z</time>
      </trkpt>
      <trkpt lat="43.15995" lon="-0.65658">
        <ele>247.68</ele>
        <time>2017-03-05T07:38:25Z</time>
      </trkpt>
      <trkpt lat="43.15993" lon="-0.65659">
        <ele>247.2</ele>
        <time>2017-03-05T07:38:26Z</time>
      </trkpt>
      <trkpt lat="43.15991" lon="-0.65661">
        <ele>246.72</ele>
        <time>2017-03-05T07:38:27Z</time>
      </trkpt>
      <trkpt lat="43.15979" lon="-0.65671">
        <ele>245.27</ele>
        <time>2017-03-05T07:38:34Z</time>
      </trkpt>
      <trkpt lat="43.15973" lon="-0.65663">
        <ele>241.43</ele>
        <time>2017-03-05T07:38:37Z</time>
      </trkpt>
      <trkpt lat="43.15955" lon="-0.65647">
        <ele>234.22</ele>
        <time>2017-03-05T07:38:44Z</time>
      </trkpt>
      <trkpt lat="43.15952" lon="-0.65641">
        <ele>231.81</ele>
        <time>2017-03-05T07:38:47Z</time>
      </trkpt>
      <trkpt lat="43.15951" lon="-0.65631">
        <ele>228.93</ele>
        <time>2017-03-05T07:38:51Z</time>
      </trkpt>
      <trkpt lat="43.15948" lon="-0.6562">
        <ele>228.45</ele>
        <time>2017-03-05T07:38:56Z</time>
      </trkpt>
      <trkpt lat="43.15947" lon="-0.65613">
        <ele>228.93</ele>
        <time>2017-03-05T07:38:59Z</time>
      </trkpt>
      <trkpt lat="43.15944" lon="-0.65594">
        <ele>232.3</ele>
        <time>2017-03-05T07:39:07Z</time>
      </trkpt>
      <trkpt lat="43.15932" lon="-0.6556">
        <ele>230.37</ele>
        <time>2017-03-05T07:39:17Z</time>
      </trkpt>
      <trkpt lat="43.15931" lon="-0.65557">
        <ele>230.37</ele>
        <time>2017-03-05T07:39:18Z</time>
      </trkpt>
      <trkpt lat="43.1593" lon="-0.65554">
        <ele>230.85</ele>
        <time>2017-03-05T07:39:19Z</time>
      </trkpt>
      <trkpt lat="43.15928" lon="-0.65552">
        <ele>231.33</ele>
        <time>2017-03-05T07:39:20Z</time>
      </trkpt>
      <trkpt lat="43.15926" lon="-0.6555">
        <ele>232.3</ele>
        <time>2017-03-05T07:39:21Z</time>
      </trkpt>
      <trkpt lat="43.15924" lon="-0.65548">
        <ele>233.26</ele>
        <time>2017-03-05T07:39:22Z</time>
      </trkpt>
      <trkpt lat="43.15923" lon="-0.65546">
        <ele>233.26</ele>
        <time>2017-03-05T07:39:23Z</time>
      </trkpt>
      <trkpt lat="43.15922" lon="-0.65543">
        <ele>233.74</ele>
        <time>2017-03-05T07:39:24Z</time>
      </trkpt>
      <trkpt lat="43.15921" lon="-0.6554">
        <ele>233.74</ele>
        <time>2017-03-05T07:39:25Z</time>
      </trkpt>
      <trkpt lat="43.15919" lon="-0.65537">
        <ele>234.22</ele>
        <time>2017-03-05T07:39:26Z</time>
      </trkpt>
      <trkpt lat="43.15917" lon="-0.65535">
        <ele>234.22</ele>
        <time>2017-03-05T07:39:27Z</time>
      </trkpt>
      <trkpt lat="43.15915" lon="-0.65534">
        <ele>234.7</ele>
        <time>2017-03-05T07:39:28Z</time>
      </trkpt>
      <trkpt lat="43.15914" lon="-0.65533">
        <ele>234.7</ele>
        <time>2017-03-05T07:39:29Z</time>
      </trkpt>
      <trkpt lat="43.15912" lon="-0.65532">
        <ele>234.7</ele>
        <time>2017-03-05T07:39:30Z</time>
      </trkpt>
      <trkpt lat="43.15911" lon="-0.65532">
        <ele>234.7</ele>
        <time>2017-03-05T07:39:31Z</time>
      </trkpt>
      <trkpt lat="43.15909" lon="-0.65533">
        <ele>234.7</ele>
        <time>2017-03-05T07:39:32Z</time>
      </trkpt>
      <trkpt lat="43.15907" lon="-0.65533">
        <ele>235.18</ele>
        <time>2017-03-05T07:39:33Z</time>
      </trkpt>
      <trkpt lat="43.15906" lon="-0.65532">
        <ele>235.18</ele>
        <time>2017-03-05T07:39:34Z</time>
      </trkpt>
      <trkpt lat="43.15904" lon="-0.65532">
        <ele>235.66</ele>
        <time>2017-03-05T07:39:35Z</time>
      </trkpt>
      <trkpt lat="43.15902" lon="-0.65531">
        <ele>236.14</ele>
        <time>2017-03-05T07:39:36Z</time>
      </trkpt>
      <trkpt lat="43.15881" lon="-0.65536">
        <ele>237.1</ele>
        <time>2017-03-05T07:39:46Z</time>
      </trkpt>
      <trkpt lat="43.15878" lon="-0.65538">
        <ele>236.62</ele>
        <time>2017-03-05T07:39:47Z</time>
      </trkpt>
      <trkpt lat="43.15847" lon="-0.65575">
        <ele>229.89</ele>
        <time>2017-03-05T07:39:59Z</time>
      </trkpt>
      <trkpt lat="43.15815" lon="-0.65602">
        <ele>228.93</ele>
        <time>2017-03-05T07:40:08Z</time>
      </trkpt>
      <trkpt lat="43.15771" lon="-0.6563">
        <ele>225.57</ele>
        <time>2017-03-05T07:40:20Z</time>
      </trkpt>
      <trkpt lat="43.15729" lon="-0.65634">
        <ele>222.2</ele>
        <time>2017-03-05T07:40:31Z</time>
      </trkpt>
      <trkpt lat="43.15674" lon="-0.65639">
        <ele>220.76</ele>
        <time>2017-03-05T07:40:45Z</time>
      </trkpt>
      <trkpt lat="43.15664" lon="-0.6564">
        <ele>220.76</ele>
        <time>2017-03-05T07:40:48Z</time>
      </trkpt>
      <trkpt lat="43.15661" lon="-0.65643">
        <ele>220.76</ele>
        <time>2017-03-05T07:40:49Z</time>
      </trkpt>
      <trkpt lat="43.15659" lon="-0.65646">
        <ele>220.76</ele>
        <time>2017-03-05T07:40:50Z</time>
      </trkpt>
      <trkpt lat="43.15657" lon="-0.65649">
        <ele>220.28</ele>
        <time>2017-03-05T07:40:51Z</time>
      </trkpt>
      <trkpt lat="43.15657" lon="-0.65653">
        <ele>220.28</ele>
        <time>2017-03-05T07:40:52Z</time>
      </trkpt>
      <trkpt lat="43.15656" lon="-0.65657">
        <ele>220.28</ele>
        <time>2017-03-05T07:40:53Z</time>
      </trkpt>
      <trkpt lat="43.15655" lon="-0.65661">
        <ele>220.28</ele>
        <time>2017-03-05T07:40:54Z</time>
      </trkpt>
      <trkpt lat="43.15653" lon="-0.65665">
        <ele>220.28</ele>
        <time>2017-03-05T07:40:55Z</time>
      </trkpt>
      <trkpt lat="43.15651" lon="-0.65668">
        <ele>220.76</ele>
        <time>2017-03-05T07:40:56Z</time>
      </trkpt>
      <trkpt lat="43.15649" lon="-0.6567">
        <ele>220.76</ele>
        <time>2017-03-05T07:40:57Z</time>
      </trkpt>
      <trkpt lat="43.15646" lon="-0.6567">
        <ele>220.76</ele>
        <time>2017-03-05T07:40:58Z</time>
      </trkpt>
      <trkpt lat="43.15643" lon="-0.65671">
        <ele>220.28</ele>
        <time>2017-03-05T07:40:59Z</time>
      </trkpt>
      <trkpt lat="43.1564" lon="-0.65671">
        <ele>219.8</ele>
        <time>2017-03-05T07:41:00Z</time>
      </trkpt>
      <trkpt lat="43.15638" lon="-0.65671">
        <ele>219.32</ele>
        <time>2017-03-05T07:41:01Z</time>
      </trkpt>
      <trkpt lat="43.15636" lon="-0.65671">
        <ele>219.32</ele>
        <time>2017-03-05T07:41:02Z</time>
      </trkpt>
      <trkpt lat="43.15633" lon="-0.65672">
        <ele>219.32</ele>
        <time>2017-03-05T07:41:03Z</time>
      </trkpt>
      <trkpt lat="43.15631" lon="-0.65673">
        <ele>219.8</ele>
        <time>2017-03-05T07:41:04Z</time>
      </trkpt>
      <trkpt lat="43.15628" lon="-0.65675">
        <ele>220.28</ele>
        <time>2017-03-05T07:41:05Z</time>
      </trkpt>
      <trkpt lat="43.15627" lon="-0.65678">
        <ele>220.28</ele>
        <time>2017-03-05T07:41:06Z</time>
      </trkpt>
      <trkpt lat="43.15609" lon="-0.65704">
        <ele>226.53</ele>
        <time>2017-03-05T07:41:19Z</time>
      </trkpt>
      <trkpt lat="43.15607" lon="-0.65706">
        <ele>227.49</ele>
        <time>2017-03-05T07:41:20Z</time>
      </trkpt>
      <trkpt lat="43.15592" lon="-0.65729">
        <ele>233.26</ele>
        <time>2017-03-05T07:41:32Z</time>
      </trkpt>
      <trkpt lat="43.15592" lon="-0.65732">
        <ele>233.26</ele>
        <time>2017-03-05T07:41:33Z</time>
      </trkpt>
      <trkpt lat="43.15592" lon="-0.65734">
        <ele>233.74</ele>
        <time>2017-03-05T07:41:34Z</time>
      </trkpt>
      <trkpt lat="43.15597" lon="-0.65757">
        <ele>238.54</ele>
        <time>2017-03-05T07:41:45Z</time>
      </trkpt>
      <trkpt lat="43.15601" lon="-0.65781">
        <ele>243.83</ele>
        <time>2017-03-05T07:41:58Z</time>
      </trkpt>
      <trkpt lat="43.156" lon="-0.65795">
        <ele>248.16</ele>
        <time>2017-03-05T07:42:05Z</time>
      </trkpt>
      <trkpt lat="43.15587" lon="-0.65806">
        <ele>253.93</ele>
        <time>2017-03-05T07:42:17Z</time>
      </trkpt>
      <trkpt lat="43.15582" lon="-0.65833">
        <ele>259.69</ele>
        <time>2017-03-05T07:42:32Z</time>
      </trkpt>
      <trkpt lat="43.15583" lon="-0.65837">
        <ele>259.69</ele>
        <time>2017-03-05T07:42:34Z</time>
      </trkpt>
      <trkpt lat="43.15593" lon="-0.65864">
        <ele>261.14</ele>
        <time>2017-03-05T07:42:49Z</time>
      </trkpt>
      <trkpt lat="43.15599" lon="-0.65879">
        <ele>263.54</ele>
        <time>2017-03-05T07:42:58Z</time>
      </trkpt>
      <trkpt lat="43.15611" lon="-0.659">
        <ele>264.98</ele>
        <time>2017-03-05T07:43:12Z</time>
      </trkpt>
      <trkpt lat="43.15618" lon="-0.65908">
        <ele>265.94</ele>
        <time>2017-03-05T07:43:19Z</time>
      </trkpt>
      <trkpt lat="43.15629" lon="-0.65915">
        <ele>266.42</ele>
        <time>2017-03-05T07:43:27Z</time>
      </trkpt>
      <trkpt lat="43.15636" lon="-0.65921">
        <ele>266.42</ele>
        <time>2017-03-05T07:43:32Z</time>
      </trkpt>
      <trkpt lat="43.15651" lon="-0.65942">
        <ele>269.31</ele>
        <time>2017-03-05T07:43:47Z</time>
      </trkpt>
      <trkpt lat="43.15667" lon="-0.65956">
        <ele>272.67</ele>
        <time>2017-03-05T07:44:00Z</time>
      </trkpt>
      <trkpt lat="43.15696" lon="-0.6598">
        <ele>275.56</ele>
        <time>2017-03-05T07:44:16Z</time>
      </trkpt>
      <trkpt lat="43.15728" lon="-0.66004">
        <ele>278.92</ele>
        <time>2017-03-05T07:44:33Z</time>
      </trkpt>
      <trkpt lat="43.15752" lon="-0.66028">
        <ele>280.84</ele>
        <time>2017-03-05T07:44:48Z</time>
      </trkpt>
      <trkpt lat="43.15767" lon="-0.66038">
        <ele>283.73</ele>
        <time>2017-03-05T07:44:57Z</time>
      </trkpt>
      <trkpt lat="43.15768" lon="-0.6604">
        <ele>284.21</ele>
        <time>2017-03-05T07:44:58Z</time>
      </trkpt>
      <trkpt lat="43.15769" lon="-0.66042">
        <ele>284.21</ele>
        <time>2017-03-05T07:44:59Z</time>
      </trkpt>
      <trkpt lat="43.1577" lon="-0.66044">
        <ele>284.69</ele>
        <time>2017-03-05T07:45:00Z</time>
      </trkpt>
      <trkpt lat="43.15771" lon="-0.66046">
        <ele>284.21</ele>
        <time>2017-03-05T07:45:01Z</time>
      </trkpt>
      <trkpt lat="43.15772" lon="-0.66048">
        <ele>284.21</ele>
        <time>2017-03-05T07:45:02Z</time>
      </trkpt>
      <trkpt lat="43.15788" lon="-0.66067">
        <ele>282.28</ele>
        <time>2017-03-05T07:45:12Z</time>
      </trkpt>
      <trkpt lat="43.15795" lon="-0.66122">
        <ele>280.36</ele>
        <time>2017-03-05T07:45:23Z</time>
      </trkpt>
      <trkpt lat="43.15794" lon="-0.66134">
        <ele>280.84</ele>
        <time>2017-03-05T07:45:25Z</time>
      </trkpt>
      <trkpt lat="43.1579" lon="-0.66143">
        <ele>281.32</ele>
        <time>2017-03-05T07:45:27Z</time>
      </trkpt>
      <trkpt lat="43.15785" lon="-0.66192">
        <ele>281.8</ele>
        <time>2017-03-05T07:45:36Z</time>
      </trkpt>
      <trkpt lat="43.15779" lon="-0.66214">
        <ele>281.8</ele>
        <time>2017-03-05T07:45:40Z</time>
      </trkpt>
      <trkpt lat="43.15762" lon="-0.66255">
        <ele>287.09</ele>
        <time>2017-03-05T07:45:51Z</time>
      </trkpt>
      <trkpt lat="43.15749" lon="-0.66294">
        <ele>289.49</ele>
        <time>2017-03-05T07:46:03Z</time>
      </trkpt>
      <trkpt lat="43.15743" lon="-0.66317">
        <ele>290.94</ele>
        <time>2017-03-05T07:46:11Z</time>
      </trkpt>
      <trkpt lat="43.15739" lon="-0.66331">
        <ele>292.86</ele>
        <time>2017-03-05T07:46:16Z</time>
      </trkpt>
      <trkpt lat="43.1573" lon="-0.66359">
        <ele>295.26</ele>
        <time>2017-03-05T07:46:29Z</time>
      </trkpt>
      <trkpt lat="43.15726" lon="-0.66365">
        <ele>296.22</ele>
        <time>2017-03-05T07:46:33Z</time>
      </trkpt>
      <trkpt lat="43.15725" lon="-0.66371">
        <ele>297.18</ele>
        <time>2017-03-05T07:46:37Z</time>
      </trkpt>
      <trkpt lat="43.15722" lon="-0.66379">
        <ele>298.15</ele>
        <time>2017-03-05T07:46:42Z</time>
      </trkpt>
      <trkpt lat="43.15712" lon="-0.66395">
        <ele>301.51</ele>
        <time>2017-03-05T07:46:53Z</time>
      </trkpt>
      <trkpt lat="43.1571" lon="-0.66397">
        <ele>301.51</ele>
        <time>2017-03-05T07:46:55Z</time>
      </trkpt>
      <trkpt lat="43.15703" lon="-0.66405">
        <ele>300.07</ele>
        <time>2017-03-05T07:47:03Z</time>
      </trkpt>
      <trkpt lat="43.15698" lon="-0.66406">
        <ele>300.55</ele>
        <time>2017-03-05T07:47:06Z</time>
      </trkpt>
      <trkpt lat="43.15679" lon="-0.66425">
        <ele>306.32</ele>
        <time>2017-03-05T07:47:21Z</time>
      </trkpt>
      <trkpt lat="43.15667" lon="-0.66437">
        <ele>306.32</ele>
        <time>2017-03-05T07:47:33Z</time>
      </trkpt>
      <trkpt lat="43.15658" lon="-0.6644">
        <ele>306.32</ele>
        <time>2017-03-05T07:47:40Z</time>
      </trkpt>
      <trkpt lat="43.1565" lon="-0.66444">
        <ele>306.32</ele>
        <time>2017-03-05T07:47:46Z</time>
      </trkpt>
      <trkpt lat="43.15643" lon="-0.66455">
        <ele>307.76</ele>
        <time>2017-03-05T07:47:57Z</time>
      </trkpt>
      <trkpt lat="43.15644" lon="-0.66463">
        <ele>306.32</ele>
        <time>2017-03-05T07:48:02Z</time>
      </trkpt>
      <trkpt lat="43.15645" lon="-0.66473">
        <ele>305.84</ele>
        <time>2017-03-05T07:48:07Z</time>
      </trkpt>
      <trkpt lat="43.15646" lon="-0.66498">
        <ele>310.64</ele>
        <time>2017-03-05T07:48:23Z</time>
      </trkpt>
      <trkpt lat="43.15646" lon="-0.66502">
        <ele>312.09</ele>
        <time>2017-03-05T07:48:28Z</time>
      </trkpt>
      <trkpt lat="43.15644" lon="-0.66512">
        <ele>317.37</ele>
        <time>2017-03-05T07:48:43Z</time>
      </trkpt>
      <trkpt lat="43.15645" lon="-0.66525">
        <ele>321.22</ele>
        <time>2017-03-05T07:48:55Z</time>
      </trkpt>
      <trkpt lat="43.15649" lon="-0.66538">
        <ele>322.18</ele>
        <time>2017-03-05T07:49:07Z</time>
      </trkpt>
      <trkpt lat="43.15648" lon="-0.66551">
        <ele>323.62</ele>
        <time>2017-03-05T07:49:20Z</time>
      </trkpt>
      <trkpt lat="43.15646" lon="-0.66562">
        <ele>326.5</ele>
        <time>2017-03-05T07:49:31Z</time>
      </trkpt>
      <trkpt lat="43.15641" lon="-0.66575">
        <ele>329.87</ele>
        <time>2017-03-05T07:49:47Z</time>
      </trkpt>
      <trkpt lat="43.15636" lon="-0.66584">
        <ele>330.83</ele>
        <time>2017-03-05T07:50:00Z</time>
      </trkpt>
      <trkpt lat="43.15635" lon="-0.66588">
        <ele>330.35</ele>
        <time>2017-03-05T07:50:06Z</time>
      </trkpt>
      <trkpt lat="43.15621" lon="-0.66614">
        <ele>331.31</ele>
        <time>2017-03-05T07:50:24Z</time>
      </trkpt>
      <trkpt lat="43.15611" lon="-0.6663">
        <ele>330.83</ele>
        <time>2017-03-05T07:50:36Z</time>
      </trkpt>
      <trkpt lat="43.15602" lon="-0.66639">
        <ele>331.31</ele>
        <time>2017-03-05T07:50:47Z</time>
      </trkpt>
      <trkpt lat="43.15588" lon="-0.6665">
        <ele>330.83</ele>
        <time>2017-03-05T07:50:58Z</time>
      </trkpt>
      <trkpt lat="43.15586" lon="-0.66651">
        <ele>330.83</ele>
        <time>2017-03-05T07:50:59Z</time>
      </trkpt>
      <trkpt lat="43.15584" lon="-0.66652">
        <ele>330.83</ele>
        <time>2017-03-05T07:51:00Z</time>
      </trkpt>
      <trkpt lat="43.15561" lon="-0.66676">
        <ele>331.79</ele>
        <time>2017-03-05T07:51:15Z</time>
      </trkpt>
      <trkpt lat="43.15539" lon="-0.66701">
        <ele>333.71</ele>
        <time>2017-03-05T07:51:29Z</time>
      </trkpt>
      <trkpt lat="43.15525" lon="-0.66731">
        <ele>334.68</ele>
        <time>2017-03-05T07:51:44Z</time>
      </trkpt>
      <trkpt lat="43.15516" lon="-0.66761">
        <ele>337.08</ele>
        <time>2017-03-05T07:51:58Z</time>
      </trkpt>
      <trkpt lat="43.1551" lon="-0.66795">
        <ele>339.48</ele>
        <time>2017-03-05T07:52:14Z</time>
      </trkpt>
      <trkpt lat="43.15501" lon="-0.66823">
        <ele>341.89</ele>
        <time>2017-03-05T07:52:30Z</time>
      </trkpt>
      <trkpt lat="43.1549" lon="-0.66848">
        <ele>345.25</ele>
        <time>2017-03-05T07:52:46Z</time>
      </trkpt>
      <trkpt lat="43.15486" lon="-0.66878">
        <ele>348.62</ele>
        <time>2017-03-05T07:53:01Z</time>
      </trkpt>
      <trkpt lat="43.15483" lon="-0.66903">
        <ele>351.02</ele>
        <time>2017-03-05T07:53:14Z</time>
      </trkpt>
      <trkpt lat="43.15485" lon="-0.66937">
        <ele>352.94</ele>
        <time>2017-03-05T07:53:30Z</time>
      </trkpt>
      <trkpt lat="43.1549" lon="-0.66968">
        <ele>354.86</ele>
        <time>2017-03-05T07:53:46Z</time>
      </trkpt>
      <trkpt lat="43.15484" lon="-0.66995">
        <ele>357.27</ele>
        <time>2017-03-05T07:54:01Z</time>
      </trkpt>
      <trkpt lat="43.1547" lon="-0.67022">
        <ele>360.15</ele>
        <time>2017-03-05T07:54:17Z</time>
      </trkpt>
      <trkpt lat="43.15458" lon="-0.67031">
        <ele>361.59</ele>
        <time>2017-03-05T07:54:25Z</time>
      </trkpt>
      <trkpt lat="43.15437" lon="-0.6705">
        <ele>364</ele>
        <time>2017-03-05T07:54:42Z</time>
      </trkpt>
      <trkpt lat="43.15415" lon="-0.67066">
        <ele>366.4</ele>
        <time>2017-03-05T07:54:59Z</time>
      </trkpt>
      <trkpt lat="43.15388" lon="-0.67078">
        <ele>371.21</ele>
        <time>2017-03-05T07:55:18Z</time>
      </trkpt>
      <trkpt lat="43.15375" lon="-0.67082">
        <ele>372.65</ele>
        <time>2017-03-05T07:55:28Z</time>
      </trkpt>
      <trkpt lat="43.15355" lon="-0.67103">
        <ele>375.05</ele>
        <time>2017-03-05T07:55:44Z</time>
      </trkpt>
      <trkpt lat="43.15339" lon="-0.67123">
        <ele>376.49</ele>
        <time>2017-03-05T07:55:58Z</time>
      </trkpt>
      <trkpt lat="43.15324" lon="-0.67155">
        <ele>377.45</ele>
        <time>2017-03-05T07:56:16Z</time>
      </trkpt>
      <trkpt lat="43.15313" lon="-0.67184">
        <ele>378.42</ele>
        <time>2017-03-05T07:56:31Z</time>
      </trkpt>
      <trkpt lat="43.15297" lon="-0.67212">
        <ele>379.38</ele>
        <time>2017-03-05T07:56:48Z</time>
      </trkpt>
      <trkpt lat="43.15283" lon="-0.67239">
        <ele>381.3</ele>
        <time>2017-03-05T07:57:04Z</time>
      </trkpt>
      <trkpt lat="43.15282" lon="-0.67241">
        <ele>381.78</ele>
        <time>2017-03-05T07:57:05Z</time>
      </trkpt>
      <trkpt lat="43.15281" lon="-0.67242">
        <ele>381.78</ele>
        <time>2017-03-05T07:57:06Z</time>
      </trkpt>
      <trkpt lat="43.15279" lon="-0.67242">
        <ele>381.78</ele>
        <time>2017-03-05T07:57:07Z</time>
      </trkpt>
      <trkpt lat="43.15278" lon="-0.67241">
        <ele>382.26</ele>
        <time>2017-03-05T07:57:08Z</time>
      </trkpt>
      <trkpt lat="43.15277" lon="-0.6724">
        <ele>382.26</ele>
        <time>2017-03-05T07:57:09Z</time>
      </trkpt>
      <trkpt lat="43.15277" lon="-0.67238">
        <ele>382.74</ele>
        <time>2017-03-05T07:57:10Z</time>
      </trkpt>
      <trkpt lat="43.15277" lon="-0.67237">
        <ele>382.74</ele>
        <time>2017-03-05T07:57:11Z</time>
      </trkpt>
      <trkpt lat="43.15276" lon="-0.67219">
        <ele>384.18</ele>
        <time>2017-03-05T07:57:20Z</time>
      </trkpt>
      <trkpt lat="43.15276" lon="-0.67217">
        <ele>384.18</ele>
        <time>2017-03-05T07:57:21Z</time>
      </trkpt>
      <trkpt lat="43.15276" lon="-0.67215">
        <ele>384.18</ele>
        <time>2017-03-05T07:57:22Z</time>
      </trkpt>
      <trkpt lat="43.15275" lon="-0.67214">
        <ele>384.18</ele>
        <time>2017-03-05T07:57:23Z</time>
      </trkpt>
      <trkpt lat="43.15274" lon="-0.67212">
        <ele>384.66</ele>
        <time>2017-03-05T07:57:24Z</time>
      </trkpt>
      <trkpt lat="43.15274" lon="-0.67211">
        <ele>384.66</ele>
        <time>2017-03-05T07:57:25Z</time>
      </trkpt>
      <trkpt lat="43.15272" lon="-0.67211">
        <ele>384.66</ele>
        <time>2017-03-05T07:57:26Z</time>
      </trkpt>
      <trkpt lat="43.15271" lon="-0.6721">
        <ele>384.66</ele>
        <time>2017-03-05T07:57:27Z</time>
      </trkpt>
      <trkpt lat="43.1527" lon="-0.6721">
        <ele>384.66</ele>
        <time>2017-03-05T07:57:28Z</time>
      </trkpt>
      <trkpt lat="43.15269" lon="-0.67209">
        <ele>385.15</ele>
        <time>2017-03-05T07:57:29Z</time>
      </trkpt>
      <trkpt lat="43.15268" lon="-0.67209">
        <ele>385.15</ele>
        <time>2017-03-05T07:57:30Z</time>
      </trkpt>
      <trkpt lat="43.15267" lon="-0.67208">
        <ele>385.15</ele>
        <time>2017-03-05T07:57:31Z</time>
      </trkpt>
      <trkpt lat="43.15265" lon="-0.67209">
        <ele>385.15</ele>
        <time>2017-03-05T07:57:32Z</time>
      </trkpt>
      <trkpt lat="43.15264" lon="-0.67209">
        <ele>385.15</ele>
        <time>2017-03-05T07:57:33Z</time>
      </trkpt>
      <trkpt lat="43.15263" lon="-0.67209">
        <ele>385.63</ele>
        <time>2017-03-05T07:57:34Z</time>
      </trkpt>
      <trkpt lat="43.15262" lon="-0.6721">
        <ele>385.63</ele>
        <time>2017-03-05T07:57:35Z</time>
      </trkpt>
      <trkpt lat="43.15261" lon="-0.67211">
        <ele>385.63</ele>
        <time>2017-03-05T07:57:36Z</time>
      </trkpt>
      <trkpt lat="43.15259" lon="-0.67212">
        <ele>385.63</ele>
        <time>2017-03-05T07:57:37Z</time>
      </trkpt>
      <trkpt lat="43.15258" lon="-0.67212">
        <ele>386.11</ele>
        <time>2017-03-05T07:57:38Z</time>
      </trkpt>
      <trkpt lat="43.15243" lon="-0.67231">
        <ele>388.03</ele>
        <time>2017-03-05T07:57:54Z</time>
      </trkpt>
      <trkpt lat="43.15229" lon="-0.6725">
        <ele>389.95</ele>
        <time>2017-03-05T07:58:10Z</time>
      </trkpt>
      <trkpt lat="43.15214" lon="-0.67274">
        <ele>391.87</ele>
        <time>2017-03-05T07:58:27Z</time>
      </trkpt>
      <trkpt lat="43.15203" lon="-0.67291">
        <ele>393.8</ele>
        <time>2017-03-05T07:58:40Z</time>
      </trkpt>
      <trkpt lat="43.15202" lon="-0.67292">
        <ele>393.8</ele>
        <time>2017-03-05T07:58:41Z</time>
      </trkpt>
      <trkpt lat="43.15201" lon="-0.67293">
        <ele>394.28</ele>
        <time>2017-03-05T07:58:42Z</time>
      </trkpt>
      <trkpt lat="43.152" lon="-0.67295">
        <ele>394.28</ele>
        <time>2017-03-05T07:58:43Z</time>
      </trkpt>
      <trkpt lat="43.15199" lon="-0.67296">
        <ele>394.28</ele>
        <time>2017-03-05T07:58:44Z</time>
      </trkpt>
      <trkpt lat="43.15198" lon="-0.67297">
        <ele>394.76</ele>
        <time>2017-03-05T07:58:45Z</time>
      </trkpt>
      <trkpt lat="43.15197" lon="-0.67298">
        <ele>394.76</ele>
        <time>2017-03-05T07:58:46Z</time>
      </trkpt>
      <trkpt lat="43.15186" lon="-0.67318">
        <ele>397.16</ele>
        <time>2017-03-05T07:59:02Z</time>
      </trkpt>
      <trkpt lat="43.15186" lon="-0.6732">
        <ele>397.16</ele>
        <time>2017-03-05T07:59:03Z</time>
      </trkpt>
      <trkpt lat="43.15185" lon="-0.67322">
        <ele>397.16</ele>
        <time>2017-03-05T07:59:04Z</time>
      </trkpt>
      <trkpt lat="43.15184" lon="-0.67323">
        <ele>397.16</ele>
        <time>2017-03-05T07:59:05Z</time>
      </trkpt>
      <trkpt lat="43.15184" lon="-0.67325">
        <ele>397.64</ele>
        <time>2017-03-05T07:59:06Z</time>
      </trkpt>
      <trkpt lat="43.15183" lon="-0.67326">
        <ele>397.64</ele>
        <time>2017-03-05T07:59:07Z</time>
      </trkpt>
      <trkpt lat="43.15182" lon="-0.67327">
        <ele>397.64</ele>
        <time>2017-03-05T07:59:08Z</time>
      </trkpt>
      <trkpt lat="43.15168" lon="-0.67348">
        <ele>400.05</ele>
        <time>2017-03-05T07:59:24Z</time>
      </trkpt>
      <trkpt lat="43.15168" lon="-0.67349">
        <ele>400.05</ele>
        <time>2017-03-05T07:59:25Z</time>
      </trkpt>
      <trkpt lat="43.15167" lon="-0.67351">
        <ele>399.57</ele>
        <time>2017-03-05T07:59:26Z</time>
      </trkpt>
      <trkpt lat="43.15166" lon="-0.67352">
        <ele>399.57</ele>
        <time>2017-03-05T07:59:27Z</time>
      </trkpt>
      <trkpt lat="43.15165" lon="-0.67353">
        <ele>399.57</ele>
        <time>2017-03-05T07:59:28Z</time>
      </trkpt>
      <trkpt lat="43.15164" lon="-0.67355">
        <ele>400.05</ele>
        <time>2017-03-05T07:59:29Z</time>
      </trkpt>
      <trkpt lat="43.15153" lon="-0.67377">
        <ele>401.97</ele>
        <time>2017-03-05T07:59:42Z</time>
      </trkpt>
      <trkpt lat="43.15144" lon="-0.67396">
        <ele>405.33</ele>
        <time>2017-03-05T07:59:54Z</time>
      </trkpt>
      <trkpt lat="43.15132" lon="-0.67419">
        <ele>407.74</ele>
        <time>2017-03-05T08:00:10Z</time>
      </trkpt>
      <trkpt lat="43.15124" lon="-0.67428">
        <ele>408.7</ele>
        <time>2017-03-05T08:00:25Z</time>
      </trkpt>
      <trkpt lat="43.15123" lon="-0.67427">
        <ele>408.7</ele>
        <time>2017-03-05T08:00:50Z</time>
      </trkpt>
      <trkpt lat="43.15123" lon="-0.67428">
        <ele>409.18</ele>
        <time>2017-03-05T08:01:22Z</time>
      </trkpt>
      <trkpt lat="43.15125" lon="-0.6743">
        <ele>409.18</ele>
        <time>2017-03-05T08:01:52Z</time>
      </trkpt>
      <trkpt lat="43.15122" lon="-0.6743">
        <ele>409.18</ele>
        <time>2017-03-05T08:01:56Z</time>
      </trkpt>
      <trkpt lat="43.15121" lon="-0.6743">
        <ele>409.18</ele>
        <time>2017-03-05T08:01:57Z</time>
      </trkpt>
      <trkpt lat="43.15119" lon="-0.6743">
        <ele>409.66</ele>
        <time>2017-03-05T08:01:58Z</time>
      </trkpt>
      <trkpt lat="43.15117" lon="-0.6743">
        <ele>409.66</ele>
        <time>2017-03-05T08:01:59Z</time>
      </trkpt>
      <trkpt lat="43.15115" lon="-0.6743">
        <ele>409.66</ele>
        <time>2017-03-05T08:02:00Z</time>
      </trkpt>
      <trkpt lat="43.15113" lon="-0.6743">
        <ele>409.18</ele>
        <time>2017-03-05T08:02:01Z</time>
      </trkpt>
      <trkpt lat="43.15111" lon="-0.67429">
        <ele>409.18</ele>
        <time>2017-03-05T08:02:02Z</time>
      </trkpt>
      <trkpt lat="43.15109" lon="-0.67429">
        <ele>408.7</ele>
        <time>2017-03-05T08:02:03Z</time>
      </trkpt>
      <trkpt lat="43.15106" lon="-0.6743">
        <ele>408.7</ele>
        <time>2017-03-05T08:02:04Z</time>
      </trkpt>
      <trkpt lat="43.15104" lon="-0.67431">
        <ele>408.22</ele>
        <time>2017-03-05T08:02:05Z</time>
      </trkpt>
      <trkpt lat="43.15071" lon="-0.67435">
        <ele>405.33</ele>
        <time>2017-03-05T08:02:15Z</time>
      </trkpt>
      <trkpt lat="43.15042" lon="-0.67429">
        <ele>402.45</ele>
        <time>2017-03-05T08:02:21Z</time>
      </trkpt>
      <trkpt lat="43.15027" lon="-0.67423">
        <ele>401.97</ele>
        <time>2017-03-05T08:02:24Z</time>
      </trkpt>
      <trkpt lat="43.1502" lon="-0.67419">
        <ele>401.97</ele>
        <time>2017-03-05T08:02:26Z</time>
      </trkpt>
      <trkpt lat="43.15009" lon="-0.67391">
        <ele>402.93</ele>
        <time>2017-03-05T08:02:37Z</time>
      </trkpt>
      <trkpt lat="43.15004" lon="-0.67379">
        <ele>402.45</ele>
        <time>2017-03-05T08:02:47Z</time>
      </trkpt>
      <trkpt lat="43.15001" lon="-0.67377">
        <ele>404.37</ele>
        <time>2017-03-05T08:02:59Z</time>
      </trkpt>
      <trkpt lat="43.14997" lon="-0.6737">
        <ele>406.77</ele>
        <time>2017-03-05T08:03:12Z</time>
      </trkpt>
      <trkpt lat="43.14995" lon="-0.67365">
        <ele>406.29</ele>
        <time>2017-03-05T08:03:16Z</time>
      </trkpt>
      <trkpt lat="43.14989" lon="-0.67337">
        <ele>406.29</ele>
        <time>2017-03-05T08:03:31Z</time>
      </trkpt>
      <trkpt lat="43.14984" lon="-0.67327">
        <ele>407.74</ele>
        <time>2017-03-05T08:03:38Z</time>
      </trkpt>
      <trkpt lat="43.14963" lon="-0.67321">
        <ele>410.62</ele>
        <time>2017-03-05T08:03:51Z</time>
      </trkpt>
      <trkpt lat="43.1495" lon="-0.67312">
        <ele>413.5</ele>
        <time>2017-03-05T08:04:04Z</time>
      </trkpt>
      <trkpt lat="43.14931" lon="-0.67302">
        <ele>416.87</ele>
        <time>2017-03-05T08:04:19Z</time>
      </trkpt>
      <trkpt lat="43.14907" lon="-0.67297">
        <ele>415.43</ele>
        <time>2017-03-05T08:04:31Z</time>
      </trkpt>
      <trkpt lat="43.14898" lon="-0.67295">
        <ele>414.95</ele>
        <time>2017-03-05T08:04:34Z</time>
      </trkpt>
      <trkpt lat="43.14874" lon="-0.67277">
        <ele>412.54</ele>
        <time>2017-03-05T08:04:44Z</time>
      </trkpt>
      <trkpt lat="43.1486" lon="-0.67267">
        <ele>411.58</ele>
        <time>2017-03-05T08:04:49Z</time>
      </trkpt>
      <trkpt lat="43.14846" lon="-0.67266">
        <ele>411.58</ele>
        <time>2017-03-05T08:04:55Z</time>
      </trkpt>
      <trkpt lat="43.14814" lon="-0.67236">
        <ele>413.02</ele>
        <time>2017-03-05T08:05:09Z</time>
      </trkpt>
      <trkpt lat="43.14811" lon="-0.67233">
        <ele>412.54</ele>
        <time>2017-03-05T08:05:10Z</time>
      </trkpt>
      <trkpt lat="43.14791" lon="-0.6722">
        <ele>409.18</ele>
        <time>2017-03-05T08:05:15Z</time>
      </trkpt>
      <trkpt lat="43.14774" lon="-0.6718">
        <ele>405.33</ele>
        <time>2017-03-05T08:05:22Z</time>
      </trkpt>
      <trkpt lat="43.1477" lon="-0.67168">
        <ele>404.85</ele>
        <time>2017-03-05T08:05:24Z</time>
      </trkpt>
      <trkpt lat="43.1477" lon="-0.67147">
        <ele>403.89</ele>
        <time>2017-03-05T08:05:28Z</time>
      </trkpt>
      <trkpt lat="43.1477" lon="-0.67128">
        <ele>402.45</ele>
        <time>2017-03-05T08:05:33Z</time>
      </trkpt>
      <trkpt lat="43.14767" lon="-0.67096">
        <ele>401.01</ele>
        <time>2017-03-05T08:05:42Z</time>
      </trkpt>
      <trkpt lat="43.14766" lon="-0.67089">
        <ele>400.53</ele>
        <time>2017-03-05T08:05:44Z</time>
      </trkpt>
      <trkpt lat="43.14757" lon="-0.67077">
        <ele>401.49</ele>
        <time>2017-03-05T08:05:50Z</time>
      </trkpt>
      <trkpt lat="43.14755" lon="-0.67074">
        <ele>401.97</ele>
        <time>2017-03-05T08:05:51Z</time>
      </trkpt>
      <trkpt lat="43.14753" lon="-0.67071">
        <ele>402.45</ele>
        <time>2017-03-05T08:05:52Z</time>
      </trkpt>
      <trkpt lat="43.14743" lon="-0.67054">
        <ele>407.74</ele>
        <time>2017-03-05T08:05:59Z</time>
      </trkpt>
      <trkpt lat="43.1474" lon="-0.67053">
        <ele>408.22</ele>
        <time>2017-03-05T08:06:00Z</time>
      </trkpt>
      <trkpt lat="43.14711" lon="-0.67048">
        <ele>410.14</ele>
        <time>2017-03-05T08:06:14Z</time>
      </trkpt>
      <trkpt lat="43.1471" lon="-0.67045">
        <ele>413.5</ele>
        <time>2017-03-05T08:06:28Z</time>
      </trkpt>
      <trkpt lat="43.14709" lon="-0.67047">
        <ele>419.27</ele>
        <time>2017-03-05T08:06:59Z</time>
      </trkpt>
      <trkpt lat="43.14707" lon="-0.67047">
        <ele>425.52</ele>
        <time>2017-03-05T08:07:27Z</time>
      </trkpt>
      <trkpt lat="43.14704" lon="-0.67046">
        <ele>430.81</ele>
        <time>2017-03-05T08:08:00Z</time>
      </trkpt>
      <trkpt lat="43.14701" lon="-0.67049">
        <ele>432.25</ele>
        <time>2017-03-05T08:08:28Z</time>
      </trkpt>
      <trkpt lat="43.14702" lon="-0.6705">
        <ele>430.81</ele>
        <time>2017-03-05T08:08:53Z</time>
      </trkpt>
      <trkpt lat="43.14704" lon="-0.67049">
        <ele>433.21</ele>
        <time>2017-03-05T08:09:08Z</time>
      </trkpt>
      <trkpt lat="43.14709" lon="-0.67049">
        <ele>433.21</ele>
        <time>2017-03-05T08:09:13Z</time>
      </trkpt>
      <trkpt lat="43.14711" lon="-0.67049">
        <ele>432.73</ele>
        <time>2017-03-05T08:09:14Z</time>
      </trkpt>
      <trkpt lat="43.14738" lon="-0.67047">
        <ele>431.29</ele>
        <time>2017-03-05T08:09:22Z</time>
      </trkpt>
      <trkpt lat="43.14759" lon="-0.67039">
        <ele>429.85</ele>
        <time>2017-03-05T08:09:27Z</time>
      </trkpt>
      <trkpt lat="43.14763" lon="-0.67037">
        <ele>429.37</ele>
        <time>2017-03-05T08:09:28Z</time>
      </trkpt>
      <trkpt lat="43.14772" lon="-0.67032">
        <ele>427.92</ele>
        <time>2017-03-05T08:09:30Z</time>
      </trkpt>
      <trkpt lat="43.14776" lon="-0.67027">
        <ele>427.44</ele>
        <time>2017-03-05T08:09:31Z</time>
      </trkpt>
      <trkpt lat="43.14781" lon="-0.67022">
        <ele>426.96</ele>
        <time>2017-03-05T08:09:32Z</time>
      </trkpt>
      <trkpt lat="43.14785" lon="-0.67017">
        <ele>426.48</ele>
        <time>2017-03-05T08:09:33Z</time>
      </trkpt>
      <trkpt lat="43.1479" lon="-0.67011">
        <ele>426</ele>
        <time>2017-03-05T08:09:34Z</time>
      </trkpt>
      <trkpt lat="43.14812" lon="-0.66978">
        <ele>423.12</ele>
        <time>2017-03-05T08:09:40Z</time>
      </trkpt>
      <trkpt lat="43.14815" lon="-0.66972">
        <ele>422.16</ele>
        <time>2017-03-05T08:09:41Z</time>
      </trkpt>
      <trkpt lat="43.14821" lon="-0.66961">
        <ele>421.19</ele>
        <time>2017-03-05T08:09:43Z</time>
      </trkpt>
      <trkpt lat="43.14823" lon="-0.66956">
        <ele>420.23</ele>
        <time>2017-03-05T08:09:44Z</time>
      </trkpt>
      <trkpt lat="43.14825" lon="-0.66951">
        <ele>419.75</ele>
        <time>2017-03-05T08:09:45Z</time>
      </trkpt>
      <trkpt lat="43.14827" lon="-0.66945">
        <ele>419.27</ele>
        <time>2017-03-05T08:09:46Z</time>
      </trkpt>
      <trkpt lat="43.14829" lon="-0.6694">
        <ele>418.79</ele>
        <time>2017-03-05T08:09:47Z</time>
      </trkpt>
      <trkpt lat="43.1483" lon="-0.66935">
        <ele>418.31</ele>
        <time>2017-03-05T08:09:48Z</time>
      </trkpt>
      <trkpt lat="43.14831" lon="-0.6693">
        <ele>418.31</ele>
        <time>2017-03-05T08:09:49Z</time>
      </trkpt>
      <trkpt lat="43.14836" lon="-0.66883">
        <ele>419.75</ele>
        <time>2017-03-05T08:09:59Z</time>
      </trkpt>
      <trkpt lat="43.14835" lon="-0.6685">
        <ele>415.91</ele>
        <time>2017-03-05T08:10:05Z</time>
      </trkpt>
      <trkpt lat="43.14833" lon="-0.66843">
        <ele>414.47</ele>
        <time>2017-03-05T08:10:06Z</time>
      </trkpt>
      <trkpt lat="43.14831" lon="-0.66836">
        <ele>413.5</ele>
        <time>2017-03-05T08:10:07Z</time>
      </trkpt>
      <trkpt lat="43.14829" lon="-0.66831">
        <ele>413.02</ele>
        <time>2017-03-05T08:10:08Z</time>
      </trkpt>
      <trkpt lat="43.14827" lon="-0.66826">
        <ele>412.06</ele>
        <time>2017-03-05T08:10:09Z</time>
      </trkpt>
      <trkpt lat="43.14823" lon="-0.66822">
        <ele>411.58</ele>
        <time>2017-03-05T08:10:10Z</time>
      </trkpt>
      <trkpt lat="43.1482" lon="-0.66819">
        <ele>411.1</ele>
        <time>2017-03-05T08:10:11Z</time>
      </trkpt>
      <trkpt lat="43.14815" lon="-0.66816">
        <ele>410.62</ele>
        <time>2017-03-05T08:10:12Z</time>
      </trkpt>
      <trkpt lat="43.14811" lon="-0.66813">
        <ele>409.66</ele>
        <time>2017-03-05T08:10:13Z</time>
      </trkpt>
      <trkpt lat="43.14806" lon="-0.66812">
        <ele>409.18</ele>
        <time>2017-03-05T08:10:14Z</time>
      </trkpt>
      <trkpt lat="43.14802" lon="-0.66811">
        <ele>408.22</ele>
        <time>2017-03-05T08:10:15Z</time>
      </trkpt>
      <trkpt lat="43.14797" lon="-0.66811">
        <ele>407.74</ele>
        <time>2017-03-05T08:10:16Z</time>
      </trkpt>
      <trkpt lat="43.14792" lon="-0.66812">
        <ele>407.26</ele>
        <time>2017-03-05T08:10:17Z</time>
      </trkpt>
      <trkpt lat="43.14787" lon="-0.66813">
        <ele>406.29</ele>
        <time>2017-03-05T08:10:18Z</time>
      </trkpt>
      <trkpt lat="43.14765" lon="-0.66816">
        <ele>403.89</ele>
        <time>2017-03-05T08:10:22Z</time>
      </trkpt>
      <trkpt lat="43.14759" lon="-0.66817">
        <ele>403.41</ele>
        <time>2017-03-05T08:10:23Z</time>
      </trkpt>
      <trkpt lat="43.14754" lon="-0.66819">
        <ele>402.93</ele>
        <time>2017-03-05T08:10:24Z</time>
      </trkpt>
      <trkpt lat="43.14749" lon="-0.66822">
        <ele>402.45</ele>
        <time>2017-03-05T08:10:25Z</time>
      </trkpt>
      <trkpt lat="43.14744" lon="-0.66825">
        <ele>401.97</ele>
        <time>2017-03-05T08:10:26Z</time>
      </trkpt>
      <trkpt lat="43.14734" lon="-0.6683">
        <ele>401.01</ele>
        <time>2017-03-05T08:10:28Z</time>
      </trkpt>
      <trkpt lat="43.1473" lon="-0.66831">
        <ele>401.01</ele>
        <time>2017-03-05T08:10:29Z</time>
      </trkpt>
      <trkpt lat="43.14719" lon="-0.66832">
        <ele>400.53</ele>
        <time>2017-03-05T08:10:31Z</time>
      </trkpt>
      <trkpt lat="43.14713" lon="-0.66831">
        <ele>400.53</ele>
        <time>2017-03-05T08:10:32Z</time>
      </trkpt>
      <trkpt lat="43.14707" lon="-0.66827">
        <ele>400.53</ele>
        <time>2017-03-05T08:10:33Z</time>
      </trkpt>
      <trkpt lat="43.14701" lon="-0.66823">
        <ele>400.05</ele>
        <time>2017-03-05T08:10:34Z</time>
      </trkpt>
      <trkpt lat="43.14694" lon="-0.66819">
        <ele>399.57</ele>
        <time>2017-03-05T08:10:35Z</time>
      </trkpt>
      <trkpt lat="43.14684" lon="-0.66809">
        <ele>399.08</ele>
        <time>2017-03-05T08:10:37Z</time>
      </trkpt>
      <trkpt lat="43.14679" lon="-0.66804">
        <ele>399.08</ele>
        <time>2017-03-05T08:10:38Z</time>
      </trkpt>
      <trkpt lat="43.14675" lon="-0.66798">
        <ele>398.6</ele>
        <time>2017-03-05T08:10:39Z</time>
      </trkpt>
      <trkpt lat="43.14672" lon="-0.66791">
        <ele>398.12</ele>
        <time>2017-03-05T08:10:40Z</time>
      </trkpt>
      <trkpt lat="43.14669" lon="-0.66784">
        <ele>398.12</ele>
        <time>2017-03-05T08:10:41Z</time>
      </trkpt>
      <trkpt lat="43.14667" lon="-0.66776">
        <ele>397.64</ele>
        <time>2017-03-05T08:10:42Z</time>
      </trkpt>
      <trkpt lat="43.14666" lon="-0.66768">
        <ele>397.16</ele>
        <time>2017-03-05T08:10:43Z</time>
      </trkpt>
      <trkpt lat="43.14665" lon="-0.66759">
        <ele>396.68</ele>
        <time>2017-03-05T08:10:44Z</time>
      </trkpt>
      <trkpt lat="43.14665" lon="-0.66666">
        <ele>388.03</ele>
        <time>2017-03-05T08:10:55Z</time>
      </trkpt>
      <trkpt lat="43.14664" lon="-0.66648">
        <ele>386.59</ele>
        <time>2017-03-05T08:10:57Z</time>
      </trkpt>
      <trkpt lat="43.14665" lon="-0.66639">
        <ele>386.11</ele>
        <time>2017-03-05T08:10:58Z</time>
      </trkpt>
      <trkpt lat="43.14664" lon="-0.66631">
        <ele>385.63</ele>
        <time>2017-03-05T08:10:59Z</time>
      </trkpt>
      <trkpt lat="43.14663" lon="-0.66622">
        <ele>385.15</ele>
        <time>2017-03-05T08:11:00Z</time>
      </trkpt>
      <trkpt lat="43.14662" lon="-0.66615">
        <ele>385.15</ele>
        <time>2017-03-05T08:11:01Z</time>
      </trkpt>
      <trkpt lat="43.1466" lon="-0.66608">
        <ele>384.66</ele>
        <time>2017-03-05T08:11:02Z</time>
      </trkpt>
      <trkpt lat="43.14658" lon="-0.66602">
        <ele>384.66</ele>
        <time>2017-03-05T08:11:03Z</time>
      </trkpt>
      <trkpt lat="43.14655" lon="-0.66597">
        <ele>384.66</ele>
        <time>2017-03-05T08:11:04Z</time>
      </trkpt>
      <trkpt lat="43.14652" lon="-0.66592">
        <ele>385.15</ele>
        <time>2017-03-05T08:11:05Z</time>
      </trkpt>
      <trkpt lat="43.14649" lon="-0.66588">
        <ele>385.15</ele>
        <time>2017-03-05T08:11:06Z</time>
      </trkpt>
      <trkpt lat="43.14644" lon="-0.66584">
        <ele>385.63</ele>
        <time>2017-03-05T08:11:07Z</time>
      </trkpt>
      <trkpt lat="43.14635" lon="-0.6657">
        <ele>386.11</ele>
        <time>2017-03-05T08:11:10Z</time>
      </trkpt>
      <trkpt lat="43.14635" lon="-0.66565">
        <ele>386.11</ele>
        <time>2017-03-05T08:11:11Z</time>
      </trkpt>
      <trkpt lat="43.14635" lon="-0.66559">
        <ele>386.59</ele>
        <time>2017-03-05T08:11:12Z</time>
      </trkpt>
      <trkpt lat="43.14635" lon="-0.66552">
        <ele>386.59</ele>
        <time>2017-03-05T08:11:13Z</time>
      </trkpt>
      <trkpt lat="43.14637" lon="-0.66544">
        <ele>386.59</ele>
        <time>2017-03-05T08:11:14Z</time>
      </trkpt>
      <trkpt lat="43.14639" lon="-0.66536">
        <ele>386.59</ele>
        <time>2017-03-05T08:11:15Z</time>
      </trkpt>
      <trkpt lat="43.14641" lon="-0.66529">
        <ele>386.59</ele>
        <time>2017-03-05T08:11:16Z</time>
      </trkpt>
      <trkpt lat="43.14672" lon="-0.66446">
        <ele>385.15</ele>
        <time>2017-03-05T08:11:27Z</time>
      </trkpt>
      <trkpt lat="43.14674" lon="-0.66439">
        <ele>385.15</ele>
        <time>2017-03-05T08:11:28Z</time>
      </trkpt>
      <trkpt lat="43.14677" lon="-0.66425">
        <ele>384.66</ele>
        <time>2017-03-05T08:11:30Z</time>
      </trkpt>
      <trkpt lat="43.14678" lon="-0.66417">
        <ele>384.66</ele>
        <time>2017-03-05T08:11:31Z</time>
      </trkpt>
      <trkpt lat="43.14682" lon="-0.66396">
        <ele>384.18</ele>
        <time>2017-03-05T08:11:34Z</time>
      </trkpt>
      <trkpt lat="43.14693" lon="-0.66367">
        <ele>382.74</ele>
        <time>2017-03-05T08:11:38Z</time>
      </trkpt>
      <trkpt lat="43.14696" lon="-0.66359">
        <ele>382.74</ele>
        <time>2017-03-05T08:11:39Z</time>
      </trkpt>
      <trkpt lat="43.14701" lon="-0.66353">
        <ele>382.74</ele>
        <time>2017-03-05T08:11:40Z</time>
      </trkpt>
      <trkpt lat="43.14705" lon="-0.66347">
        <ele>382.74</ele>
        <time>2017-03-05T08:11:41Z</time>
      </trkpt>
      <trkpt lat="43.1471" lon="-0.66341">
        <ele>383.22</ele>
        <time>2017-03-05T08:11:42Z</time>
      </trkpt>
      <trkpt lat="43.14714" lon="-0.66336">
        <ele>383.22</ele>
        <time>2017-03-05T08:11:43Z</time>
      </trkpt>
      <trkpt lat="43.1472" lon="-0.6633">
        <ele>383.22</ele>
        <time>2017-03-05T08:11:44Z</time>
      </trkpt>
      <trkpt lat="43.14747" lon="-0.663">
        <ele>383.22</ele>
        <time>2017-03-05T08:11:49Z</time>
      </trkpt>
      <trkpt lat="43.14751" lon="-0.66294">
        <ele>383.22</ele>
        <time>2017-03-05T08:11:50Z</time>
      </trkpt>
      <trkpt lat="43.14759" lon="-0.6628">
        <ele>383.22</ele>
        <time>2017-03-05T08:11:52Z</time>
      </trkpt>
      <trkpt lat="43.14776" lon="-0.66238">
        <ele>382.74</ele>
        <time>2017-03-05T08:12:01Z</time>
      </trkpt>
      <trkpt lat="43.14785" lon="-0.66227">
        <ele>382.74</ele>
        <time>2017-03-05T08:12:13Z</time>
      </trkpt>
      <trkpt lat="43.14798" lon="-0.66211">
        <ele>382.74</ele>
        <time>2017-03-05T08:12:26Z</time>
      </trkpt>
      <trkpt lat="43.14808" lon="-0.66196">
        <ele>379.86</ele>
        <time>2017-03-05T08:12:38Z</time>
      </trkpt>
      <trkpt lat="43.14821" lon="-0.66178">
        <ele>379.38</ele>
        <time>2017-03-05T08:12:49Z</time>
      </trkpt>
      <trkpt lat="43.14828" lon="-0.66166">
        <ele>379.86</ele>
        <time>2017-03-05T08:12:56Z</time>
      </trkpt>
      <trkpt lat="43.14829" lon="-0.66164">
        <ele>379.86</ele>
        <time>2017-03-05T08:12:57Z</time>
      </trkpt>
      <trkpt lat="43.1483" lon="-0.66163">
        <ele>379.86</ele>
        <time>2017-03-05T08:12:58Z</time>
      </trkpt>
      <trkpt lat="43.14849" lon="-0.66139">
        <ele>381.3</ele>
        <time>2017-03-05T08:13:13Z</time>
      </trkpt>
      <trkpt lat="43.14863" lon="-0.66119">
        <ele>381.78</ele>
        <time>2017-03-05T08:13:26Z</time>
      </trkpt>
      <trkpt lat="43.1487" lon="-0.66108">
        <ele>385.15</ele>
        <time>2017-03-05T08:13:35Z</time>
      </trkpt>
      <trkpt lat="43.14862" lon="-0.66111">
        <ele>385.63</ele>
        <time>2017-03-05T08:13:48Z</time>
      </trkpt>
      <trkpt lat="43.14862" lon="-0.66112">
        <ele>385.63</ele>
        <time>2017-03-05T08:13:49Z</time>
      </trkpt>
      <trkpt lat="43.14854" lon="-0.66117">
        <ele>388.03</ele>
        <time>2017-03-05T08:13:54Z</time>
      </trkpt>
      <trkpt lat="43.14829" lon="-0.66139">
        <ele>393.32</ele>
        <time>2017-03-05T08:14:08Z</time>
      </trkpt>
      <trkpt lat="43.14816" lon="-0.66147">
        <ele>398.12</ele>
        <time>2017-03-05T08:14:16Z</time>
      </trkpt>
      <trkpt lat="43.14791" lon="-0.6617">
        <ele>405.33</ele>
        <time>2017-03-05T08:14:29Z</time>
      </trkpt>
      <trkpt lat="43.14789" lon="-0.66173">
        <ele>405.81</ele>
        <time>2017-03-05T08:14:30Z</time>
      </trkpt>
      <trkpt lat="43.14769" lon="-0.66187">
        <ele>408.7</ele>
        <time>2017-03-05T08:14:39Z</time>
      </trkpt>
      <trkpt lat="43.14749" lon="-0.66218">
        <ele>409.18</ele>
        <time>2017-03-05T08:14:48Z</time>
      </trkpt>
      <trkpt lat="43.14729" lon="-0.66246">
        <ele>407.74</ele>
        <time>2017-03-05T08:15:00Z</time>
      </trkpt>
      <trkpt lat="43.14711" lon="-0.6627">
        <ele>413.5</ele>
        <time>2017-03-05T08:15:12Z</time>
      </trkpt>
      <trkpt lat="43.14693" lon="-0.66298">
        <ele>416.39</ele>
        <time>2017-03-05T08:15:24Z</time>
      </trkpt>
      <trkpt lat="43.14681" lon="-0.66315">
        <ele>415.43</ele>
        <time>2017-03-05T08:15:32Z</time>
      </trkpt>
      <trkpt lat="43.14672" lon="-0.66328">
        <ele>413.02</ele>
        <time>2017-03-05T08:15:39Z</time>
      </trkpt>
      <trkpt lat="43.14667" lon="-0.6634">
        <ele>412.06</ele>
        <time>2017-03-05T08:15:45Z</time>
      </trkpt>
      <trkpt lat="43.1466" lon="-0.66355">
        <ele>410.62</ele>
        <time>2017-03-05T08:15:53Z</time>
      </trkpt>
      <trkpt lat="43.14655" lon="-0.66369">
        <ele>411.58</ele>
        <time>2017-03-05T08:16:00Z</time>
      </trkpt>
      <trkpt lat="43.14648" lon="-0.66398">
        <ele>413.02</ele>
        <time>2017-03-05T08:16:13Z</time>
      </trkpt>
      <trkpt lat="43.14646" lon="-0.66411">
        <ele>415.91</ele>
        <time>2017-03-05T08:16:19Z</time>
      </trkpt>
      <trkpt lat="43.14636" lon="-0.66434">
        <ele>419.75</ele>
        <time>2017-03-05T08:16:32Z</time>
      </trkpt>
      <trkpt lat="43.14625" lon="-0.66452">
        <ele>417.83</ele>
        <time>2017-03-05T08:16:44Z</time>
      </trkpt>
      <trkpt lat="43.14619" lon="-0.66465">
        <ele>419.75</ele>
        <time>2017-03-05T08:16:50Z</time>
      </trkpt>
      <trkpt lat="43.14615" lon="-0.66477">
        <ele>420.71</ele>
        <time>2017-03-05T08:16:57Z</time>
      </trkpt>
      <trkpt lat="43.14606" lon="-0.66506">
        <ele>426</ele>
        <time>2017-03-05T08:17:11Z</time>
      </trkpt>
      <trkpt lat="43.14605" lon="-0.66538">
        <ele>432.25</ele>
        <time>2017-03-05T08:17:26Z</time>
      </trkpt>
      <trkpt lat="43.14596" lon="-0.66566">
        <ele>434.17</ele>
        <time>2017-03-05T08:17:39Z</time>
      </trkpt>
      <trkpt lat="43.14601" lon="-0.66603">
        <ele>433.21</ele>
        <time>2017-03-05T08:17:57Z</time>
      </trkpt>
      <trkpt lat="43.14617" lon="-0.66624">
        <ele>433.69</ele>
        <time>2017-03-05T08:18:09Z</time>
      </trkpt>
      <trkpt lat="43.14623" lon="-0.66649">
        <ele>431.29</ele>
        <time>2017-03-05T08:18:22Z</time>
      </trkpt>
      <trkpt lat="43.14623" lon="-0.66676">
        <ele>431.77</ele>
        <time>2017-03-05T08:18:32Z</time>
      </trkpt>
      <trkpt lat="43.14623" lon="-0.66712">
        <ele>431.77</ele>
        <time>2017-03-05T08:18:43Z</time>
      </trkpt>
      <trkpt lat="43.14623" lon="-0.66745">
        <ele>432.73</ele>
        <time>2017-03-05T08:18:53Z</time>
      </trkpt>
      <trkpt lat="43.14618" lon="-0.66776">
        <ele>434.17</ele>
        <time>2017-03-05T08:19:06Z</time>
      </trkpt>
      <trkpt lat="43.14616" lon="-0.66787">
        <ele>436.1</ele>
        <time>2017-03-05T08:19:12Z</time>
      </trkpt>
      <trkpt lat="43.14615" lon="-0.66805">
        <ele>436.1</ele>
        <time>2017-03-05T08:19:19Z</time>
      </trkpt>
      <trkpt lat="43.14615" lon="-0.66833">
        <ele>437.06</ele>
        <time>2017-03-05T08:19:33Z</time>
      </trkpt>
      <trkpt lat="43.1462" lon="-0.66863">
        <ele>437.54</ele>
        <time>2017-03-05T08:19:46Z</time>
      </trkpt>
      <trkpt lat="43.14626" lon="-0.66888">
        <ele>435.13</ele>
        <time>2017-03-05T08:20:00Z</time>
      </trkpt>
      <trkpt lat="43.14627" lon="-0.66915">
        <ele>437.54</ele>
        <time>2017-03-05T08:20:15Z</time>
      </trkpt>
      <trkpt lat="43.14625" lon="-0.66924">
        <ele>439.46</ele>
        <time>2017-03-05T08:20:20Z</time>
      </trkpt>
      <trkpt lat="43.14627" lon="-0.66954">
        <ele>439.46</ele>
        <time>2017-03-05T08:20:33Z</time>
      </trkpt>
      <trkpt lat="43.14626" lon="-0.66961">
        <ele>439.94</ele>
        <time>2017-03-05T08:20:36Z</time>
      </trkpt>
      <trkpt lat="43.14617" lon="-0.66959">
        <ele>440.42</ele>
        <time>2017-03-05T08:20:44Z</time>
      </trkpt>
      <trkpt lat="43.14599" lon="-0.66948">
        <ele>437.06</ele>
        <time>2017-03-05T08:21:00Z</time>
      </trkpt>
      <trkpt lat="43.14597" lon="-0.66946">
        <ele>437.54</ele>
        <time>2017-03-05T08:21:03Z</time>
      </trkpt>
      <trkpt lat="43.14585" lon="-0.66932">
        <ele>440.9</ele>
        <time>2017-03-05T08:21:13Z</time>
      </trkpt>
      <trkpt lat="43.14583" lon="-0.66925">
        <ele>442.34</ele>
        <time>2017-03-05T08:21:18Z</time>
      </trkpt>
      <trkpt lat="43.14584" lon="-0.6692">
        <ele>442.82</ele>
        <time>2017-03-05T08:21:26Z</time>
      </trkpt>
      <trkpt lat="43.14581" lon="-0.66923">
        <ele>442.82</ele>
        <time>2017-03-05T08:21:30Z</time>
      </trkpt>
      <trkpt lat="43.14577" lon="-0.66916">
        <ele>442.82</ele>
        <time>2017-03-05T08:21:35Z</time>
      </trkpt>
      <trkpt lat="43.14564" lon="-0.66904">
        <ele>446.19</ele>
        <time>2017-03-05T08:21:50Z</time>
      </trkpt>
      <trkpt lat="43.14553" lon="-0.66892">
        <ele>450.52</ele>
        <time>2017-03-05T08:22:03Z</time>
      </trkpt>
      <trkpt lat="43.14547" lon="-0.66881">
        <ele>455.8</ele>
        <time>2017-03-05T08:22:15Z</time>
      </trkpt>
      <trkpt lat="43.14544" lon="-0.66868">
        <ele>461.57</ele>
        <time>2017-03-05T08:22:30Z</time>
      </trkpt>
      <trkpt lat="43.14543" lon="-0.66863">
        <ele>463.97</ele>
        <time>2017-03-05T08:22:36Z</time>
      </trkpt>
      <trkpt lat="43.14541" lon="-0.66845">
        <ele>465.9</ele>
        <time>2017-03-05T08:22:48Z</time>
      </trkpt>
      <trkpt lat="43.14542" lon="-0.66828">
        <ele>470.22</ele>
        <time>2017-03-05T08:23:02Z</time>
      </trkpt>
      <trkpt lat="43.14538" lon="-0.66809">
        <ele>473.11</ele>
        <time>2017-03-05T08:23:13Z</time>
      </trkpt>
      <trkpt lat="43.14534" lon="-0.66787">
        <ele>473.11</ele>
        <time>2017-03-05T08:23:27Z</time>
      </trkpt>
      <trkpt lat="43.14531" lon="-0.66771">
        <ele>473.11</ele>
        <time>2017-03-05T08:23:38Z</time>
      </trkpt>
      <trkpt lat="43.1453" lon="-0.66753">
        <ele>471.66</ele>
        <time>2017-03-05T08:23:49Z</time>
      </trkpt>
      <trkpt lat="43.14529" lon="-0.66742">
        <ele>472.63</ele>
        <time>2017-03-05T08:23:55Z</time>
      </trkpt>
      <trkpt lat="43.14525" lon="-0.66727">
        <ele>475.99</ele>
        <time>2017-03-05T08:24:04Z</time>
      </trkpt>
      <trkpt lat="43.14524" lon="-0.66707">
        <ele>479.84</ele>
        <time>2017-03-05T08:24:18Z</time>
      </trkpt>
      <trkpt lat="43.14522" lon="-0.66686">
        <ele>480.32</ele>
        <time>2017-03-05T08:24:31Z</time>
      </trkpt>
      <trkpt lat="43.14518" lon="-0.66665">
        <ele>483.68</ele>
        <time>2017-03-05T08:24:41Z</time>
      </trkpt>
      <trkpt lat="43.14513" lon="-0.66639">
        <ele>484.16</ele>
        <time>2017-03-05T08:24:54Z</time>
      </trkpt>
      <trkpt lat="43.14504" lon="-0.66616">
        <ele>483.2</ele>
        <time>2017-03-05T08:25:08Z</time>
      </trkpt>
      <trkpt lat="43.14495" lon="-0.66596">
        <ele>483.2</ele>
        <time>2017-03-05T08:25:19Z</time>
      </trkpt>
      <trkpt lat="43.14485" lon="-0.66577">
        <ele>485.6</ele>
        <time>2017-03-05T08:25:30Z</time>
      </trkpt>
      <trkpt lat="43.14474" lon="-0.66562">
        <ele>488.97</ele>
        <time>2017-03-05T08:25:39Z</time>
      </trkpt>
      <trkpt lat="43.1447" lon="-0.6655">
        <ele>491.85</ele>
        <time>2017-03-05T08:25:49Z</time>
      </trkpt>
      <trkpt lat="43.1447" lon="-0.66547">
        <ele>492.33</ele>
        <time>2017-03-05T08:25:51Z</time>
      </trkpt>
      <trkpt lat="43.14471" lon="-0.66527">
        <ele>497.14</ele>
        <time>2017-03-05T08:26:04Z</time>
      </trkpt>
      <trkpt lat="43.14474" lon="-0.66512">
        <ele>500.02</ele>
        <time>2017-03-05T08:26:12Z</time>
      </trkpt>
      <trkpt lat="43.14473" lon="-0.66487">
        <ele>507.23</ele>
        <time>2017-03-05T08:26:26Z</time>
      </trkpt>
      <trkpt lat="43.14471" lon="-0.66472">
        <ele>509.16</ele>
        <time>2017-03-05T08:26:34Z</time>
      </trkpt>
      <trkpt lat="43.14472" lon="-0.66457">
        <ele>511.08</ele>
        <time>2017-03-05T08:26:41Z</time>
      </trkpt>
      <trkpt lat="43.14471" lon="-0.6643">
        <ele>514.92</ele>
        <time>2017-03-05T08:26:52Z</time>
      </trkpt>
      <trkpt lat="43.14465" lon="-0.66398">
        <ele>517.33</ele>
        <time>2017-03-05T08:27:04Z</time>
      </trkpt>
      <trkpt lat="43.14454" lon="-0.6638">
        <ele>516.37</ele>
        <time>2017-03-05T08:27:14Z</time>
      </trkpt>
      <trkpt lat="43.14427" lon="-0.66365">
        <ele>513.48</ele>
        <time>2017-03-05T08:27:28Z</time>
      </trkpt>
      <trkpt lat="43.14391" lon="-0.66364">
        <ele>501.46</ele>
        <time>2017-03-05T08:27:38Z</time>
      </trkpt>
      <trkpt lat="43.14375" lon="-0.66364">
        <ele>497.14</ele>
        <time>2017-03-05T08:27:44Z</time>
      </trkpt>
      <trkpt lat="43.14367" lon="-0.66362">
        <ele>494.74</ele>
        <time>2017-03-05T08:27:47Z</time>
      </trkpt>
      <trkpt lat="43.1433" lon="-0.66365">
        <ele>490.89</ele>
        <time>2017-03-05T08:27:57Z</time>
      </trkpt>
      <trkpt lat="43.14313" lon="-0.66367">
        <ele>489.45</ele>
        <time>2017-03-05T08:28:01Z</time>
      </trkpt>
      <trkpt lat="43.14263" lon="-0.66378">
        <ele>483.68</ele>
        <time>2017-03-05T08:28:13Z</time>
      </trkpt>
      <trkpt lat="43.14232" lon="-0.66382">
        <ele>477.43</ele>
        <time>2017-03-05T08:28:23Z</time>
      </trkpt>
      <trkpt lat="43.1423" lon="-0.66381">
        <ele>476.95</ele>
        <time>2017-03-05T08:28:24Z</time>
      </trkpt>
      <trkpt lat="43.14215" lon="-0.66379">
        <ele>477.43</ele>
        <time>2017-03-05T08:28:34Z</time>
      </trkpt>
      <trkpt lat="43.1421" lon="-0.66378">
        <ele>476.95</ele>
        <time>2017-03-05T08:28:40Z</time>
      </trkpt>
      <trkpt lat="43.14208" lon="-0.66376">
        <ele>477.43</ele>
        <time>2017-03-05T08:28:42Z</time>
      </trkpt>
      <trkpt lat="43.14195" lon="-0.66372">
        <ele>480.32</ele>
        <time>2017-03-05T08:28:47Z</time>
      </trkpt>
      <trkpt lat="43.14168" lon="-0.66359">
        <ele>480.8</ele>
        <time>2017-03-05T08:28:55Z</time>
      </trkpt>
      <trkpt lat="43.14149" lon="-0.66346">
        <ele>479.35</ele>
        <time>2017-03-05T08:29:03Z</time>
      </trkpt>
      <trkpt lat="43.14139" lon="-0.6634">
        <ele>480.8</ele>
        <time>2017-03-05T08:29:07Z</time>
      </trkpt>
      <trkpt lat="43.14135" lon="-0.66336">
        <ele>481.28</ele>
        <time>2017-03-05T08:29:09Z</time>
      </trkpt>
      <trkpt lat="43.1413" lon="-0.66331">
        <ele>482.72</ele>
        <time>2017-03-05T08:29:12Z</time>
      </trkpt>
      <trkpt lat="43.14122" lon="-0.66324">
        <ele>485.6</ele>
        <time>2017-03-05T08:29:21Z</time>
      </trkpt>
      <trkpt lat="43.14109" lon="-0.66306">
        <ele>488.97</ele>
        <time>2017-03-05T08:29:30Z</time>
      </trkpt>
      <trkpt lat="43.14108" lon="-0.66303">
        <ele>489.45</ele>
        <time>2017-03-05T08:29:31Z</time>
      </trkpt>
      <trkpt lat="43.14105" lon="-0.663">
        <ele>489.45</ele>
        <time>2017-03-05T08:29:32Z</time>
      </trkpt>
      <trkpt lat="43.14103" lon="-0.66297">
        <ele>489.93</ele>
        <time>2017-03-05T08:29:33Z</time>
      </trkpt>
      <trkpt lat="43.14101" lon="-0.66295">
        <ele>490.41</ele>
        <time>2017-03-05T08:29:34Z</time>
      </trkpt>
      <trkpt lat="43.14099" lon="-0.66294">
        <ele>489.93</ele>
        <time>2017-03-05T08:29:35Z</time>
      </trkpt>
      <trkpt lat="43.14097" lon="-0.66293">
        <ele>489.93</ele>
        <time>2017-03-05T08:29:36Z</time>
      </trkpt>
      <trkpt lat="43.14095" lon="-0.66292">
        <ele>489.93</ele>
        <time>2017-03-05T08:29:37Z</time>
      </trkpt>
      <trkpt lat="43.14092" lon="-0.66291">
        <ele>489.93</ele>
        <time>2017-03-05T08:29:38Z</time>
      </trkpt>
      <trkpt lat="43.14082" lon="-0.66285">
        <ele>489.45</ele>
        <time>2017-03-05T08:29:46Z</time>
      </trkpt>
      <trkpt lat="43.14061" lon="-0.66288">
        <ele>487.53</ele>
        <time>2017-03-05T08:29:57Z</time>
      </trkpt>
      <trkpt lat="43.14056" lon="-0.66289">
        <ele>486.56</ele>
        <time>2017-03-05T08:29:59Z</time>
      </trkpt>
      <trkpt lat="43.1405" lon="-0.66287">
        <ele>481.76</ele>
        <time>2017-03-05T08:30:09Z</time>
      </trkpt>
      <trkpt lat="43.14048" lon="-0.66288">
        <ele>479.35</ele>
        <time>2017-03-05T08:30:16Z</time>
      </trkpt>
      <trkpt lat="43.14048" lon="-0.66288">
        <ele>476.47</ele>
        <time>2017-03-05T08:30:29Z</time>
      </trkpt>
      <trkpt lat="43.14046" lon="-0.6629">
        <ele>475.99</ele>
        <time>2017-03-05T08:30:36Z</time>
      </trkpt>
      <trkpt lat="43.14034" lon="-0.66291">
        <ele>477.43</ele>
        <time>2017-03-05T08:30:45Z</time>
      </trkpt>
      <trkpt lat="43.14023" lon="-0.66268">
        <ele>479.84</ele>
        <time>2017-03-05T08:30:55Z</time>
      </trkpt>
      <trkpt lat="43.14" lon="-0.66257">
        <ele>479.35</ele>
        <time>2017-03-05T08:31:03Z</time>
      </trkpt>
      <trkpt lat="43.13966" lon="-0.66266">
        <ele>472.14</ele>
        <time>2017-03-05T08:31:15Z</time>
      </trkpt>
      <trkpt lat="43.13955" lon="-0.66279">
        <ele>469.74</ele>
        <time>2017-03-05T08:31:23Z</time>
      </trkpt>
      <trkpt lat="43.13942" lon="-0.66291">
        <ele>469.74</ele>
        <time>2017-03-05T08:31:31Z</time>
      </trkpt>
      <trkpt lat="43.13935" lon="-0.66289">
        <ele>468.78</ele>
        <time>2017-03-05T08:31:39Z</time>
      </trkpt>
      <trkpt lat="43.13928" lon="-0.66273">
        <ele>476.47</ele>
        <time>2017-03-05T08:31:51Z</time>
      </trkpt>
      <trkpt lat="43.13921" lon="-0.66262">
        <ele>482.72</ele>
        <time>2017-03-05T08:32:00Z</time>
      </trkpt>
      <trkpt lat="43.13918" lon="-0.66255">
        <ele>488.49</ele>
        <time>2017-03-05T08:32:11Z</time>
      </trkpt>
      <trkpt lat="43.13914" lon="-0.66241">
        <ele>489.93</ele>
        <time>2017-03-05T08:32:24Z</time>
      </trkpt>
      <trkpt lat="43.13912" lon="-0.66235">
        <ele>490.89</ele>
        <time>2017-03-05T08:32:36Z</time>
      </trkpt>
      <trkpt lat="43.13906" lon="-0.66222">
        <ele>491.85</ele>
        <time>2017-03-05T08:32:47Z</time>
      </trkpt>
      <trkpt lat="43.13901" lon="-0.66205">
        <ele>495.22</ele>
        <time>2017-03-05T08:32:58Z</time>
      </trkpt>
      <trkpt lat="43.139" lon="-0.66183">
        <ele>500.02</ele>
        <time>2017-03-05T08:33:11Z</time>
      </trkpt>
      <trkpt lat="43.13899" lon="-0.66174">
        <ele>506.27</ele>
        <time>2017-03-05T08:33:19Z</time>
      </trkpt>
      <trkpt lat="43.139" lon="-0.66151">
        <ele>513.96</ele>
        <time>2017-03-05T08:33:34Z</time>
      </trkpt>
      <trkpt lat="43.13898" lon="-0.66124">
        <ele>509.64</ele>
        <time>2017-03-05T08:33:47Z</time>
      </trkpt>
      <trkpt lat="43.13898" lon="-0.66118">
        <ele>509.64</ele>
        <time>2017-03-05T08:33:51Z</time>
      </trkpt>
      <trkpt lat="43.13898" lon="-0.66114">
        <ele>509.16</ele>
        <time>2017-03-05T08:33:53Z</time>
      </trkpt>
      <trkpt lat="43.13899" lon="-0.66086">
        <ele>504.35</ele>
        <time>2017-03-05T08:34:07Z</time>
      </trkpt>
      <trkpt lat="43.13899" lon="-0.66082">
        <ele>502.91</ele>
        <time>2017-03-05T08:34:09Z</time>
      </trkpt>
      <trkpt lat="43.13899" lon="-0.66059">
        <ele>496.18</ele>
        <time>2017-03-05T08:34:20Z</time>
      </trkpt>
      <trkpt lat="43.13896" lon="-0.66043">
        <ele>497.62</ele>
        <time>2017-03-05T08:34:29Z</time>
      </trkpt>
      <trkpt lat="43.1389" lon="-0.66032">
        <ele>499.54</ele>
        <time>2017-03-05T08:34:37Z</time>
      </trkpt>
      <trkpt lat="43.13886" lon="-0.66023">
        <ele>497.14</ele>
        <time>2017-03-05T08:34:47Z</time>
      </trkpt>
      <trkpt lat="43.13881" lon="-0.66015">
        <ele>498.58</ele>
        <time>2017-03-05T08:34:57Z</time>
      </trkpt>
      <trkpt lat="43.13868" lon="-0.65998">
        <ele>493.77</ele>
        <time>2017-03-05T08:35:10Z</time>
      </trkpt>
      <trkpt lat="43.13854" lon="-0.65985">
        <ele>492.33</ele>
        <time>2017-03-05T08:35:22Z</time>
      </trkpt>
      <trkpt lat="43.13838" lon="-0.65963">
        <ele>494.26</ele>
        <time>2017-03-05T08:35:33Z</time>
      </trkpt>
      <trkpt lat="43.13827" lon="-0.65945">
        <ele>495.22</ele>
        <time>2017-03-05T08:35:38Z</time>
      </trkpt>
      <trkpt lat="43.13822" lon="-0.65928">
        <ele>495.7</ele>
        <time>2017-03-05T08:35:41Z</time>
      </trkpt>
      <trkpt lat="43.13804" lon="-0.6587">
        <ele>495.22</ele>
        <time>2017-03-05T08:35:50Z</time>
      </trkpt>
      <trkpt lat="43.13787" lon="-0.65819">
        <ele>492.33</ele>
        <time>2017-03-05T08:36:00Z</time>
      </trkpt>
      <trkpt lat="43.13776" lon="-0.65785">
        <ele>495.22</ele>
        <time>2017-03-05T08:36:11Z</time>
      </trkpt>
      <trkpt lat="43.13767" lon="-0.65756">
        <ele>496.66</ele>
        <time>2017-03-05T08:36:21Z</time>
      </trkpt>
      <trkpt lat="43.13766" lon="-0.65751">
        <ele>496.18</ele>
        <time>2017-03-05T08:36:29Z</time>
      </trkpt>
      <trkpt lat="43.13763" lon="-0.65721">
        <ele>490.41</ele>
        <time>2017-03-05T08:36:40Z</time>
      </trkpt>
      <trkpt lat="43.13762" lon="-0.65718">
        <ele>489.93</ele>
        <time>2017-03-05T08:36:41Z</time>
      </trkpt>
      <trkpt lat="43.13757" lon="-0.65698">
        <ele>484.64</ele>
        <time>2017-03-05T08:36:50Z</time>
      </trkpt>
      <trkpt lat="43.13757" lon="-0.65697">
        <ele>484.16</ele>
        <time>2017-03-05T08:36:51Z</time>
      </trkpt>
      <trkpt lat="43.13752" lon="-0.65681">
        <ele>476.95</ele>
        <time>2017-03-05T08:37:01Z</time>
      </trkpt>
      <trkpt lat="43.1375" lon="-0.65674">
        <ele>477.91</ele>
        <time>2017-03-05T08:37:14Z</time>
      </trkpt>
      <trkpt lat="43.13752" lon="-0.65661">
        <ele>478.87</ele>
        <time>2017-03-05T08:37:19Z</time>
      </trkpt>
      <trkpt lat="43.13754" lon="-0.65651">
        <ele>480.8</ele>
        <time>2017-03-05T08:37:23Z</time>
      </trkpt>
      <trkpt lat="43.13754" lon="-0.65642">
        <ele>481.76</ele>
        <time>2017-03-05T08:37:27Z</time>
      </trkpt>
      <trkpt lat="43.13757" lon="-0.65609">
        <ele>479.35</ele>
        <time>2017-03-05T08:37:36Z</time>
      </trkpt>
      <trkpt lat="43.13765" lon="-0.6557">
        <ele>478.39</ele>
        <time>2017-03-05T08:37:45Z</time>
      </trkpt>
      <trkpt lat="43.13769" lon="-0.65555">
        <ele>478.39</ele>
        <time>2017-03-05T08:37:49Z</time>
      </trkpt>
      <trkpt lat="43.13781" lon="-0.65511">
        <ele>475.99</ele>
        <time>2017-03-05T08:37:59Z</time>
      </trkpt>
      <trkpt lat="43.13791" lon="-0.65474">
        <ele>475.03</ele>
        <time>2017-03-05T08:38:06Z</time>
      </trkpt>
      <trkpt lat="43.13801" lon="-0.65451">
        <ele>475.03</ele>
        <time>2017-03-05T08:38:13Z</time>
      </trkpt>
      <trkpt lat="43.13814" lon="-0.65423">
        <ele>469.26</ele>
        <time>2017-03-05T08:38:25Z</time>
      </trkpt>
      <trkpt lat="43.13816" lon="-0.65421">
        <ele>468.3</ele>
        <time>2017-03-05T08:38:27Z</time>
      </trkpt>
      <trkpt lat="43.13826" lon="-0.65412">
        <ele>456.28</ele>
        <time>2017-03-05T08:38:36Z</time>
      </trkpt>
      <trkpt lat="43.1383" lon="-0.6541">
        <ele>450.52</ele>
        <time>2017-03-05T08:38:44Z</time>
      </trkpt>
      <trkpt lat="43.13849" lon="-0.65411">
        <ele>446.67</ele>
        <time>2017-03-05T08:38:54Z</time>
      </trkpt>
      <trkpt lat="43.13859" lon="-0.65414">
        <ele>443.79</ele>
        <time>2017-03-05T08:38:59Z</time>
      </trkpt>
      <trkpt lat="43.13865" lon="-0.65413">
        <ele>441.86</ele>
        <time>2017-03-05T08:39:02Z</time>
      </trkpt>
      <trkpt lat="43.13882" lon="-0.65409">
        <ele>434.65</ele>
        <time>2017-03-05T08:39:11Z</time>
      </trkpt>
      <trkpt lat="43.13894" lon="-0.65409">
        <ele>432.25</ele>
        <time>2017-03-05T08:39:16Z</time>
      </trkpt>
      <trkpt lat="43.13918" lon="-0.65376">
        <ele>425.52</ele>
        <time>2017-03-05T08:39:27Z</time>
      </trkpt>
      <trkpt lat="43.13945" lon="-0.65358">
        <ele>417.35</ele>
        <time>2017-03-05T08:39:37Z</time>
      </trkpt>
      <trkpt lat="43.13969" lon="-0.65363">
        <ele>415.91</ele>
        <time>2017-03-05T08:39:46Z</time>
      </trkpt>
      <trkpt lat="43.14001" lon="-0.65366">
        <ele>413.5</ele>
        <time>2017-03-05T08:39:58Z</time>
      </trkpt>
      <trkpt lat="43.14003" lon="-0.65366">
        <ele>412.54</ele>
        <time>2017-03-05T08:39:59Z</time>
      </trkpt>
      <trkpt lat="43.14003" lon="-0.65361">
        <ele>412.06</ele>
        <time>2017-03-05T08:40:03Z</time>
      </trkpt>
      <trkpt lat="43.14015" lon="-0.65321">
        <ele>418.31</ele>
        <time>2017-03-05T08:40:15Z</time>
      </trkpt>
      <trkpt lat="43.14016" lon="-0.65277">
        <ele>421.19</ele>
        <time>2017-03-05T08:40:23Z</time>
      </trkpt>
      <trkpt lat="43.14017" lon="-0.65266">
        <ele>422.16</ele>
        <time>2017-03-05T08:40:25Z</time>
      </trkpt>
      <trkpt lat="43.14043" lon="-0.65212">
        <ele>420.71</ele>
        <time>2017-03-05T08:40:37Z</time>
      </trkpt>
      <trkpt lat="43.14056" lon="-0.65186">
        <ele>418.31</ele>
        <time>2017-03-05T08:40:45Z</time>
      </trkpt>
      <trkpt lat="43.14046" lon="-0.65147">
        <ele>415.43</ele>
        <time>2017-03-05T08:40:54Z</time>
      </trkpt>
      <trkpt lat="43.14031" lon="-0.65121">
        <ele>414.47</ele>
        <time>2017-03-05T08:41:00Z</time>
      </trkpt>
      <trkpt lat="43.14027" lon="-0.65112">
        <ele>413.98</ele>
        <time>2017-03-05T08:41:02Z</time>
      </trkpt>
      <trkpt lat="43.14021" lon="-0.65098">
        <ele>412.54</ele>
        <time>2017-03-05T08:41:05Z</time>
      </trkpt>
      <trkpt lat="43.13996" lon="-0.65048">
        <ele>404.85</ele>
        <time>2017-03-05T08:41:15Z</time>
      </trkpt>
      <trkpt lat="43.13966" lon="-0.64992">
        <ele>398.6</ele>
        <time>2017-03-05T08:41:28Z</time>
      </trkpt>
      <trkpt lat="43.13946" lon="-0.64954">
        <ele>395.72</ele>
        <time>2017-03-05T08:41:37Z</time>
      </trkpt>
      <trkpt lat="43.13921" lon="-0.64916">
        <ele>393.32</ele>
        <time>2017-03-05T08:41:46Z</time>
      </trkpt>
      <trkpt lat="43.13918" lon="-0.6491">
        <ele>393.32</ele>
        <time>2017-03-05T08:41:47Z</time>
      </trkpt>
      <trkpt lat="43.13916" lon="-0.64904">
        <ele>392.84</ele>
        <time>2017-03-05T08:41:48Z</time>
      </trkpt>
      <trkpt lat="43.13913" lon="-0.64897">
        <ele>392.84</ele>
        <time>2017-03-05T08:41:49Z</time>
      </trkpt>
      <trkpt lat="43.13912" lon="-0.64892">
        <ele>392.36</ele>
        <time>2017-03-05T08:41:50Z</time>
      </trkpt>
      <trkpt lat="43.13904" lon="-0.64868">
        <ele>391.39</ele>
        <time>2017-03-05T08:41:56Z</time>
      </trkpt>
      <trkpt lat="43.13904" lon="-0.64865">
        <ele>391.39</ele>
        <time>2017-03-05T08:41:57Z</time>
      </trkpt>
      <trkpt lat="43.13903" lon="-0.64861">
        <ele>390.91</ele>
        <time>2017-03-05T08:41:58Z</time>
      </trkpt>
      <trkpt lat="43.13902" lon="-0.64858">
        <ele>390.91</ele>
        <time>2017-03-05T08:41:59Z</time>
      </trkpt>
      <trkpt lat="43.13901" lon="-0.64853">
        <ele>390.43</ele>
        <time>2017-03-05T08:42:00Z</time>
      </trkpt>
      <trkpt lat="43.13901" lon="-0.64849">
        <ele>389.95</ele>
        <time>2017-03-05T08:42:01Z</time>
      </trkpt>
      <trkpt lat="43.139" lon="-0.64845">
        <ele>389.47</ele>
        <time>2017-03-05T08:42:02Z</time>
      </trkpt>
      <trkpt lat="43.139" lon="-0.64841">
        <ele>389.47</ele>
        <time>2017-03-05T08:42:03Z</time>
      </trkpt>
      <trkpt lat="43.13899" lon="-0.64837">
        <ele>388.51</ele>
        <time>2017-03-05T08:42:04Z</time>
      </trkpt>
      <trkpt lat="43.13898" lon="-0.64829">
        <ele>388.03</ele>
        <time>2017-03-05T08:42:06Z</time>
      </trkpt>
      <trkpt lat="43.13898" lon="-0.64825">
        <ele>387.55</ele>
        <time>2017-03-05T08:42:07Z</time>
      </trkpt>
      <trkpt lat="43.13898" lon="-0.64822">
        <ele>386.59</ele>
        <time>2017-03-05T08:42:08Z</time>
      </trkpt>
      <trkpt lat="43.13897" lon="-0.64819">
        <ele>385.63</ele>
        <time>2017-03-05T08:42:09Z</time>
      </trkpt>
      <trkpt lat="43.13897" lon="-0.64815">
        <ele>384.66</ele>
        <time>2017-03-05T08:42:10Z</time>
      </trkpt>
      <trkpt lat="43.13897" lon="-0.64811">
        <ele>384.18</ele>
        <time>2017-03-05T08:42:11Z</time>
      </trkpt>
      <trkpt lat="43.13896" lon="-0.64808">
        <ele>384.18</ele>
        <time>2017-03-05T08:42:12Z</time>
      </trkpt>
      <trkpt lat="43.13896" lon="-0.64803">
        <ele>384.18</ele>
        <time>2017-03-05T08:42:13Z</time>
      </trkpt>
      <trkpt lat="43.13895" lon="-0.64801">
        <ele>384.18</ele>
        <time>2017-03-05T08:42:14Z</time>
      </trkpt>
      <trkpt lat="43.13896" lon="-0.64786">
        <ele>385.63</ele>
        <time>2017-03-05T08:42:19Z</time>
      </trkpt>
      <trkpt lat="43.13897" lon="-0.64783">
        <ele>386.59</ele>
        <time>2017-03-05T08:42:20Z</time>
      </trkpt>
      <trkpt lat="43.13897" lon="-0.6478">
        <ele>387.07</ele>
        <time>2017-03-05T08:42:21Z</time>
      </trkpt>
      <trkpt lat="43.13897" lon="-0.64777">
        <ele>387.55</ele>
        <time>2017-03-05T08:42:22Z</time>
      </trkpt>
      <trkpt lat="43.13897" lon="-0.64775">
        <ele>387.55</ele>
        <time>2017-03-05T08:42:23Z</time>
      </trkpt>
      <trkpt lat="43.13902" lon="-0.64755">
        <ele>390.43</ele>
        <time>2017-03-05T08:42:33Z</time>
      </trkpt>
      <trkpt lat="43.13902" lon="-0.64753">
        <ele>390.43</ele>
        <time>2017-03-05T08:42:34Z</time>
      </trkpt>
      <trkpt lat="43.13903" lon="-0.64751">
        <ele>390.91</ele>
        <time>2017-03-05T08:42:35Z</time>
      </trkpt>
      <trkpt lat="43.13904" lon="-0.64749">
        <ele>391.39</ele>
        <time>2017-03-05T08:42:36Z</time>
      </trkpt>
      <trkpt lat="43.13905" lon="-0.64747">
        <ele>391.39</ele>
        <time>2017-03-05T08:42:37Z</time>
      </trkpt>
      <trkpt lat="43.13906" lon="-0.64745">
        <ele>390.43</ele>
        <time>2017-03-05T08:42:38Z</time>
      </trkpt>
      <trkpt lat="43.13907" lon="-0.64744">
        <ele>389.47</ele>
        <time>2017-03-05T08:42:39Z</time>
      </trkpt>
      <trkpt lat="43.13907" lon="-0.64742">
        <ele>388.51</ele>
        <time>2017-03-05T08:42:40Z</time>
      </trkpt>
      <trkpt lat="43.13908" lon="-0.64739">
        <ele>387.55</ele>
        <time>2017-03-05T08:42:41Z</time>
      </trkpt>
      <trkpt lat="43.13908" lon="-0.64736">
        <ele>386.59</ele>
        <time>2017-03-05T08:42:42Z</time>
      </trkpt>
      <trkpt lat="43.13911" lon="-0.64719">
        <ele>383.7</ele>
        <time>2017-03-05T08:42:48Z</time>
      </trkpt>
      <trkpt lat="43.13912" lon="-0.64716">
        <ele>382.74</ele>
        <time>2017-03-05T08:42:49Z</time>
      </trkpt>
      <trkpt lat="43.13916" lon="-0.64703">
        <ele>383.22</ele>
        <time>2017-03-05T08:42:55Z</time>
      </trkpt>
      <trkpt lat="43.13917" lon="-0.64702">
        <ele>383.22</ele>
        <time>2017-03-05T08:42:56Z</time>
      </trkpt>
      <trkpt lat="43.13918" lon="-0.647">
        <ele>383.22</ele>
        <time>2017-03-05T08:42:57Z</time>
      </trkpt>
      <trkpt lat="43.13918" lon="-0.64697">
        <ele>383.22</ele>
        <time>2017-03-05T08:42:58Z</time>
      </trkpt>
      <trkpt lat="43.13918" lon="-0.64693">
        <ele>383.7</ele>
        <time>2017-03-05T08:42:59Z</time>
      </trkpt>
      <trkpt lat="43.13919" lon="-0.64691">
        <ele>383.7</ele>
        <time>2017-03-05T08:43:00Z</time>
      </trkpt>
      <trkpt lat="43.13919" lon="-0.64688">
        <ele>383.7</ele>
        <time>2017-03-05T08:43:01Z</time>
      </trkpt>
      <trkpt lat="43.1392" lon="-0.64685">
        <ele>384.18</ele>
        <time>2017-03-05T08:43:02Z</time>
      </trkpt>
      <trkpt lat="43.13937" lon="-0.64639">
        <ele>382.74</ele>
        <time>2017-03-05T08:43:17Z</time>
      </trkpt>
      <trkpt lat="43.13955" lon="-0.64601">
        <ele>378.42</ele>
        <time>2017-03-05T08:43:26Z</time>
      </trkpt>
      <trkpt lat="43.13988" lon="-0.64576">
        <ele>373.13</ele>
        <time>2017-03-05T08:43:38Z</time>
      </trkpt>
      <trkpt lat="43.14023" lon="-0.64559">
        <ele>368.8</ele>
        <time>2017-03-05T08:43:50Z</time>
      </trkpt>
      <trkpt lat="43.14035" lon="-0.6455">
        <ele>363.52</ele>
        <time>2017-03-05T08:43:55Z</time>
      </trkpt>
      <trkpt lat="43.14037" lon="-0.64547">
        <ele>363.04</ele>
        <time>2017-03-05T08:43:56Z</time>
      </trkpt>
      <trkpt lat="43.14039" lon="-0.64533">
        <ele>361.11</ele>
        <time>2017-03-05T08:43:59Z</time>
      </trkpt>
      <trkpt lat="43.14038" lon="-0.64528">
        <ele>361.11</ele>
        <time>2017-03-05T08:44:00Z</time>
      </trkpt>
      <trkpt lat="43.14038" lon="-0.64525">
        <ele>361.11</ele>
        <time>2017-03-05T08:44:01Z</time>
      </trkpt>
      <trkpt lat="43.14037" lon="-0.64522">
        <ele>361.59</ele>
        <time>2017-03-05T08:44:02Z</time>
      </trkpt>
      <trkpt lat="43.14036" lon="-0.64518">
        <ele>361.59</ele>
        <time>2017-03-05T08:44:03Z</time>
      </trkpt>
      <trkpt lat="43.14026" lon="-0.64497">
        <ele>362.07</ele>
        <time>2017-03-05T08:44:12Z</time>
      </trkpt>
      <trkpt lat="43.14026" lon="-0.64496">
        <ele>361.59</ele>
        <time>2017-03-05T08:44:13Z</time>
      </trkpt>
      <trkpt lat="43.14024" lon="-0.64494">
        <ele>360.15</ele>
        <time>2017-03-05T08:44:14Z</time>
      </trkpt>
      <trkpt lat="43.14022" lon="-0.64491">
        <ele>359.19</ele>
        <time>2017-03-05T08:44:15Z</time>
      </trkpt>
      <trkpt lat="43.1402" lon="-0.64488">
        <ele>358.71</ele>
        <time>2017-03-05T08:44:16Z</time>
      </trkpt>
      <trkpt lat="43.14018" lon="-0.64485">
        <ele>357.75</ele>
        <time>2017-03-05T08:44:17Z</time>
      </trkpt>
      <trkpt lat="43.14017" lon="-0.64481">
        <ele>356.79</ele>
        <time>2017-03-05T08:44:18Z</time>
      </trkpt>
      <trkpt lat="43.14015" lon="-0.64478">
        <ele>355.34</ele>
        <time>2017-03-05T08:44:19Z</time>
      </trkpt>
      <trkpt lat="43.14013" lon="-0.64474">
        <ele>354.86</ele>
        <time>2017-03-05T08:44:20Z</time>
      </trkpt>
      <trkpt lat="43.13985" lon="-0.64444">
        <ele>347.17</ele>
        <time>2017-03-05T08:44:29Z</time>
      </trkpt>
      <trkpt lat="43.13982" lon="-0.64441">
        <ele>346.69</ele>
        <time>2017-03-05T08:44:30Z</time>
      </trkpt>
      <trkpt lat="43.13979" lon="-0.64437">
        <ele>345.73</ele>
        <time>2017-03-05T08:44:31Z</time>
      </trkpt>
      <trkpt lat="43.13962" lon="-0.64418">
        <ele>341.41</ele>
        <time>2017-03-05T08:44:36Z</time>
      </trkpt>
      <trkpt lat="43.13937" lon="-0.64391">
        <ele>335.16</ele>
        <time>2017-03-05T08:44:47Z</time>
      </trkpt>
      <trkpt lat="43.13918" lon="-0.64375">
        <ele>329.39</ele>
        <time>2017-03-05T08:44:56Z</time>
      </trkpt>
      <trkpt lat="43.13903" lon="-0.64359">
        <ele>326.99</ele>
        <time>2017-03-05T08:45:07Z</time>
      </trkpt>
      <trkpt lat="43.13869" lon="-0.64325">
        <ele>317.37</ele>
        <time>2017-03-05T08:45:16Z</time>
      </trkpt>
      <trkpt lat="43.13788" lon="-0.64265">
        <ele>305.36</ele>
        <time>2017-03-05T08:45:26Z</time>
      </trkpt>
      <trkpt lat="43.13724" lon="-0.64222">
        <ele>299.11</ele>
        <time>2017-03-05T08:45:37Z</time>
      </trkpt>
      <trkpt lat="43.13703" lon="-0.64207">
        <ele>296.22</ele>
        <time>2017-03-05T08:45:41Z</time>
      </trkpt>
      <trkpt lat="43.13698" lon="-0.64203">
        <ele>295.74</ele>
        <time>2017-03-05T08:45:42Z</time>
      </trkpt>
      <trkpt lat="43.13695" lon="-0.64198">
        <ele>295.26</ele>
        <time>2017-03-05T08:45:43Z</time>
      </trkpt>
      <trkpt lat="43.13676" lon="-0.64168">
        <ele>291.9</ele>
        <time>2017-03-05T08:45:53Z</time>
      </trkpt>
      <trkpt lat="43.13666" lon="-0.64135">
        <ele>298.63</ele>
        <time>2017-03-05T08:46:05Z</time>
      </trkpt>
      <trkpt lat="43.1365" lon="-0.641">
        <ele>303.91</ele>
        <time>2017-03-05T08:46:17Z</time>
      </trkpt>
      <trkpt lat="43.13644" lon="-0.64082">
        <ele>304.88</ele>
        <time>2017-03-05T08:46:21Z</time>
      </trkpt>
      <trkpt lat="43.13642" lon="-0.64075">
        <ele>304.88</ele>
        <time>2017-03-05T08:46:22Z</time>
      </trkpt>
      <trkpt lat="43.13627" lon="-0.64016">
        <ele>301.03</ele>
        <time>2017-03-05T08:46:32Z</time>
      </trkpt>
      <trkpt lat="43.13597" lon="-0.6395">
        <ele>292.38</ele>
        <time>2017-03-05T08:46:45Z</time>
      </trkpt>
      <trkpt lat="43.13595" lon="-0.63946">
        <ele>292.38</ele>
        <time>2017-03-05T08:46:46Z</time>
      </trkpt>
      <trkpt lat="43.13592" lon="-0.63944">
        <ele>291.9</ele>
        <time>2017-03-05T08:46:47Z</time>
      </trkpt>
      <trkpt lat="43.13589" lon="-0.63944">
        <ele>291.42</ele>
        <time>2017-03-05T08:46:48Z</time>
      </trkpt>
      <trkpt lat="43.13587" lon="-0.63945">
        <ele>291.42</ele>
        <time>2017-03-05T08:46:49Z</time>
      </trkpt>
      <trkpt lat="43.13585" lon="-0.63947">
        <ele>290.94</ele>
        <time>2017-03-05T08:46:50Z</time>
      </trkpt>
      <trkpt lat="43.13553" lon="-0.63963">
        <ele>289.97</ele>
        <time>2017-03-05T08:47:01Z</time>
      </trkpt>
      <trkpt lat="43.13509" lon="-0.63958">
        <ele>288.05</ele>
        <time>2017-03-05T08:47:14Z</time>
      </trkpt>
      <trkpt lat="43.13457" lon="-0.6396">
        <ele>281.8</ele>
        <time>2017-03-05T08:47:29Z</time>
      </trkpt>
      <trkpt lat="43.13433" lon="-0.64006">
        <ele>279.88</ele>
        <time>2017-03-05T08:47:42Z</time>
      </trkpt>
      <trkpt lat="43.13425" lon="-0.64064">
        <ele>285.65</ele>
        <time>2017-03-05T08:47:54Z</time>
      </trkpt>
      <trkpt lat="43.13409" lon="-0.64112">
        <ele>291.42</ele>
        <time>2017-03-05T08:48:05Z</time>
      </trkpt>
      <trkpt lat="43.13383" lon="-0.64161">
        <ele>294.3</ele>
        <time>2017-03-05T08:48:17Z</time>
      </trkpt>
      <trkpt lat="43.1336" lon="-0.64212">
        <ele>297.67</ele>
        <time>2017-03-05T08:48:28Z</time>
      </trkpt>
      <trkpt lat="43.13357" lon="-0.64225">
        <ele>298.63</ele>
        <time>2017-03-05T08:48:30Z</time>
      </trkpt>
      <trkpt lat="43.13356" lon="-0.64232">
        <ele>299.11</ele>
        <time>2017-03-05T08:48:31Z</time>
      </trkpt>
      <trkpt lat="43.13356" lon="-0.64255">
        <ele>298.63</ele>
        <time>2017-03-05T08:48:34Z</time>
      </trkpt>
      <trkpt lat="43.13361" lon="-0.64285">
        <ele>298.15</ele>
        <time>2017-03-05T08:48:38Z</time>
      </trkpt>
      <trkpt lat="43.13362" lon="-0.64299">
        <ele>297.67</ele>
        <time>2017-03-05T08:48:40Z</time>
      </trkpt>
      <trkpt lat="43.13362" lon="-0.64305">
        <ele>297.67</ele>
        <time>2017-03-05T08:48:41Z</time>
      </trkpt>
      <trkpt lat="43.13347" lon="-0.64375">
        <ele>303.43</ele>
        <time>2017-03-05T08:48:54Z</time>
      </trkpt>
      <trkpt lat="43.13336" lon="-0.64424">
        <ele>307.28</ele>
        <time>2017-03-05T08:49:04Z</time>
      </trkpt>
      <trkpt lat="43.1333" lon="-0.64481">
        <ele>307.76</ele>
        <time>2017-03-05T08:49:16Z</time>
      </trkpt>
      <trkpt lat="43.13329" lon="-0.64531">
        <ele>307.76</ele>
        <time>2017-03-05T08:49:28Z</time>
      </trkpt>
      <trkpt lat="43.13328" lon="-0.64591">
        <ele>311.12</ele>
        <time>2017-03-05T08:49:41Z</time>
      </trkpt>
      <trkpt lat="43.13315" lon="-0.64637">
        <ele>313.53</ele>
        <time>2017-03-05T08:49:53Z</time>
      </trkpt>
      <trkpt lat="43.13315" lon="-0.64639">
        <ele>313.53</ele>
        <time>2017-03-05T08:49:54Z</time>
      </trkpt>
      <trkpt lat="43.13313" lon="-0.64643">
        <ele>314.49</ele>
        <time>2017-03-05T08:50:03Z</time>
      </trkpt>
      <trkpt lat="43.13306" lon="-0.6464">
        <ele>314.49</ele>
        <time>2017-03-05T08:50:08Z</time>
      </trkpt>
      <trkpt lat="43.13278" lon="-0.64649">
        <ele>309.68</ele>
        <time>2017-03-05T08:50:21Z</time>
      </trkpt>
      <trkpt lat="43.13248" lon="-0.64651">
        <ele>306.32</ele>
        <time>2017-03-05T08:50:34Z</time>
      </trkpt>
      <trkpt lat="43.13218" lon="-0.64651">
        <ele>304.39</ele>
        <time>2017-03-05T08:50:46Z</time>
      </trkpt>
      <trkpt lat="43.13179" lon="-0.64651">
        <ele>307.76</ele>
        <time>2017-03-05T08:51:02Z</time>
      </trkpt>
      <trkpt lat="43.13152" lon="-0.64655">
        <ele>310.64</ele>
        <time>2017-03-05T08:51:13Z</time>
      </trkpt>
      <trkpt lat="43.13149" lon="-0.64657">
        <ele>310.64</ele>
        <time>2017-03-05T08:51:14Z</time>
      </trkpt>
      <trkpt lat="43.13138" lon="-0.64688">
        <ele>309.2</ele>
        <time>2017-03-05T08:51:24Z</time>
      </trkpt>
      <trkpt lat="43.13157" lon="-0.64707">
        <ele>307.76</ele>
        <time>2017-03-05T08:51:35Z</time>
      </trkpt>
      <trkpt lat="43.13163" lon="-0.64715">
        <ele>305.84</ele>
        <time>2017-03-05T08:51:41Z</time>
      </trkpt>
      <trkpt lat="43.13164" lon="-0.64717">
        <ele>305.36</ele>
        <time>2017-03-05T08:51:42Z</time>
      </trkpt>
      <trkpt lat="43.13164" lon="-0.64719">
        <ele>304.88</ele>
        <time>2017-03-05T08:51:43Z</time>
      </trkpt>
      <trkpt lat="43.13165" lon="-0.64721">
        <ele>304.39</ele>
        <time>2017-03-05T08:51:44Z</time>
      </trkpt>
      <trkpt lat="43.13165" lon="-0.64724">
        <ele>303.91</ele>
        <time>2017-03-05T08:51:45Z</time>
      </trkpt>
      <trkpt lat="43.13161" lon="-0.64756">
        <ele>313.05</ele>
        <time>2017-03-05T08:51:57Z</time>
      </trkpt>
      <trkpt lat="43.1314" lon="-0.64779">
        <ele>320.26</ele>
        <time>2017-03-05T08:52:13Z</time>
      </trkpt>
      <trkpt lat="43.13122" lon="-0.64795">
        <ele>322.66</ele>
        <time>2017-03-05T08:52:26Z</time>
      </trkpt>
      <trkpt lat="43.13121" lon="-0.64797">
        <ele>323.14</ele>
        <time>2017-03-05T08:52:27Z</time>
      </trkpt>
      <trkpt lat="43.1312" lon="-0.64798">
        <ele>323.62</ele>
        <time>2017-03-05T08:52:28Z</time>
      </trkpt>
      <trkpt lat="43.13119" lon="-0.64799">
        <ele>324.1</ele>
        <time>2017-03-05T08:52:29Z</time>
      </trkpt>
      <trkpt lat="43.13117" lon="-0.648">
        <ele>324.58</ele>
        <time>2017-03-05T08:52:30Z</time>
      </trkpt>
      <trkpt lat="43.13116" lon="-0.64801">
        <ele>325.06</ele>
        <time>2017-03-05T08:52:31Z</time>
      </trkpt>
      <trkpt lat="43.131" lon="-0.64818">
        <ele>331.79</ele>
        <time>2017-03-05T08:52:43Z</time>
      </trkpt>
      <trkpt lat="43.13099" lon="-0.64819">
        <ele>332.27</ele>
        <time>2017-03-05T08:52:44Z</time>
      </trkpt>
      <trkpt lat="43.13098" lon="-0.64821">
        <ele>332.75</ele>
        <time>2017-03-05T08:52:45Z</time>
      </trkpt>
      <trkpt lat="43.13097" lon="-0.64822">
        <ele>333.23</ele>
        <time>2017-03-05T08:52:46Z</time>
      </trkpt>
      <trkpt lat="43.13096" lon="-0.64824">
        <ele>333.71</ele>
        <time>2017-03-05T08:52:47Z</time>
      </trkpt>
      <trkpt lat="43.13095" lon="-0.64825">
        <ele>334.2</ele>
        <time>2017-03-05T08:52:48Z</time>
      </trkpt>
      <trkpt lat="43.13079" lon="-0.64843">
        <ele>339</ele>
        <time>2017-03-05T08:53:02Z</time>
      </trkpt>
      <trkpt lat="43.1307" lon="-0.64853">
        <ele>342.85</ele>
        <time>2017-03-05T08:53:10Z</time>
      </trkpt>
      <trkpt lat="43.13068" lon="-0.64854">
        <ele>343.33</ele>
        <time>2017-03-05T08:53:11Z</time>
      </trkpt>
      <trkpt lat="43.13067" lon="-0.64855">
        <ele>343.81</ele>
        <time>2017-03-05T08:53:12Z</time>
      </trkpt>
      <trkpt lat="43.13066" lon="-0.64857">
        <ele>344.29</ele>
        <time>2017-03-05T08:53:13Z</time>
      </trkpt>
      <trkpt lat="43.13065" lon="-0.64858">
        <ele>344.77</ele>
        <time>2017-03-05T08:53:14Z</time>
      </trkpt>
      <trkpt lat="43.13063" lon="-0.6486">
        <ele>344.77</ele>
        <time>2017-03-05T08:53:15Z</time>
      </trkpt>
      <trkpt lat="43.13061" lon="-0.64863">
        <ele>345.73</ele>
        <time>2017-03-05T08:53:16Z</time>
      </trkpt>
      <trkpt lat="43.13059" lon="-0.64864">
        <ele>346.21</ele>
        <time>2017-03-05T08:53:17Z</time>
      </trkpt>
      <trkpt lat="43.13058" lon="-0.64867">
        <ele>346.69</ele>
        <time>2017-03-05T08:53:18Z</time>
      </trkpt>
      <trkpt lat="43.13056" lon="-0.64869">
        <ele>347.17</ele>
        <time>2017-03-05T08:53:19Z</time>
      </trkpt>
      <trkpt lat="43.13055" lon="-0.64871">
        <ele>347.65</ele>
        <time>2017-03-05T08:53:20Z</time>
      </trkpt>
      <trkpt lat="43.13054" lon="-0.64873">
        <ele>347.65</ele>
        <time>2017-03-05T08:53:21Z</time>
      </trkpt>
      <trkpt lat="43.13053" lon="-0.64875">
        <ele>348.13</ele>
        <time>2017-03-05T08:53:22Z</time>
      </trkpt>
      <trkpt lat="43.13051" lon="-0.64877">
        <ele>348.62</ele>
        <time>2017-03-05T08:53:23Z</time>
      </trkpt>
      <trkpt lat="43.1303" lon="-0.64897">
        <ele>349.1</ele>
        <time>2017-03-05T08:53:37Z</time>
      </trkpt>
      <trkpt lat="43.13016" lon="-0.64913">
        <ele>348.62</ele>
        <time>2017-03-05T08:53:48Z</time>
      </trkpt>
      <trkpt lat="43.13014" lon="-0.64914">
        <ele>348.13</ele>
        <time>2017-03-05T08:53:49Z</time>
      </trkpt>
      <trkpt lat="43.13013" lon="-0.64916">
        <ele>348.13</ele>
        <time>2017-03-05T08:53:50Z</time>
      </trkpt>
      <trkpt lat="43.13012" lon="-0.64917">
        <ele>347.65</ele>
        <time>2017-03-05T08:53:51Z</time>
      </trkpt>
      <trkpt lat="43.12988" lon="-0.64942">
        <ele>347.17</ele>
        <time>2017-03-05T08:54:09Z</time>
      </trkpt>
      <trkpt lat="43.12968" lon="-0.64958">
        <ele>350.06</ele>
        <time>2017-03-05T08:54:24Z</time>
      </trkpt>
      <trkpt lat="43.12956" lon="-0.64973">
        <ele>355.83</ele>
        <time>2017-03-05T08:54:34Z</time>
      </trkpt>
      <trkpt lat="43.12955" lon="-0.64974">
        <ele>356.79</ele>
        <time>2017-03-05T08:54:35Z</time>
      </trkpt>
      <trkpt lat="43.12953" lon="-0.64975">
        <ele>357.75</ele>
        <time>2017-03-05T08:54:36Z</time>
      </trkpt>
      <trkpt lat="43.12952" lon="-0.64977">
        <ele>358.23</ele>
        <time>2017-03-05T08:54:37Z</time>
      </trkpt>
      <trkpt lat="43.1295" lon="-0.64978">
        <ele>358.71</ele>
        <time>2017-03-05T08:54:38Z</time>
      </trkpt>
      <trkpt lat="43.12934" lon="-0.64992">
        <ele>361.59</ele>
        <time>2017-03-05T08:54:49Z</time>
      </trkpt>
      <trkpt lat="43.12933" lon="-0.64992">
        <ele>362.07</ele>
        <time>2017-03-05T08:54:50Z</time>
      </trkpt>
      <trkpt lat="43.12931" lon="-0.64994">
        <ele>362.55</ele>
        <time>2017-03-05T08:54:51Z</time>
      </trkpt>
      <trkpt lat="43.1293" lon="-0.64994">
        <ele>363.04</ele>
        <time>2017-03-05T08:54:52Z</time>
      </trkpt>
      <trkpt lat="43.12928" lon="-0.64995">
        <ele>363.04</ele>
        <time>2017-03-05T08:54:53Z</time>
      </trkpt>
      <trkpt lat="43.12926" lon="-0.64996">
        <ele>362.55</ele>
        <time>2017-03-05T08:54:54Z</time>
      </trkpt>
      <trkpt lat="43.12923" lon="-0.64997">
        <ele>362.55</ele>
        <time>2017-03-05T08:54:55Z</time>
      </trkpt>
      <trkpt lat="43.12921" lon="-0.64998">
        <ele>362.07</ele>
        <time>2017-03-05T08:54:56Z</time>
      </trkpt>
      <trkpt lat="43.12918" lon="-0.64999">
        <ele>361.59</ele>
        <time>2017-03-05T08:54:57Z</time>
      </trkpt>
      <trkpt lat="43.12898" lon="-0.65009">
        <ele>361.11</ele>
        <time>2017-03-05T08:55:08Z</time>
      </trkpt>
      <trkpt lat="43.12896" lon="-0.65009">
        <ele>360.63</ele>
        <time>2017-03-05T08:55:09Z</time>
      </trkpt>
      <trkpt lat="43.12876" lon="-0.6502">
        <ele>363.04</ele>
        <time>2017-03-05T08:55:23Z</time>
      </trkpt>
      <trkpt lat="43.12864" lon="-0.65028">
        <ele>366.4</ele>
        <time>2017-03-05T08:55:33Z</time>
      </trkpt>
      <trkpt lat="43.12862" lon="-0.65029">
        <ele>366.4</ele>
        <time>2017-03-05T08:55:34Z</time>
      </trkpt>
      <trkpt lat="43.12861" lon="-0.6503">
        <ele>366.4</ele>
        <time>2017-03-05T08:55:35Z</time>
      </trkpt>
      <trkpt lat="43.12859" lon="-0.65031">
        <ele>366.4</ele>
        <time>2017-03-05T08:55:36Z</time>
      </trkpt>
      <trkpt lat="43.12858" lon="-0.65032">
        <ele>366.4</ele>
        <time>2017-03-05T08:55:37Z</time>
      </trkpt>
      <trkpt lat="43.1283" lon="-0.65047">
        <ele>368.32</ele>
        <time>2017-03-05T08:55:55Z</time>
      </trkpt>
      <trkpt lat="43.12804" lon="-0.65054">
        <ele>366.88</ele>
        <time>2017-03-05T08:56:10Z</time>
      </trkpt>
      <trkpt lat="43.1278" lon="-0.65059">
        <ele>365.44</ele>
        <time>2017-03-05T08:56:24Z</time>
      </trkpt>
      <trkpt lat="43.12752" lon="-0.65067">
        <ele>370.73</ele>
        <time>2017-03-05T08:56:39Z</time>
      </trkpt>
      <trkpt lat="43.12723" lon="-0.65074">
        <ele>374.09</ele>
        <time>2017-03-05T08:56:54Z</time>
      </trkpt>
      <trkpt lat="43.12697" lon="-0.65083">
        <ele>377.94</ele>
        <time>2017-03-05T08:57:09Z</time>
      </trkpt>
      <trkpt lat="43.12677" lon="-0.6509">
        <ele>370.73</ele>
        <time>2017-03-05T08:57:18Z</time>
      </trkpt>
      <trkpt lat="43.12649" lon="-0.65101">
        <ele>365.44</ele>
        <time>2017-03-05T08:57:30Z</time>
      </trkpt>
      <trkpt lat="43.12626" lon="-0.65105">
        <ele>363.52</ele>
        <time>2017-03-05T08:57:42Z</time>
      </trkpt>
      <trkpt lat="43.12601" lon="-0.65117">
        <ele>366.4</ele>
        <time>2017-03-05T08:57:57Z</time>
      </trkpt>
      <trkpt lat="43.12588" lon="-0.65124">
        <ele>367.36</ele>
        <time>2017-03-05T08:58:06Z</time>
      </trkpt>
      <trkpt lat="43.12586" lon="-0.65124">
        <ele>366.88</ele>
        <time>2017-03-05T08:58:07Z</time>
      </trkpt>
      <trkpt lat="43.12585" lon="-0.65124">
        <ele>366.88</ele>
        <time>2017-03-05T08:58:08Z</time>
      </trkpt>
      <trkpt lat="43.12583" lon="-0.65125">
        <ele>366.88</ele>
        <time>2017-03-05T08:58:09Z</time>
      </trkpt>
      <trkpt lat="43.12582" lon="-0.65125">
        <ele>366.88</ele>
        <time>2017-03-05T08:58:10Z</time>
      </trkpt>
      <trkpt lat="43.12581" lon="-0.65125">
        <ele>366.4</ele>
        <time>2017-03-05T08:58:11Z</time>
      </trkpt>
      <trkpt lat="43.12568" lon="-0.65126">
        <ele>366.4</ele>
        <time>2017-03-05T08:58:22Z</time>
      </trkpt>
      <trkpt lat="43.12537" lon="-0.65135">
        <ele>376.97</ele>
        <time>2017-03-05T08:58:38Z</time>
      </trkpt>
      <trkpt lat="43.12513" lon="-0.65139">
        <ele>382.74</ele>
        <time>2017-03-05T08:58:55Z</time>
      </trkpt>
      <trkpt lat="43.12486" lon="-0.65141">
        <ele>389.95</ele>
        <time>2017-03-05T08:59:14Z</time>
      </trkpt>
      <trkpt lat="43.12463" lon="-0.65146">
        <ele>394.76</ele>
        <time>2017-03-05T08:59:29Z</time>
      </trkpt>
      <trkpt lat="43.12437" lon="-0.65153">
        <ele>393.32</ele>
        <time>2017-03-05T08:59:45Z</time>
      </trkpt>
      <trkpt lat="43.12418" lon="-0.65161">
        <ele>393.8</ele>
        <time>2017-03-05T08:59:59Z</time>
      </trkpt>
      <trkpt lat="43.12418" lon="-0.65162">
        <ele>393.8</ele>
        <time>2017-03-05T09:00:00Z</time>
      </trkpt>
      <trkpt lat="43.12416" lon="-0.65164">
        <ele>394.76</ele>
        <time>2017-03-05T09:00:01Z</time>
      </trkpt>
      <trkpt lat="43.12415" lon="-0.65167">
        <ele>395.24</ele>
        <time>2017-03-05T09:00:02Z</time>
      </trkpt>
      <trkpt lat="43.12422" lon="-0.65199">
        <ele>394.76</ele>
        <time>2017-03-05T09:00:15Z</time>
      </trkpt>
      <trkpt lat="43.12428" lon="-0.65209">
        <ele>390.43</ele>
        <time>2017-03-05T09:00:23Z</time>
      </trkpt>
      <trkpt lat="43.12429" lon="-0.65211">
        <ele>390.43</ele>
        <time>2017-03-05T09:00:24Z</time>
      </trkpt>
      <trkpt lat="43.12431" lon="-0.65213">
        <ele>389.95</ele>
        <time>2017-03-05T09:00:25Z</time>
      </trkpt>
      <trkpt lat="43.12432" lon="-0.65215">
        <ele>389.95</ele>
        <time>2017-03-05T09:00:26Z</time>
      </trkpt>
      <trkpt lat="43.12433" lon="-0.65216">
        <ele>389.95</ele>
        <time>2017-03-05T09:00:27Z</time>
      </trkpt>
      <trkpt lat="43.12435" lon="-0.65218">
        <ele>390.43</ele>
        <time>2017-03-05T09:00:28Z</time>
      </trkpt>
      <trkpt lat="43.12436" lon="-0.65219">
        <ele>390.43</ele>
        <time>2017-03-05T09:00:29Z</time>
      </trkpt>
      <trkpt lat="43.12437" lon="-0.65221">
        <ele>390.43</ele>
        <time>2017-03-05T09:00:30Z</time>
      </trkpt>
      <trkpt lat="43.12439" lon="-0.65222">
        <ele>390.91</ele>
        <time>2017-03-05T09:00:31Z</time>
      </trkpt>
      <trkpt lat="43.12441" lon="-0.65224">
        <ele>390.91</ele>
        <time>2017-03-05T09:00:32Z</time>
      </trkpt>
      <trkpt lat="43.12443" lon="-0.65226">
        <ele>390.91</ele>
        <time>2017-03-05T09:00:33Z</time>
      </trkpt>
      <trkpt lat="43.12445" lon="-0.65227">
        <ele>390.91</ele>
        <time>2017-03-05T09:00:34Z</time>
      </trkpt>
      <trkpt lat="43.12478" lon="-0.65269">
        <ele>394.28</ele>
        <time>2017-03-05T09:00:48Z</time>
      </trkpt>
      <trkpt lat="43.12481" lon="-0.65282">
        <ele>394.76</ele>
        <time>2017-03-05T09:00:50Z</time>
      </trkpt>
      <trkpt lat="43.12483" lon="-0.65289">
        <ele>394.76</ele>
        <time>2017-03-05T09:00:51Z</time>
      </trkpt>
      <trkpt lat="43.12484" lon="-0.65297">
        <ele>394.76</ele>
        <time>2017-03-05T09:00:52Z</time>
      </trkpt>
      <trkpt lat="43.12486" lon="-0.65305">
        <ele>394.76</ele>
        <time>2017-03-05T09:00:53Z</time>
      </trkpt>
      <trkpt lat="43.12489" lon="-0.65312">
        <ele>394.76</ele>
        <time>2017-03-05T09:00:54Z</time>
      </trkpt>
      <trkpt lat="43.12493" lon="-0.65317">
        <ele>394.76</ele>
        <time>2017-03-05T09:00:55Z</time>
      </trkpt>
      <trkpt lat="43.12497" lon="-0.6532">
        <ele>394.76</ele>
        <time>2017-03-05T09:00:56Z</time>
      </trkpt>
      <trkpt lat="43.125" lon="-0.65323">
        <ele>394.76</ele>
        <time>2017-03-05T09:00:57Z</time>
      </trkpt>
      <trkpt lat="43.12504" lon="-0.65325">
        <ele>395.24</ele>
        <time>2017-03-05T09:00:58Z</time>
      </trkpt>
      <trkpt lat="43.12528" lon="-0.65365">
        <ele>399.57</ele>
        <time>2017-03-05T09:01:09Z</time>
      </trkpt>
      <trkpt lat="43.12529" lon="-0.65371">
        <ele>399.57</ele>
        <time>2017-03-05T09:01:10Z</time>
      </trkpt>
      <trkpt lat="43.12534" lon="-0.65389">
        <ele>400.05</ele>
        <time>2017-03-05T09:01:13Z</time>
      </trkpt>
      <trkpt lat="43.12536" lon="-0.65394">
        <ele>400.05</ele>
        <time>2017-03-05T09:01:14Z</time>
      </trkpt>
      <trkpt lat="43.12539" lon="-0.65397">
        <ele>400.53</ele>
        <time>2017-03-05T09:01:15Z</time>
      </trkpt>
      <trkpt lat="43.12542" lon="-0.654">
        <ele>401.01</ele>
        <time>2017-03-05T09:01:16Z</time>
      </trkpt>
      <trkpt lat="43.12546" lon="-0.65402">
        <ele>401.01</ele>
        <time>2017-03-05T09:01:17Z</time>
      </trkpt>
      <trkpt lat="43.1255" lon="-0.65403">
        <ele>401.97</ele>
        <time>2017-03-05T09:01:18Z</time>
      </trkpt>
      <trkpt lat="43.12596" lon="-0.65429">
        <ele>408.7</ele>
        <time>2017-03-05T09:01:32Z</time>
      </trkpt>
      <trkpt lat="43.12611" lon="-0.65473">
        <ele>410.14</ele>
        <time>2017-03-05T09:01:46Z</time>
      </trkpt>
      <trkpt lat="43.12613" lon="-0.65479">
        <ele>411.1</ele>
        <time>2017-03-05T09:01:48Z</time>
      </trkpt>
      <trkpt lat="43.12613" lon="-0.65481">
        <ele>411.58</ele>
        <time>2017-03-05T09:01:49Z</time>
      </trkpt>
      <trkpt lat="43.12614" lon="-0.65483">
        <ele>412.06</ele>
        <time>2017-03-05T09:01:50Z</time>
      </trkpt>
      <trkpt lat="43.12616" lon="-0.65485">
        <ele>412.54</ele>
        <time>2017-03-05T09:01:51Z</time>
      </trkpt>
      <trkpt lat="43.12617" lon="-0.65487">
        <ele>413.02</ele>
        <time>2017-03-05T09:01:52Z</time>
      </trkpt>
      <trkpt lat="43.12644" lon="-0.65521">
        <ele>416.87</ele>
        <time>2017-03-05T09:02:06Z</time>
      </trkpt>
      <trkpt lat="43.12651" lon="-0.65557">
        <ele>417.83</ele>
        <time>2017-03-05T09:02:17Z</time>
      </trkpt>
      <trkpt lat="43.12652" lon="-0.65591">
        <ele>415.91</ele>
        <time>2017-03-05T09:02:29Z</time>
      </trkpt>
      <trkpt lat="43.12652" lon="-0.65592">
        <ele>415.91</ele>
        <time>2017-03-05T09:02:30Z</time>
      </trkpt>
      <trkpt lat="43.12651" lon="-0.65595">
        <ele>415.91</ele>
        <time>2017-03-05T09:02:31Z</time>
      </trkpt>
      <trkpt lat="43.12651" lon="-0.65597">
        <ele>415.43</ele>
        <time>2017-03-05T09:02:32Z</time>
      </trkpt>
      <trkpt lat="43.12651" lon="-0.65599">
        <ele>415.43</ele>
        <time>2017-03-05T09:02:33Z</time>
      </trkpt>
      <trkpt lat="43.12651" lon="-0.656">
        <ele>415.43</ele>
        <time>2017-03-05T09:02:34Z</time>
      </trkpt>
      <trkpt lat="43.12652" lon="-0.65601">
        <ele>415.91</ele>
        <time>2017-03-05T09:02:35Z</time>
      </trkpt>
      <trkpt lat="43.12655" lon="-0.65597">
        <ele>416.39</ele>
        <time>2017-03-05T09:02:38Z</time>
      </trkpt>
      <trkpt lat="43.12662" lon="-0.65578">
        <ele>417.83</ele>
        <time>2017-03-05T09:02:48Z</time>
      </trkpt>
      <trkpt lat="43.12664" lon="-0.65571">
        <ele>416.39</ele>
        <time>2017-03-05T09:02:51Z</time>
      </trkpt>
      <trkpt lat="43.12665" lon="-0.65564">
        <ele>414.95</ele>
        <time>2017-03-05T09:02:55Z</time>
      </trkpt>
      <trkpt lat="43.1267" lon="-0.65538">
        <ele>407.26</ele>
        <time>2017-03-05T09:03:06Z</time>
      </trkpt>
      <trkpt lat="43.12671" lon="-0.65535">
        <ele>404.85</ele>
        <time>2017-03-05T09:03:10Z</time>
      </trkpt>
      <trkpt lat="43.12676" lon="-0.65517">
        <ele>401.97</ele>
        <time>2017-03-05T09:03:17Z</time>
      </trkpt>
      <trkpt lat="43.12677" lon="-0.6551">
        <ele>401.49</ele>
        <time>2017-03-05T09:03:19Z</time>
      </trkpt>
      <trkpt lat="43.12681" lon="-0.65482">
        <ele>397.16</ele>
        <time>2017-03-05T09:03:28Z</time>
      </trkpt>
      <trkpt lat="43.12687" lon="-0.65471">
        <ele>395.24</ele>
        <time>2017-03-05T09:03:33Z</time>
      </trkpt>
      <trkpt lat="43.12706" lon="-0.65476">
        <ele>392.36</ele>
        <time>2017-03-05T09:03:43Z</time>
      </trkpt>
      <trkpt lat="43.12738" lon="-0.65462">
        <ele>388.51</ele>
        <time>2017-03-05T09:03:52Z</time>
      </trkpt>
      <trkpt lat="43.12746" lon="-0.65459">
        <ele>387.07</ele>
        <time>2017-03-05T09:03:54Z</time>
      </trkpt>
      <trkpt lat="43.12772" lon="-0.65434">
        <ele>383.7</ele>
        <time>2017-03-05T09:04:02Z</time>
      </trkpt>
      <trkpt lat="43.12795" lon="-0.65421">
        <ele>381.78</ele>
        <time>2017-03-05T09:04:08Z</time>
      </trkpt>
      <trkpt lat="43.12814" lon="-0.65401">
        <ele>380.82</ele>
        <time>2017-03-05T09:04:13Z</time>
      </trkpt>
      <trkpt lat="43.12852" lon="-0.65376">
        <ele>376.49</ele>
        <time>2017-03-05T09:04:24Z</time>
      </trkpt>
      <trkpt lat="43.12887" lon="-0.65366">
        <ele>368.8</ele>
        <time>2017-03-05T09:04:33Z</time>
      </trkpt>
      <trkpt lat="43.12901" lon="-0.65356">
        <ele>363.04</ele>
        <time>2017-03-05T09:04:40Z</time>
      </trkpt>
      <trkpt lat="43.12911" lon="-0.65355">
        <ele>360.63</ele>
        <time>2017-03-05T09:04:44Z</time>
      </trkpt>
      <trkpt lat="43.12938" lon="-0.65349">
        <ele>355.34</ele>
        <time>2017-03-05T09:04:55Z</time>
      </trkpt>
      <trkpt lat="43.12946" lon="-0.65343">
        <ele>352.46</ele>
        <time>2017-03-05T09:04:58Z</time>
      </trkpt>
      <trkpt lat="43.12974" lon="-0.65321">
        <ele>345.25</ele>
        <time>2017-03-05T09:05:07Z</time>
      </trkpt>
      <trkpt lat="43.12978" lon="-0.6532">
        <ele>344.29</ele>
        <time>2017-03-05T09:05:08Z</time>
      </trkpt>
      <trkpt lat="43.13005" lon="-0.65312">
        <ele>339.48</ele>
        <time>2017-03-05T09:05:19Z</time>
      </trkpt>
      <trkpt lat="43.13021" lon="-0.65319">
        <ele>338.52</ele>
        <time>2017-03-05T09:05:25Z</time>
      </trkpt>
      <trkpt lat="43.13034" lon="-0.65354">
        <ele>332.75</ele>
        <time>2017-03-05T09:05:34Z</time>
      </trkpt>
      <trkpt lat="43.13042" lon="-0.65361">
        <ele>330.83</ele>
        <time>2017-03-05T09:05:38Z</time>
      </trkpt>
      <trkpt lat="43.1305" lon="-0.65361">
        <ele>329.87</ele>
        <time>2017-03-05T09:05:41Z</time>
      </trkpt>
      <trkpt lat="43.13057" lon="-0.65356">
        <ele>326.5</ele>
        <time>2017-03-05T09:05:45Z</time>
      </trkpt>
      <trkpt lat="43.13076" lon="-0.65342">
        <ele>325.06</ele>
        <time>2017-03-05T09:05:52Z</time>
      </trkpt>
      <trkpt lat="43.13089" lon="-0.65339">
        <ele>325.54</ele>
        <time>2017-03-05T09:05:56Z</time>
      </trkpt>
      <trkpt lat="43.13104" lon="-0.65345">
        <ele>327.95</ele>
        <time>2017-03-05T09:06:01Z</time>
      </trkpt>
      <trkpt lat="43.13112" lon="-0.65341">
        <ele>328.43</ele>
        <time>2017-03-05T09:06:03Z</time>
      </trkpt>
      <trkpt lat="43.13135" lon="-0.65334">
        <ele>325.54</ele>
        <time>2017-03-05T09:06:11Z</time>
      </trkpt>
      <trkpt lat="43.1314" lon="-0.65326">
        <ele>324.1</ele>
        <time>2017-03-05T09:06:14Z</time>
      </trkpt>
      <trkpt lat="43.13156" lon="-0.6534">
        <ele>320.74</ele>
        <time>2017-03-05T09:06:25Z</time>
      </trkpt>
      <trkpt lat="43.13162" lon="-0.65338">
        <ele>321.7</ele>
        <time>2017-03-05T09:06:28Z</time>
      </trkpt>
      <trkpt lat="43.1318" lon="-0.65325">
        <ele>322.18</ele>
        <time>2017-03-05T09:06:34Z</time>
      </trkpt>
      <trkpt lat="43.13192" lon="-0.65299">
        <ele>321.7</ele>
        <time>2017-03-05T09:06:39Z</time>
      </trkpt>
      <trkpt lat="43.13197" lon="-0.65287">
        <ele>320.74</ele>
        <time>2017-03-05T09:06:41Z</time>
      </trkpt>
      <trkpt lat="43.13219" lon="-0.65248">
        <ele>316.89</ele>
        <time>2017-03-05T09:06:51Z</time>
      </trkpt>
      <trkpt lat="43.1324" lon="-0.65225">
        <ele>311.6</ele>
        <time>2017-03-05T09:07:00Z</time>
      </trkpt>
      <trkpt lat="43.13242" lon="-0.65223">
        <ele>311.12</ele>
        <time>2017-03-05T09:07:01Z</time>
      </trkpt>
      <trkpt lat="43.13244" lon="-0.65221">
        <ele>311.12</ele>
        <time>2017-03-05T09:07:02Z</time>
      </trkpt>
      <trkpt lat="43.13246" lon="-0.65219">
        <ele>310.64</ele>
        <time>2017-03-05T09:07:03Z</time>
      </trkpt>
      <trkpt lat="43.13247" lon="-0.65215">
        <ele>310.16</ele>
        <time>2017-03-05T09:07:04Z</time>
      </trkpt>
      <trkpt lat="43.13248" lon="-0.65212">
        <ele>309.68</ele>
        <time>2017-03-05T09:07:05Z</time>
      </trkpt>
      <trkpt lat="43.13263" lon="-0.65151">
        <ele>308.24</ele>
        <time>2017-03-05T09:07:16Z</time>
      </trkpt>
      <trkpt lat="43.1327" lon="-0.65124">
        <ele>308.24</ele>
        <time>2017-03-05T09:07:20Z</time>
      </trkpt>
      <trkpt lat="43.13288" lon="-0.65024">
        <ele>304.88</ele>
        <time>2017-03-05T09:07:33Z</time>
      </trkpt>
      <trkpt lat="43.13277" lon="-0.64928">
        <ele>302.95</ele>
        <time>2017-03-05T09:07:45Z</time>
      </trkpt>
      <trkpt lat="43.13271" lon="-0.64909">
        <ele>302.47</ele>
        <time>2017-03-05T09:07:48Z</time>
      </trkpt>
      <trkpt lat="43.13262" lon="-0.64866">
        <ele>304.39</ele>
        <time>2017-03-05T09:07:55Z</time>
      </trkpt>
      <trkpt lat="43.13261" lon="-0.64859">
        <ele>304.88</ele>
        <time>2017-03-05T09:07:56Z</time>
      </trkpt>
      <trkpt lat="43.13261" lon="-0.64853">
        <ele>305.84</ele>
        <time>2017-03-05T09:07:57Z</time>
      </trkpt>
      <trkpt lat="43.1326" lon="-0.64846">
        <ele>306.32</ele>
        <time>2017-03-05T09:07:58Z</time>
      </trkpt>
      <trkpt lat="43.1326" lon="-0.6484">
        <ele>307.28</ele>
        <time>2017-03-05T09:07:59Z</time>
      </trkpt>
      <trkpt lat="43.13259" lon="-0.64805">
        <ele>310.16</ele>
        <time>2017-03-05T09:08:04Z</time>
      </trkpt>
      <trkpt lat="43.1326" lon="-0.64798">
        <ele>310.16</ele>
        <time>2017-03-05T09:08:05Z</time>
      </trkpt>
      <trkpt lat="43.13261" lon="-0.64791">
        <ele>310.16</ele>
        <time>2017-03-05T09:08:06Z</time>
      </trkpt>
      <trkpt lat="43.13264" lon="-0.64778">
        <ele>310.16</ele>
        <time>2017-03-05T09:08:08Z</time>
      </trkpt>
      <trkpt lat="43.13265" lon="-0.64772">
        <ele>310.16</ele>
        <time>2017-03-05T09:08:09Z</time>
      </trkpt>
      <trkpt lat="43.13269" lon="-0.6476">
        <ele>310.64</ele>
        <time>2017-03-05T09:08:11Z</time>
      </trkpt>
      <trkpt lat="43.13277" lon="-0.64743">
        <ele>310.16</ele>
        <time>2017-03-05T09:08:14Z</time>
      </trkpt>
      <trkpt lat="43.13284" lon="-0.64733">
        <ele>310.16</ele>
        <time>2017-03-05T09:08:16Z</time>
      </trkpt>
      <trkpt lat="43.13288" lon="-0.64729">
        <ele>310.16</ele>
        <time>2017-03-05T09:08:17Z</time>
      </trkpt>
      <trkpt lat="43.13291" lon="-0.64725">
        <ele>309.68</ele>
        <time>2017-03-05T09:08:18Z</time>
      </trkpt>
      <trkpt lat="43.13295" lon="-0.64721">
        <ele>309.68</ele>
        <time>2017-03-05T09:08:19Z</time>
      </trkpt>
      <trkpt lat="43.13299" lon="-0.64718">
        <ele>309.2</ele>
        <time>2017-03-05T09:08:20Z</time>
      </trkpt>
      <trkpt lat="43.13302" lon="-0.64715">
        <ele>309.2</ele>
        <time>2017-03-05T09:08:21Z</time>
      </trkpt>
      <trkpt lat="43.13306" lon="-0.64711">
        <ele>309.68</ele>
        <time>2017-03-05T09:08:22Z</time>
      </trkpt>
      <trkpt lat="43.13315" lon="-0.64699">
        <ele>309.68</ele>
        <time>2017-03-05T09:08:25Z</time>
      </trkpt>
      <trkpt lat="43.13318" lon="-0.64694">
        <ele>310.16</ele>
        <time>2017-03-05T09:08:26Z</time>
      </trkpt>
      <trkpt lat="43.13323" lon="-0.64683">
        <ele>309.68</ele>
        <time>2017-03-05T09:08:28Z</time>
      </trkpt>
      <trkpt lat="43.13325" lon="-0.64678">
        <ele>309.2</ele>
        <time>2017-03-05T09:08:29Z</time>
      </trkpt>
      <trkpt lat="43.13327" lon="-0.64673">
        <ele>308.72</ele>
        <time>2017-03-05T09:08:30Z</time>
      </trkpt>
      <trkpt lat="43.13328" lon="-0.64668">
        <ele>308.72</ele>
        <time>2017-03-05T09:08:31Z</time>
      </trkpt>
      <trkpt lat="43.13328" lon="-0.64664">
        <ele>308.24</ele>
        <time>2017-03-05T09:08:32Z</time>
      </trkpt>
      <trkpt lat="43.13328" lon="-0.64661">
        <ele>308.24</ele>
        <time>2017-03-05T09:08:33Z</time>
      </trkpt>
      <trkpt lat="43.13327" lon="-0.64659">
        <ele>308.72</ele>
        <time>2017-03-05T09:08:34Z</time>
      </trkpt>
      <trkpt lat="43.13326" lon="-0.64657">
        <ele>308.24</ele>
        <time>2017-03-05T09:08:35Z</time>
      </trkpt>
      <trkpt lat="43.13324" lon="-0.64652">
        <ele>304.39</ele>
        <time>2017-03-05T09:08:46Z</time>
      </trkpt>
      <trkpt lat="43.13325" lon="-0.64648">
        <ele>301.03</ele>
        <time>2017-03-05T09:09:13Z</time>
      </trkpt>
      <trkpt lat="43.13329" lon="-0.64644">
        <ele>302.47</ele>
        <time>2017-03-05T09:09:47Z</time>
      </trkpt>
      <trkpt lat="43.13329" lon="-0.64645">
        <ele>304.39</ele>
        <time>2017-03-05T09:10:17Z</time>
      </trkpt>
      <trkpt lat="43.13325" lon="-0.64642">
        <ele>305.84</ele>
        <time>2017-03-05T09:10:52Z</time>
      </trkpt>
      <trkpt lat="43.13331" lon="-0.64649">
        <ele>308.72</ele>
        <time>2017-03-05T09:11:26Z</time>
      </trkpt>
      <trkpt lat="43.1333" lon="-0.64645">
        <ele>307.28</ele>
        <time>2017-03-05T09:12:01Z</time>
      </trkpt>
      <trkpt lat="43.13328" lon="-0.64642">
        <ele>308.24</ele>
        <time>2017-03-05T09:12:40Z</time>
      </trkpt>
      <trkpt lat="43.13328" lon="-0.64645">
        <ele>306.8</ele>
        <time>2017-03-05T09:13:17Z</time>
      </trkpt>
      <trkpt lat="43.13333" lon="-0.64643">
        <ele>299.11</ele>
        <time>2017-03-05T09:14:00Z</time>
      </trkpt>
      <trkpt lat="43.13337" lon="-0.64638">
        <ele>306.32</ele>
        <time>2017-03-05T09:14:31Z</time>
      </trkpt>
      <trkpt lat="43.1334" lon="-0.6464">
        <ele>306.8</ele>
        <time>2017-03-05T09:14:35Z</time>
      </trkpt>
      <trkpt lat="43.13341" lon="-0.6464">
        <ele>306.8</ele>
        <time>2017-03-05T09:14:36Z</time>
      </trkpt>
      <trkpt lat="43.13343" lon="-0.64637">
        <ele>305.84</ele>
        <time>2017-03-05T09:14:38Z</time>
      </trkpt>
      <trkpt lat="43.13341" lon="-0.64633">
        <ele>304.88</ele>
        <time>2017-03-05T09:14:39Z</time>
      </trkpt>
      <trkpt lat="43.13339" lon="-0.6463">
        <ele>304.39</ele>
        <time>2017-03-05T09:14:40Z</time>
      </trkpt>
      <trkpt lat="43.13338" lon="-0.64626">
        <ele>304.39</ele>
        <time>2017-03-05T09:14:41Z</time>
      </trkpt>
      <trkpt lat="43.13337" lon="-0.64621">
        <ele>304.39</ele>
        <time>2017-03-05T09:14:42Z</time>
      </trkpt>
      <trkpt lat="43.13337" lon="-0.64617">
        <ele>304.39</ele>
        <time>2017-03-05T09:14:43Z</time>
      </trkpt>
      <trkpt lat="43.13335" lon="-0.64542">
        <ele>303.43</ele>
        <time>2017-03-05T09:14:55Z</time>
      </trkpt>
      <trkpt lat="43.13334" lon="-0.64479">
        <ele>301.03</ele>
        <time>2017-03-05T09:15:03Z</time>
      </trkpt>
      <trkpt lat="43.13334" lon="-0.64469">
        <ele>300.55</ele>
        <time>2017-03-05T09:15:04Z</time>
      </trkpt>
      <trkpt lat="43.13336" lon="-0.64439">
        <ele>298.63</ele>
        <time>2017-03-05T09:15:07Z</time>
      </trkpt>
      <trkpt lat="43.1336" lon="-0.64338">
        <ele>293.82</ele>
        <time>2017-03-05T09:15:18Z</time>
      </trkpt>
      <trkpt lat="43.13361" lon="-0.6433">
        <ele>293.82</ele>
        <time>2017-03-05T09:15:19Z</time>
      </trkpt>
      <trkpt lat="43.13362" lon="-0.64315">
        <ele>293.82</ele>
        <time>2017-03-05T09:15:21Z</time>
      </trkpt>
      <trkpt lat="43.13362" lon="-0.64308">
        <ele>293.82</ele>
        <time>2017-03-05T09:15:22Z</time>
      </trkpt>
      <trkpt lat="43.1336" lon="-0.64281">
        <ele>295.26</ele>
        <time>2017-03-05T09:15:26Z</time>
      </trkpt>
      <trkpt lat="43.13357" lon="-0.64252">
        <ele>295.26</ele>
        <time>2017-03-05T09:15:31Z</time>
      </trkpt>
      <trkpt lat="43.13357" lon="-0.64246">
        <ele>295.26</ele>
        <time>2017-03-05T09:15:32Z</time>
      </trkpt>
      <trkpt lat="43.13358" lon="-0.64239">
        <ele>294.78</ele>
        <time>2017-03-05T09:15:33Z</time>
      </trkpt>
      <trkpt lat="43.13358" lon="-0.64233">
        <ele>294.78</ele>
        <time>2017-03-05T09:15:34Z</time>
      </trkpt>
      <trkpt lat="43.13359" lon="-0.64228">
        <ele>295.26</ele>
        <time>2017-03-05T09:15:35Z</time>
      </trkpt>
      <trkpt lat="43.13383" lon="-0.64171">
        <ele>303.43</ele>
        <time>2017-03-05T09:15:47Z</time>
      </trkpt>
      <trkpt lat="43.13386" lon="-0.64165">
        <ele>302.95</ele>
        <time>2017-03-05T09:15:48Z</time>
      </trkpt>
      <trkpt lat="43.13423" lon="-0.64083">
        <ele>298.15</ele>
        <time>2017-03-05T09:16:01Z</time>
      </trkpt>
      <trkpt lat="43.13427" lon="-0.64055">
        <ele>296.7</ele>
        <time>2017-03-05T09:16:05Z</time>
      </trkpt>
      <trkpt lat="43.13431" lon="-0.64025">
        <ele>294.78</ele>
        <time>2017-03-05T09:16:09Z</time>
      </trkpt>
      <trkpt lat="43.13439" lon="-0.63995">
        <ele>293.34</ele>
        <time>2017-03-05T09:16:13Z</time>
      </trkpt>
      <trkpt lat="43.13445" lon="-0.63981">
        <ele>292.86</ele>
        <time>2017-03-05T09:16:15Z</time>
      </trkpt>
      <trkpt lat="43.13448" lon="-0.63975">
        <ele>292.38</ele>
        <time>2017-03-05T09:16:16Z</time>
      </trkpt>
      <trkpt lat="43.13456" lon="-0.63963">
        <ele>291.42</ele>
        <time>2017-03-05T09:16:18Z</time>
      </trkpt>
      <trkpt lat="43.13461" lon="-0.63959">
        <ele>291.42</ele>
        <time>2017-03-05T09:16:19Z</time>
      </trkpt>
      <trkpt lat="43.13472" lon="-0.63953">
        <ele>290.46</ele>
        <time>2017-03-05T09:16:21Z</time>
      </trkpt>
      <trkpt lat="43.13477" lon="-0.63952">
        <ele>290.46</ele>
        <time>2017-03-05T09:16:22Z</time>
      </trkpt>
      <trkpt lat="43.13484" lon="-0.63953">
        <ele>289.97</ele>
        <time>2017-03-05T09:16:23Z</time>
      </trkpt>
      <trkpt lat="43.13532" lon="-0.63962">
        <ele>291.42</ele>
        <time>2017-03-05T09:16:31Z</time>
      </trkpt>
      <trkpt lat="43.13561" lon="-0.63958">
        <ele>291.9</ele>
        <time>2017-03-05T09:16:36Z</time>
      </trkpt>
      <trkpt lat="43.13576" lon="-0.63949">
        <ele>292.38</ele>
        <time>2017-03-05T09:16:39Z</time>
      </trkpt>
      <trkpt lat="43.13581" lon="-0.63945">
        <ele>292.38</ele>
        <time>2017-03-05T09:16:40Z</time>
      </trkpt>
      <trkpt lat="43.13585" lon="-0.6394">
        <ele>291.9</ele>
        <time>2017-03-05T09:16:41Z</time>
      </trkpt>
      <trkpt lat="43.13589" lon="-0.63935">
        <ele>291.9</ele>
        <time>2017-03-05T09:16:42Z</time>
      </trkpt>
      <trkpt lat="43.13592" lon="-0.6393">
        <ele>291.9</ele>
        <time>2017-03-05T09:16:43Z</time>
      </trkpt>
      <trkpt lat="43.13595" lon="-0.63924">
        <ele>291.42</ele>
        <time>2017-03-05T09:16:44Z</time>
      </trkpt>
      <trkpt lat="43.13597" lon="-0.63918">
        <ele>291.9</ele>
        <time>2017-03-05T09:16:45Z</time>
      </trkpt>
      <trkpt lat="43.13599" lon="-0.63911">
        <ele>291.42</ele>
        <time>2017-03-05T09:16:46Z</time>
      </trkpt>
      <trkpt lat="43.13601" lon="-0.63904">
        <ele>291.42</ele>
        <time>2017-03-05T09:16:47Z</time>
      </trkpt>
      <trkpt lat="43.13603" lon="-0.63889">
        <ele>290.94</ele>
        <time>2017-03-05T09:16:49Z</time>
      </trkpt>
      <trkpt lat="43.13609" lon="-0.63801">
        <ele>287.09</ele>
        <time>2017-03-05T09:17:01Z</time>
      </trkpt>
      <trkpt lat="43.13611" lon="-0.63779">
        <ele>286.13</ele>
        <time>2017-03-05T09:17:04Z</time>
      </trkpt>
      <trkpt lat="43.13624" lon="-0.63669">
        <ele>281.8</ele>
        <time>2017-03-05T09:17:17Z</time>
      </trkpt>
      <trkpt lat="43.13641" lon="-0.63617">
        <ele>282.28</ele>
        <time>2017-03-05T09:17:25Z</time>
      </trkpt>
      <trkpt lat="43.13643" lon="-0.63604">
        <ele>282.28</ele>
        <time>2017-03-05T09:17:27Z</time>
      </trkpt>
      <trkpt lat="43.13643" lon="-0.63597">
        <ele>282.28</ele>
        <time>2017-03-05T09:17:28Z</time>
      </trkpt>
      <trkpt lat="43.13642" lon="-0.6358">
        <ele>283.25</ele>
        <time>2017-03-05T09:17:31Z</time>
      </trkpt>
      <trkpt lat="43.13641" lon="-0.63574">
        <ele>283.25</ele>
        <time>2017-03-05T09:17:32Z</time>
      </trkpt>
      <trkpt lat="43.13639" lon="-0.63562">
        <ele>284.21</ele>
        <time>2017-03-05T09:17:34Z</time>
      </trkpt>
      <trkpt lat="43.13637" lon="-0.63557">
        <ele>284.21</ele>
        <time>2017-03-05T09:17:35Z</time>
      </trkpt>
      <trkpt lat="43.13634" lon="-0.63533">
        <ele>284.69</ele>
        <time>2017-03-05T09:17:39Z</time>
      </trkpt>
      <trkpt lat="43.13633" lon="-0.63517">
        <ele>284.69</ele>
        <time>2017-03-05T09:17:41Z</time>
      </trkpt>
      <trkpt lat="43.13634" lon="-0.6351">
        <ele>284.21</ele>
        <time>2017-03-05T09:17:42Z</time>
      </trkpt>
      <trkpt lat="43.13636" lon="-0.63502">
        <ele>284.21</ele>
        <time>2017-03-05T09:17:43Z</time>
      </trkpt>
      <trkpt lat="43.13643" lon="-0.6347">
        <ele>282.77</ele>
        <time>2017-03-05T09:17:47Z</time>
      </trkpt>
      <trkpt lat="43.13671" lon="-0.63407">
        <ele>281.32</ele>
        <time>2017-03-05T09:17:59Z</time>
      </trkpt>
      <trkpt lat="43.13678" lon="-0.63393">
        <ele>281.32</ele>
        <time>2017-03-05T09:18:02Z</time>
      </trkpt>
      <trkpt lat="43.13681" lon="-0.63388">
        <ele>281.32</ele>
        <time>2017-03-05T09:18:03Z</time>
      </trkpt>
      <trkpt lat="43.13685" lon="-0.63383">
        <ele>280.84</ele>
        <time>2017-03-05T09:18:04Z</time>
      </trkpt>
      <trkpt lat="43.13689" lon="-0.63378">
        <ele>280.84</ele>
        <time>2017-03-05T09:18:05Z</time>
      </trkpt>
      <trkpt lat="43.13693" lon="-0.63374">
        <ele>280.36</ele>
        <time>2017-03-05T09:18:06Z</time>
      </trkpt>
      <trkpt lat="43.13697" lon="-0.6337">
        <ele>280.36</ele>
        <time>2017-03-05T09:18:07Z</time>
      </trkpt>
      <trkpt lat="43.13714" lon="-0.63353">
        <ele>279.4</ele>
        <time>2017-03-05T09:18:11Z</time>
      </trkpt>
      <trkpt lat="43.13719" lon="-0.63349">
        <ele>279.4</ele>
        <time>2017-03-05T09:18:12Z</time>
      </trkpt>
      <trkpt lat="43.13723" lon="-0.63345">
        <ele>279.4</ele>
        <time>2017-03-05T09:18:13Z</time>
      </trkpt>
      <trkpt lat="43.13732" lon="-0.63337">
        <ele>279.4</ele>
        <time>2017-03-05T09:18:15Z</time>
      </trkpt>
      <trkpt lat="43.1374" lon="-0.6333">
        <ele>279.88</ele>
        <time>2017-03-05T09:18:17Z</time>
      </trkpt>
      <trkpt lat="43.13749" lon="-0.63323">
        <ele>279.88</ele>
        <time>2017-03-05T09:18:19Z</time>
      </trkpt>
      <trkpt lat="43.13831" lon="-0.63257">
        <ele>284.21</ele>
        <time>2017-03-05T09:18:36Z</time>
      </trkpt>
      <trkpt lat="43.13835" lon="-0.63252">
        <ele>284.21</ele>
        <time>2017-03-05T09:18:37Z</time>
      </trkpt>
      <trkpt lat="43.13852" lon="-0.63218">
        <ele>283.25</ele>
        <time>2017-03-05T09:18:42Z</time>
      </trkpt>
      <trkpt lat="43.13857" lon="-0.63212">
        <ele>283.25</ele>
        <time>2017-03-05T09:18:43Z</time>
      </trkpt>
      <trkpt lat="43.13863" lon="-0.63206">
        <ele>283.25</ele>
        <time>2017-03-05T09:18:44Z</time>
      </trkpt>
      <trkpt lat="43.13868" lon="-0.63202">
        <ele>283.25</ele>
        <time>2017-03-05T09:18:45Z</time>
      </trkpt>
      <trkpt lat="43.13874" lon="-0.63199">
        <ele>283.73</ele>
        <time>2017-03-05T09:18:46Z</time>
      </trkpt>
      <trkpt lat="43.1388" lon="-0.63196">
        <ele>283.73</ele>
        <time>2017-03-05T09:18:47Z</time>
      </trkpt>
      <trkpt lat="43.1394" lon="-0.63181">
        <ele>284.21</ele>
        <time>2017-03-05T09:18:58Z</time>
      </trkpt>
      <trkpt lat="43.13946" lon="-0.63179">
        <ele>283.73</ele>
        <time>2017-03-05T09:18:59Z</time>
      </trkpt>
      <trkpt lat="43.13951" lon="-0.63176">
        <ele>283.25</ele>
        <time>2017-03-05T09:19:00Z</time>
      </trkpt>
      <trkpt lat="43.13956" lon="-0.63173">
        <ele>282.77</ele>
        <time>2017-03-05T09:19:01Z</time>
      </trkpt>
      <trkpt lat="43.13962" lon="-0.63169">
        <ele>282.28</ele>
        <time>2017-03-05T09:19:02Z</time>
      </trkpt>
      <trkpt lat="43.14031" lon="-0.63121">
        <ele>278.44</ele>
        <time>2017-03-05T09:19:14Z</time>
      </trkpt>
      <trkpt lat="43.14049" lon="-0.6311">
        <ele>277.96</ele>
        <time>2017-03-05T09:19:17Z</time>
      </trkpt>
      <trkpt lat="43.14075" lon="-0.63091">
        <ele>277.96</ele>
        <time>2017-03-05T09:19:22Z</time>
      </trkpt>
      <trkpt lat="43.14081" lon="-0.63089">
        <ele>277.96</ele>
        <time>2017-03-05T09:19:23Z</time>
      </trkpt>
      <trkpt lat="43.14086" lon="-0.63087">
        <ele>277.96</ele>
        <time>2017-03-05T09:19:24Z</time>
      </trkpt>
      <trkpt lat="43.14174" lon="-0.63049">
        <ele>275.56</ele>
        <time>2017-03-05T09:19:38Z</time>
      </trkpt>
      <trkpt lat="43.14202" lon="-0.6302">
        <ele>276.04</ele>
        <time>2017-03-05T09:19:43Z</time>
      </trkpt>
      <trkpt lat="43.14211" lon="-0.63006">
        <ele>276.04</ele>
        <time>2017-03-05T09:19:45Z</time>
      </trkpt>
      <trkpt lat="43.14214" lon="-0.62999">
        <ele>276.52</ele>
        <time>2017-03-05T09:19:46Z</time>
      </trkpt>
      <trkpt lat="43.14218" lon="-0.62992">
        <ele>276.52</ele>
        <time>2017-03-05T09:19:47Z</time>
      </trkpt>
      <trkpt lat="43.1422" lon="-0.62985">
        <ele>276.52</ele>
        <time>2017-03-05T09:19:48Z</time>
      </trkpt>
      <trkpt lat="43.14223" lon="-0.62977">
        <ele>277</ele>
        <time>2017-03-05T09:19:49Z</time>
      </trkpt>
      <trkpt lat="43.14246" lon="-0.62881">
        <ele>277</ele>
        <time>2017-03-05T09:20:03Z</time>
      </trkpt>
      <trkpt lat="43.14248" lon="-0.62875">
        <ele>276.52</ele>
        <time>2017-03-05T09:20:04Z</time>
      </trkpt>
      <trkpt lat="43.14254" lon="-0.62863">
        <ele>276.52</ele>
        <time>2017-03-05T09:20:06Z</time>
      </trkpt>
      <trkpt lat="43.14258" lon="-0.62857">
        <ele>276.52</ele>
        <time>2017-03-05T09:20:07Z</time>
      </trkpt>
      <trkpt lat="43.14263" lon="-0.62852">
        <ele>276.52</ele>
        <time>2017-03-05T09:20:08Z</time>
      </trkpt>
      <trkpt lat="43.14277" lon="-0.62839">
        <ele>277</ele>
        <time>2017-03-05T09:20:11Z</time>
      </trkpt>
      <trkpt lat="43.14282" lon="-0.62835">
        <ele>276.52</ele>
        <time>2017-03-05T09:20:12Z</time>
      </trkpt>
      <trkpt lat="43.14315" lon="-0.62817">
        <ele>276.52</ele>
        <time>2017-03-05T09:20:22Z</time>
      </trkpt>
      <trkpt lat="43.1434" lon="-0.6278">
        <ele>279.88</ele>
        <time>2017-03-05T09:20:36Z</time>
      </trkpt>
      <trkpt lat="43.14363" lon="-0.62754">
        <ele>278.92</ele>
        <time>2017-03-05T09:20:49Z</time>
      </trkpt>
      <trkpt lat="43.14384" lon="-0.62729">
        <ele>280.84</ele>
        <time>2017-03-05T09:21:02Z</time>
      </trkpt>
      <trkpt lat="43.14403" lon="-0.62698">
        <ele>280.84</ele>
        <time>2017-03-05T09:21:16Z</time>
      </trkpt>
      <trkpt lat="43.14426" lon="-0.62674">
        <ele>286.13</ele>
        <time>2017-03-05T09:21:29Z</time>
      </trkpt>
      <trkpt lat="43.14443" lon="-0.62626">
        <ele>286.13</ele>
        <time>2017-03-05T09:21:42Z</time>
      </trkpt>
      <trkpt lat="43.14463" lon="-0.62589">
        <ele>287.09</ele>
        <time>2017-03-05T09:21:52Z</time>
      </trkpt>
      <trkpt lat="43.145" lon="-0.62571">
        <ele>290.94</ele>
        <time>2017-03-05T09:22:04Z</time>
      </trkpt>
      <trkpt lat="43.14548" lon="-0.62553">
        <ele>294.3</ele>
        <time>2017-03-05T09:22:17Z</time>
      </trkpt>
      <trkpt lat="43.14592" lon="-0.62539">
        <ele>290.46</ele>
        <time>2017-03-05T09:22:24Z</time>
      </trkpt>
      <trkpt lat="43.14664" lon="-0.62518">
        <ele>285.65</ele>
        <time>2017-03-05T09:22:33Z</time>
      </trkpt>
      <trkpt lat="43.1467" lon="-0.62513">
        <ele>285.17</ele>
        <time>2017-03-05T09:22:34Z</time>
      </trkpt>
      <trkpt lat="43.14675" lon="-0.62507">
        <ele>284.69</ele>
        <time>2017-03-05T09:22:35Z</time>
      </trkpt>
      <trkpt lat="43.14679" lon="-0.62499">
        <ele>284.21</ele>
        <time>2017-03-05T09:22:36Z</time>
      </trkpt>
      <trkpt lat="43.14682" lon="-0.62491">
        <ele>283.25</ele>
        <time>2017-03-05T09:22:37Z</time>
      </trkpt>
      <trkpt lat="43.14684" lon="-0.62482">
        <ele>282.28</ele>
        <time>2017-03-05T09:22:38Z</time>
      </trkpt>
      <trkpt lat="43.14684" lon="-0.62473">
        <ele>281.32</ele>
        <time>2017-03-05T09:22:39Z</time>
      </trkpt>
      <trkpt lat="43.14682" lon="-0.62464">
        <ele>280.84</ele>
        <time>2017-03-05T09:22:40Z</time>
      </trkpt>
      <trkpt lat="43.1468" lon="-0.62454">
        <ele>279.88</ele>
        <time>2017-03-05T09:22:41Z</time>
      </trkpt>
      <trkpt lat="43.14677" lon="-0.62445">
        <ele>278.92</ele>
        <time>2017-03-05T09:22:42Z</time>
      </trkpt>
      <trkpt lat="43.14673" lon="-0.62436">
        <ele>277.96</ele>
        <time>2017-03-05T09:22:43Z</time>
      </trkpt>
      <trkpt lat="43.14668" lon="-0.62427">
        <ele>277.48</ele>
        <time>2017-03-05T09:22:44Z</time>
      </trkpt>
      <trkpt lat="43.14664" lon="-0.62418">
        <ele>277</ele>
        <time>2017-03-05T09:22:45Z</time>
      </trkpt>
      <trkpt lat="43.14659" lon="-0.6241">
        <ele>277</ele>
        <time>2017-03-05T09:22:46Z</time>
      </trkpt>
      <trkpt lat="43.14644" lon="-0.62388">
        <ele>276.04</ele>
        <time>2017-03-05T09:22:49Z</time>
      </trkpt>
      <trkpt lat="43.1464" lon="-0.6238">
        <ele>276.04</ele>
        <time>2017-03-05T09:22:50Z</time>
      </trkpt>
      <trkpt lat="43.14638" lon="-0.62372">
        <ele>275.56</ele>
        <time>2017-03-05T09:22:51Z</time>
      </trkpt>
      <trkpt lat="43.14637" lon="-0.62364">
        <ele>275.56</ele>
        <time>2017-03-05T09:22:52Z</time>
      </trkpt>
      <trkpt lat="43.14638" lon="-0.62357">
        <ele>275.56</ele>
        <time>2017-03-05T09:22:53Z</time>
      </trkpt>
      <trkpt lat="43.14641" lon="-0.6235">
        <ele>275.56</ele>
        <time>2017-03-05T09:22:54Z</time>
      </trkpt>
      <trkpt lat="43.14645" lon="-0.62346">
        <ele>275.56</ele>
        <time>2017-03-05T09:22:55Z</time>
      </trkpt>
      <trkpt lat="43.14651" lon="-0.62344">
        <ele>275.07</ele>
        <time>2017-03-05T09:22:56Z</time>
      </trkpt>
      <trkpt lat="43.14656" lon="-0.62344">
        <ele>275.07</ele>
        <time>2017-03-05T09:22:57Z</time>
      </trkpt>
      <trkpt lat="43.14661" lon="-0.62346">
        <ele>274.59</ele>
        <time>2017-03-05T09:22:58Z</time>
      </trkpt>
      <trkpt lat="43.14667" lon="-0.62347">
        <ele>274.59</ele>
        <time>2017-03-05T09:22:59Z</time>
      </trkpt>
      <trkpt lat="43.14672" lon="-0.6235">
        <ele>274.11</ele>
        <time>2017-03-05T09:23:00Z</time>
      </trkpt>
      <trkpt lat="43.14678" lon="-0.62353">
        <ele>273.63</ele>
        <time>2017-03-05T09:23:01Z</time>
      </trkpt>
      <trkpt lat="43.14756" lon="-0.62392">
        <ele>276.04</ele>
        <time>2017-03-05T09:23:16Z</time>
      </trkpt>
      <trkpt lat="43.14805" lon="-0.62414">
        <ele>276.04</ele>
        <time>2017-03-05T09:23:25Z</time>
      </trkpt>
      <trkpt lat="43.1481" lon="-0.62417">
        <ele>276.04</ele>
        <time>2017-03-05T09:23:26Z</time>
      </trkpt>
      <trkpt lat="43.14864" lon="-0.62441">
        <ele>275.07</ele>
        <time>2017-03-05T09:23:37Z</time>
      </trkpt>
      <trkpt lat="43.14869" lon="-0.62441">
        <ele>275.07</ele>
        <time>2017-03-05T09:23:38Z</time>
      </trkpt>
      <trkpt lat="43.14874" lon="-0.6244">
        <ele>274.59</ele>
        <time>2017-03-05T09:23:39Z</time>
      </trkpt>
      <trkpt lat="43.14879" lon="-0.62438">
        <ele>274.59</ele>
        <time>2017-03-05T09:23:40Z</time>
      </trkpt>
      <trkpt lat="43.14883" lon="-0.62437">
        <ele>274.11</ele>
        <time>2017-03-05T09:23:41Z</time>
      </trkpt>
      <trkpt lat="43.14887" lon="-0.62434">
        <ele>274.11</ele>
        <time>2017-03-05T09:23:42Z</time>
      </trkpt>
      <trkpt lat="43.1489" lon="-0.62432">
        <ele>273.63</ele>
        <time>2017-03-05T09:23:43Z</time>
      </trkpt>
      <trkpt lat="43.14893" lon="-0.6243">
        <ele>273.63</ele>
        <time>2017-03-05T09:23:44Z</time>
      </trkpt>
      <trkpt lat="43.14896" lon="-0.6243">
        <ele>273.63</ele>
        <time>2017-03-05T09:23:45Z</time>
      </trkpt>
      <trkpt lat="43.14898" lon="-0.62432">
        <ele>273.15</ele>
        <time>2017-03-05T09:23:46Z</time>
      </trkpt>
      <trkpt lat="43.14899" lon="-0.62433">
        <ele>272.67</ele>
        <time>2017-03-05T09:23:47Z</time>
      </trkpt>
      <trkpt lat="43.14899" lon="-0.62435">
        <ele>272.67</ele>
        <time>2017-03-05T09:23:48Z</time>
      </trkpt>
      <trkpt lat="43.14899" lon="-0.62439">
        <ele>271.71</ele>
        <time>2017-03-05T09:23:49Z</time>
      </trkpt>
      <trkpt lat="43.14899" lon="-0.62443">
        <ele>270.75</ele>
        <time>2017-03-05T09:23:50Z</time>
      </trkpt>
      <trkpt lat="43.14899" lon="-0.62449">
        <ele>269.31</ele>
        <time>2017-03-05T09:23:51Z</time>
      </trkpt>
      <trkpt lat="43.149" lon="-0.62456">
        <ele>268.35</ele>
        <time>2017-03-05T09:23:52Z</time>
      </trkpt>
      <trkpt lat="43.14902" lon="-0.62472">
        <ele>265.94</ele>
        <time>2017-03-05T09:23:54Z</time>
      </trkpt>
      <trkpt lat="43.14907" lon="-0.62485">
        <ele>263.54</ele>
        <time>2017-03-05T09:23:56Z</time>
      </trkpt>
      <trkpt lat="43.1491" lon="-0.62491">
        <ele>263.06</ele>
        <time>2017-03-05T09:23:57Z</time>
      </trkpt>
      <trkpt lat="43.14913" lon="-0.62496">
        <ele>262.1</ele>
        <time>2017-03-05T09:23:58Z</time>
      </trkpt>
      <trkpt lat="43.14916" lon="-0.62501">
        <ele>261.62</ele>
        <time>2017-03-05T09:23:59Z</time>
      </trkpt>
      <trkpt lat="43.14919" lon="-0.62506">
        <ele>261.14</ele>
        <time>2017-03-05T09:24:00Z</time>
      </trkpt>
      <trkpt lat="43.14941" lon="-0.62547">
        <ele>264.5</ele>
        <time>2017-03-05T09:24:11Z</time>
      </trkpt>
      <trkpt lat="43.14943" lon="-0.62597">
        <ele>264.5</ele>
        <time>2017-03-05T09:24:22Z</time>
      </trkpt>
      <trkpt lat="43.14961" lon="-0.62616">
        <ele>264.5</ele>
        <time>2017-03-05T09:24:33Z</time>
      </trkpt>
      <trkpt lat="43.14975" lon="-0.62639">
        <ele>268.35</ele>
        <time>2017-03-05T09:24:46Z</time>
      </trkpt>
      <trkpt lat="43.14979" lon="-0.6267">
        <ele>271.71</ele>
        <time>2017-03-05T09:25:01Z</time>
      </trkpt>
      <trkpt lat="43.14991" lon="-0.62702">
        <ele>273.63</ele>
        <time>2017-03-05T09:25:18Z</time>
      </trkpt>
      <trkpt lat="43.15008" lon="-0.62734">
        <ele>276.04</ele>
        <time>2017-03-05T09:25:36Z</time>
      </trkpt>
      <trkpt lat="43.15028" lon="-0.62765">
        <ele>277.96</ele>
        <time>2017-03-05T09:25:54Z</time>
      </trkpt>
      <trkpt lat="43.15047" lon="-0.62788">
        <ele>278.92</ele>
        <time>2017-03-05T09:26:08Z</time>
      </trkpt>
      <trkpt lat="43.15065" lon="-0.62826">
        <ele>277.48</ele>
        <time>2017-03-05T09:26:26Z</time>
      </trkpt>
      <trkpt lat="43.15085" lon="-0.62852">
        <ele>282.28</ele>
        <time>2017-03-05T09:26:42Z</time>
      </trkpt>
      <trkpt lat="43.15107" lon="-0.6288">
        <ele>284.21</ele>
        <time>2017-03-05T09:26:58Z</time>
      </trkpt>
      <trkpt lat="43.15135" lon="-0.62909">
        <ele>287.09</ele>
        <time>2017-03-05T09:27:15Z</time>
      </trkpt>
      <trkpt lat="43.15163" lon="-0.62938">
        <ele>289.49</ele>
        <time>2017-03-05T09:27:32Z</time>
      </trkpt>
      <trkpt lat="43.15194" lon="-0.62958">
        <ele>289.97</ele>
        <time>2017-03-05T09:27:49Z</time>
      </trkpt>
      <trkpt lat="43.15225" lon="-0.62937">
        <ele>290.94</ele>
        <time>2017-03-05T09:28:05Z</time>
      </trkpt>
      <trkpt lat="43.15259" lon="-0.62915">
        <ele>291.9</ele>
        <time>2017-03-05T09:28:21Z</time>
      </trkpt>
      <trkpt lat="43.15271" lon="-0.62883">
        <ele>290.94</ele>
        <time>2017-03-05T09:28:32Z</time>
      </trkpt>
      <trkpt lat="43.15285" lon="-0.62869">
        <ele>289.97</ele>
        <time>2017-03-05T09:28:37Z</time>
      </trkpt>
      <trkpt lat="43.1531" lon="-0.62859">
        <ele>286.61</ele>
        <time>2017-03-05T09:28:43Z</time>
      </trkpt>
      <trkpt lat="43.15314" lon="-0.6286">
        <ele>286.13</ele>
        <time>2017-03-05T09:28:44Z</time>
      </trkpt>
      <trkpt lat="43.15323" lon="-0.62861">
        <ele>285.65</ele>
        <time>2017-03-05T09:28:46Z</time>
      </trkpt>
      <trkpt lat="43.15327" lon="-0.62861">
        <ele>285.17</ele>
        <time>2017-03-05T09:28:47Z</time>
      </trkpt>
      <trkpt lat="43.15331" lon="-0.62859">
        <ele>285.17</ele>
        <time>2017-03-05T09:28:48Z</time>
      </trkpt>
      <trkpt lat="43.15334" lon="-0.62856">
        <ele>285.17</ele>
        <time>2017-03-05T09:28:49Z</time>
      </trkpt>
      <trkpt lat="43.15337" lon="-0.62852">
        <ele>285.17</ele>
        <time>2017-03-05T09:28:50Z</time>
      </trkpt>
      <trkpt lat="43.15339" lon="-0.62848">
        <ele>285.17</ele>
        <time>2017-03-05T09:28:51Z</time>
      </trkpt>
      <trkpt lat="43.1534" lon="-0.62844">
        <ele>285.65</ele>
        <time>2017-03-05T09:28:52Z</time>
      </trkpt>
      <trkpt lat="43.15341" lon="-0.62841">
        <ele>285.65</ele>
        <time>2017-03-05T09:28:53Z</time>
      </trkpt>
      <trkpt lat="43.15341" lon="-0.62786">
        <ele>288.05</ele>
        <time>2017-03-05T09:29:06Z</time>
      </trkpt>
      <trkpt lat="43.15359" lon="-0.62733">
        <ele>286.13</ele>
        <time>2017-03-05T09:29:18Z</time>
      </trkpt>
      <trkpt lat="43.15366" lon="-0.62717">
        <ele>285.17</ele>
        <time>2017-03-05T09:29:21Z</time>
      </trkpt>
      <trkpt lat="43.15369" lon="-0.62712">
        <ele>284.69</ele>
        <time>2017-03-05T09:29:22Z</time>
      </trkpt>
      <trkpt lat="43.15416" lon="-0.62643">
        <ele>279.4</ele>
        <time>2017-03-05T09:29:36Z</time>
      </trkpt>
      <trkpt lat="43.15428" lon="-0.62608">
        <ele>275.07</ele>
        <time>2017-03-05T09:29:44Z</time>
      </trkpt>
      <trkpt lat="43.15437" lon="-0.62576">
        <ele>270.75</ele>
        <time>2017-03-05T09:29:53Z</time>
      </trkpt>
      <trkpt lat="43.15439" lon="-0.62576">
        <ele>270.27</ele>
        <time>2017-03-05T09:29:54Z</time>
      </trkpt>
      <trkpt lat="43.1544" lon="-0.62575">
        <ele>269.79</ele>
        <time>2017-03-05T09:29:55Z</time>
      </trkpt>
      <trkpt lat="43.15443" lon="-0.62574">
        <ele>269.31</ele>
        <time>2017-03-05T09:29:56Z</time>
      </trkpt>
      <trkpt lat="43.15444" lon="-0.62573">
        <ele>268.83</ele>
        <time>2017-03-05T09:29:57Z</time>
      </trkpt>
      <trkpt lat="43.15448" lon="-0.62573">
        <ele>268.35</ele>
        <time>2017-03-05T09:29:59Z</time>
      </trkpt>
      <trkpt lat="43.15452" lon="-0.62574">
        <ele>267.86</ele>
        <time>2017-03-05T09:30:01Z</time>
      </trkpt>
      <trkpt lat="43.15466" lon="-0.62569">
        <ele>266.42</ele>
        <time>2017-03-05T09:30:08Z</time>
      </trkpt>
      <trkpt lat="43.15478" lon="-0.62559">
        <ele>263.06</ele>
        <time>2017-03-05T09:30:15Z</time>
      </trkpt>
      <trkpt lat="43.15484" lon="-0.62559">
        <ele>262.58</ele>
        <time>2017-03-05T09:30:19Z</time>
      </trkpt>
      <trkpt lat="43.15496" lon="-0.62584">
        <ele>266.9</ele>
        <time>2017-03-05T09:30:32Z</time>
      </trkpt>
      <trkpt lat="43.155" lon="-0.62612">
        <ele>269.79</ele>
        <time>2017-03-05T09:30:46Z</time>
      </trkpt>
      <trkpt lat="43.15504" lon="-0.6264">
        <ele>273.15</ele>
        <time>2017-03-05T09:31:00Z</time>
      </trkpt>
      <trkpt lat="43.15504" lon="-0.62642">
        <ele>273.15</ele>
        <time>2017-03-05T09:31:01Z</time>
      </trkpt>
      <trkpt lat="43.15504" lon="-0.6265">
        <ele>274.59</ele>
        <time>2017-03-05T09:31:05Z</time>
      </trkpt>
      <trkpt lat="43.15505" lon="-0.62677">
        <ele>279.4</ele>
        <time>2017-03-05T09:31:19Z</time>
      </trkpt>
      <trkpt lat="43.15509" lon="-0.62714">
        <ele>280.84</ele>
        <time>2017-03-05T09:31:36Z</time>
      </trkpt>
      <trkpt lat="43.15511" lon="-0.62742">
        <ele>279.4</ele>
        <time>2017-03-05T09:31:49Z</time>
      </trkpt>
      <trkpt lat="43.15513" lon="-0.6277">
        <ele>279.88</ele>
        <time>2017-03-05T09:32:03Z</time>
      </trkpt>
      <trkpt lat="43.15513" lon="-0.62772">
        <ele>280.36</ele>
        <time>2017-03-05T09:32:04Z</time>
      </trkpt>
      <trkpt lat="43.15513" lon="-0.62809">
        <ele>280.84</ele>
        <time>2017-03-05T09:32:18Z</time>
      </trkpt>
      <trkpt lat="43.15513" lon="-0.62818">
        <ele>279.88</ele>
        <time>2017-03-05T09:32:21Z</time>
      </trkpt>
      <trkpt lat="43.15515" lon="-0.62824">
        <ele>279.88</ele>
        <time>2017-03-05T09:32:23Z</time>
      </trkpt>
      <trkpt lat="43.15516" lon="-0.62827">
        <ele>279.88</ele>
        <time>2017-03-05T09:32:24Z</time>
      </trkpt>
      <trkpt lat="43.15517" lon="-0.6283">
        <ele>279.88</ele>
        <time>2017-03-05T09:32:25Z</time>
      </trkpt>
      <trkpt lat="43.15518" lon="-0.62833">
        <ele>279.88</ele>
        <time>2017-03-05T09:32:26Z</time>
      </trkpt>
      <trkpt lat="43.15519" lon="-0.62836">
        <ele>279.4</ele>
        <time>2017-03-05T09:32:27Z</time>
      </trkpt>
      <trkpt lat="43.15538" lon="-0.62864">
        <ele>276.52</ele>
        <time>2017-03-05T09:32:40Z</time>
      </trkpt>
      <trkpt lat="43.1557" lon="-0.62874">
        <ele>281.32</ele>
        <time>2017-03-05T09:32:55Z</time>
      </trkpt>
      <trkpt lat="43.15607" lon="-0.62863">
        <ele>276.04</ele>
        <time>2017-03-05T09:33:06Z</time>
      </trkpt>
      <trkpt lat="43.15634" lon="-0.62863">
        <ele>279.88</ele>
        <time>2017-03-05T09:33:17Z</time>
      </trkpt>
      <trkpt lat="43.1565" lon="-0.62888">
        <ele>287.09</ele>
        <time>2017-03-05T09:33:30Z</time>
      </trkpt>
      <trkpt lat="43.15653" lon="-0.62907">
        <ele>289.49</ele>
        <time>2017-03-05T09:33:41Z</time>
      </trkpt>
      <trkpt lat="43.15652" lon="-0.62909">
        <ele>289.49</ele>
        <time>2017-03-05T09:33:42Z</time>
      </trkpt>
      <trkpt lat="43.15651" lon="-0.6291">
        <ele>289.97</ele>
        <time>2017-03-05T09:33:43Z</time>
      </trkpt>
      <trkpt lat="43.1565" lon="-0.62911">
        <ele>290.46</ele>
        <time>2017-03-05T09:33:44Z</time>
      </trkpt>
      <trkpt lat="43.15649" lon="-0.62912">
        <ele>290.94</ele>
        <time>2017-03-05T09:33:45Z</time>
      </trkpt>
      <trkpt lat="43.15645" lon="-0.62918">
        <ele>293.34</ele>
        <time>2017-03-05T09:33:50Z</time>
      </trkpt>
      <trkpt lat="43.15631" lon="-0.62933">
        <ele>300.07</ele>
        <time>2017-03-05T09:34:04Z</time>
      </trkpt>
      <trkpt lat="43.1562" lon="-0.62943">
        <ele>303.43</ele>
        <time>2017-03-05T09:34:14Z</time>
      </trkpt>
      <trkpt lat="43.15618" lon="-0.62943">
        <ele>303.91</ele>
        <time>2017-03-05T09:34:15Z</time>
      </trkpt>
      <trkpt lat="43.15614" lon="-0.62945">
        <ele>304.88</ele>
        <time>2017-03-05T09:34:18Z</time>
      </trkpt>
      <trkpt lat="43.15601" lon="-0.62952">
        <ele>307.28</ele>
        <time>2017-03-05T09:34:28Z</time>
      </trkpt>
      <trkpt lat="43.15588" lon="-0.62963">
        <ele>309.2</ele>
        <time>2017-03-05T09:34:40Z</time>
      </trkpt>
      <trkpt lat="43.15574" lon="-0.62979">
        <ele>309.68</ele>
        <time>2017-03-05T09:34:55Z</time>
      </trkpt>
      <trkpt lat="43.15561" lon="-0.62997">
        <ele>311.6</ele>
        <time>2017-03-05T09:35:12Z</time>
      </trkpt>
      <trkpt lat="43.15547" lon="-0.63023">
        <ele>315.45</ele>
        <time>2017-03-05T09:35:29Z</time>
      </trkpt>
      <trkpt lat="43.15546" lon="-0.63026">
        <ele>315.45</ele>
        <time>2017-03-05T09:35:31Z</time>
      </trkpt>
      <trkpt lat="43.1554" lon="-0.63036">
        <ele>315.45</ele>
        <time>2017-03-05T09:35:39Z</time>
      </trkpt>
      <trkpt lat="43.15539" lon="-0.63038">
        <ele>315.45</ele>
        <time>2017-03-05T09:35:40Z</time>
      </trkpt>
      <trkpt lat="43.15532" lon="-0.63055">
        <ele>316.41</ele>
        <time>2017-03-05T09:35:52Z</time>
      </trkpt>
      <trkpt lat="43.1552" lon="-0.63079">
        <ele>316.41</ele>
        <time>2017-03-05T09:36:09Z</time>
      </trkpt>
      <trkpt lat="43.15513" lon="-0.63099">
        <ele>317.37</ele>
        <time>2017-03-05T09:36:21Z</time>
      </trkpt>
      <trkpt lat="43.15513" lon="-0.631">
        <ele>317.37</ele>
        <time>2017-03-05T09:36:22Z</time>
      </trkpt>
      <trkpt lat="43.15512" lon="-0.63102">
        <ele>317.37</ele>
        <time>2017-03-05T09:36:23Z</time>
      </trkpt>
      <trkpt lat="43.15509" lon="-0.63131">
        <ele>319.3</ele>
        <time>2017-03-05T09:36:39Z</time>
      </trkpt>
      <trkpt lat="43.15514" lon="-0.63162">
        <ele>324.1</ele>
        <time>2017-03-05T09:36:57Z</time>
      </trkpt>
      <trkpt lat="43.15519" lon="-0.63178">
        <ele>326.5</ele>
        <time>2017-03-05T09:37:07Z</time>
      </trkpt>
      <trkpt lat="43.15519" lon="-0.6318">
        <ele>326.5</ele>
        <time>2017-03-05T09:37:08Z</time>
      </trkpt>
      <trkpt lat="43.15531" lon="-0.63213">
        <ele>329.87</ele>
        <time>2017-03-05T09:37:25Z</time>
      </trkpt>
      <trkpt lat="43.15546" lon="-0.63246">
        <ele>330.83</ele>
        <time>2017-03-05T09:37:40Z</time>
      </trkpt>
      <trkpt lat="43.15559" lon="-0.63289">
        <ele>327.47</ele>
        <time>2017-03-05T09:37:53Z</time>
      </trkpt>
      <trkpt lat="43.15576" lon="-0.6332">
        <ele>324.58</ele>
        <time>2017-03-05T09:38:05Z</time>
      </trkpt>
      <trkpt lat="43.15587" lon="-0.6335">
        <ele>324.1</ele>
        <time>2017-03-05T09:38:18Z</time>
      </trkpt>
      <trkpt lat="43.15594" lon="-0.63376">
        <ele>323.14</ele>
        <time>2017-03-05T09:38:32Z</time>
      </trkpt>
      <trkpt lat="43.15589" lon="-0.63406">
        <ele>328.43</ele>
        <time>2017-03-05T09:38:47Z</time>
      </trkpt>
      <trkpt lat="43.15581" lon="-0.63436">
        <ele>333.71</ele>
        <time>2017-03-05T09:39:03Z</time>
      </trkpt>
      <trkpt lat="43.15588" lon="-0.63463">
        <ele>333.71</ele>
        <time>2017-03-05T09:39:19Z</time>
      </trkpt>
      <trkpt lat="43.15594" lon="-0.63477">
        <ele>336.12</ele>
        <time>2017-03-05T09:39:29Z</time>
      </trkpt>
      <trkpt lat="43.15604" lon="-0.63492">
        <ele>340.44</ele>
        <time>2017-03-05T09:39:43Z</time>
      </trkpt>
      <trkpt lat="43.15616" lon="-0.63507">
        <ele>346.69</ele>
        <time>2017-03-05T09:39:58Z</time>
      </trkpt>
      <trkpt lat="43.15625" lon="-0.63518">
        <ele>351.5</ele>
        <time>2017-03-05T09:40:09Z</time>
      </trkpt>
      <trkpt lat="43.15626" lon="-0.6352">
        <ele>351.98</ele>
        <time>2017-03-05T09:40:10Z</time>
      </trkpt>
      <trkpt lat="43.15638" lon="-0.63541">
        <ele>351.98</ele>
        <time>2017-03-05T09:40:22Z</time>
      </trkpt>
      <trkpt lat="43.15639" lon="-0.63543">
        <ele>351.98</ele>
        <time>2017-03-05T09:40:23Z</time>
      </trkpt>
      <trkpt lat="43.1564" lon="-0.63544">
        <ele>351.98</ele>
        <time>2017-03-05T09:40:24Z</time>
      </trkpt>
      <trkpt lat="43.15657" lon="-0.63584">
        <ele>352.94</ele>
        <time>2017-03-05T09:40:39Z</time>
      </trkpt>
      <trkpt lat="43.15676" lon="-0.63623">
        <ele>353.9</ele>
        <time>2017-03-05T09:40:53Z</time>
      </trkpt>
      <trkpt lat="43.15697" lon="-0.6366">
        <ele>353.42</ele>
        <time>2017-03-05T09:41:08Z</time>
      </trkpt>
      <trkpt lat="43.15702" lon="-0.6367">
        <ele>353.42</ele>
        <time>2017-03-05T09:41:13Z</time>
      </trkpt>
      <trkpt lat="43.15705" lon="-0.63671">
        <ele>353.9</ele>
        <time>2017-03-05T09:41:15Z</time>
      </trkpt>
      <trkpt lat="43.15706" lon="-0.6367">
        <ele>353.9</ele>
        <time>2017-03-05T09:41:16Z</time>
      </trkpt>
      <trkpt lat="43.15707" lon="-0.63669">
        <ele>354.38</ele>
        <time>2017-03-05T09:41:17Z</time>
      </trkpt>
      <trkpt lat="43.15707" lon="-0.63667">
        <ele>354.86</ele>
        <time>2017-03-05T09:41:18Z</time>
      </trkpt>
      <trkpt lat="43.15707" lon="-0.63666">
        <ele>354.86</ele>
        <time>2017-03-05T09:41:19Z</time>
      </trkpt>
      <trkpt lat="43.15706" lon="-0.63664">
        <ele>354.86</ele>
        <time>2017-03-05T09:41:20Z</time>
      </trkpt>
      <trkpt lat="43.15698" lon="-0.63636">
        <ele>358.71</ele>
        <time>2017-03-05T09:41:35Z</time>
      </trkpt>
      <trkpt lat="43.15691" lon="-0.63606">
        <ele>364</ele>
        <time>2017-03-05T09:41:51Z</time>
      </trkpt>
      <trkpt lat="43.15685" lon="-0.63584">
        <ele>366.88</ele>
        <time>2017-03-05T09:42:04Z</time>
      </trkpt>
      <trkpt lat="43.15681" lon="-0.63554">
        <ele>369.28</ele>
        <time>2017-03-05T09:42:20Z</time>
      </trkpt>
      <trkpt lat="43.15675" lon="-0.63521">
        <ele>370.24</ele>
        <time>2017-03-05T09:42:38Z</time>
      </trkpt>
      <trkpt lat="43.15674" lon="-0.6351">
        <ele>371.21</ele>
        <time>2017-03-05T09:42:44Z</time>
      </trkpt>
      <trkpt lat="43.15673" lon="-0.63508">
        <ele>371.21</ele>
        <time>2017-03-05T09:42:45Z</time>
      </trkpt>
      <trkpt lat="43.15673" lon="-0.63505">
        <ele>371.21</ele>
        <time>2017-03-05T09:42:46Z</time>
      </trkpt>
      <trkpt lat="43.15672" lon="-0.63503">
        <ele>371.21</ele>
        <time>2017-03-05T09:42:47Z</time>
      </trkpt>
      <trkpt lat="43.15672" lon="-0.63501">
        <ele>371.21</ele>
        <time>2017-03-05T09:42:48Z</time>
      </trkpt>
      <trkpt lat="43.15672" lon="-0.63499">
        <ele>371.21</ele>
        <time>2017-03-05T09:42:49Z</time>
      </trkpt>
      <trkpt lat="43.15672" lon="-0.63497">
        <ele>371.21</ele>
        <time>2017-03-05T09:42:50Z</time>
      </trkpt>
      <trkpt lat="43.1567" lon="-0.63479">
        <ele>371.69</ele>
        <time>2017-03-05T09:42:59Z</time>
      </trkpt>
      <trkpt lat="43.15674" lon="-0.63446">
        <ele>373.61</ele>
        <time>2017-03-05T09:43:17Z</time>
      </trkpt>
      <trkpt lat="43.15677" lon="-0.6342">
        <ele>376.49</ele>
        <time>2017-03-05T09:43:32Z</time>
      </trkpt>
      <trkpt lat="43.15684" lon="-0.63387">
        <ele>379.86</ele>
        <time>2017-03-05T09:43:53Z</time>
      </trkpt>
      <trkpt lat="43.15696" lon="-0.63366">
        <ele>384.66</ele>
        <time>2017-03-05T09:44:08Z</time>
      </trkpt>
      <trkpt lat="43.15704" lon="-0.63335">
        <ele>387.55</ele>
        <time>2017-03-05T09:44:28Z</time>
      </trkpt>
      <trkpt lat="43.15706" lon="-0.63331">
        <ele>387.55</ele>
        <time>2017-03-05T09:44:31Z</time>
      </trkpt>
      <trkpt lat="43.15707" lon="-0.63329">
        <ele>387.55</ele>
        <time>2017-03-05T09:44:32Z</time>
      </trkpt>
      <trkpt lat="43.15708" lon="-0.63328">
        <ele>387.55</ele>
        <time>2017-03-05T09:44:33Z</time>
      </trkpt>
      <trkpt lat="43.15709" lon="-0.63327">
        <ele>387.55</ele>
        <time>2017-03-05T09:44:34Z</time>
      </trkpt>
      <trkpt lat="43.15711" lon="-0.63327">
        <ele>387.55</ele>
        <time>2017-03-05T09:44:36Z</time>
      </trkpt>
      <trkpt lat="43.15711" lon="-0.63328">
        <ele>388.03</ele>
        <time>2017-03-05T09:44:37Z</time>
      </trkpt>
      <trkpt lat="43.15712" lon="-0.63338">
        <ele>388.03</ele>
        <time>2017-03-05T09:44:45Z</time>
      </trkpt>
      <trkpt lat="43.15713" lon="-0.63339">
        <ele>388.51</ele>
        <time>2017-03-05T09:44:46Z</time>
      </trkpt>
      <trkpt lat="43.15713" lon="-0.63341">
        <ele>388.51</ele>
        <time>2017-03-05T09:44:47Z</time>
      </trkpt>
      <trkpt lat="43.15721" lon="-0.63381">
        <ele>387.55</ele>
        <time>2017-03-05T09:45:05Z</time>
      </trkpt>
      <trkpt lat="43.15727" lon="-0.63413">
        <ele>389.47</ele>
        <time>2017-03-05T09:45:18Z</time>
      </trkpt>
      <trkpt lat="43.15728" lon="-0.63415">
        <ele>389.47</ele>
        <time>2017-03-05T09:45:19Z</time>
      </trkpt>
      <trkpt lat="43.15729" lon="-0.63418">
        <ele>388.99</ele>
        <time>2017-03-05T09:45:20Z</time>
      </trkpt>
      <trkpt lat="43.1574" lon="-0.63447">
        <ele>388.51</ele>
        <time>2017-03-05T09:45:34Z</time>
      </trkpt>
      <trkpt lat="43.15758" lon="-0.63478">
        <ele>393.32</ele>
        <time>2017-03-05T09:45:49Z</time>
      </trkpt>
      <trkpt lat="43.15777" lon="-0.63518">
        <ele>396.2</ele>
        <time>2017-03-05T09:46:07Z</time>
      </trkpt>
      <trkpt lat="43.15796" lon="-0.63555">
        <ele>400.53</ele>
        <time>2017-03-05T09:46:25Z</time>
      </trkpt>
      <trkpt lat="43.15813" lon="-0.636">
        <ele>401.01</ele>
        <time>2017-03-05T09:46:47Z</time>
      </trkpt>
      <trkpt lat="43.15824" lon="-0.63637">
        <ele>404.37</ele>
        <time>2017-03-05T09:47:05Z</time>
      </trkpt>
      <trkpt lat="43.15833" lon="-0.63665">
        <ele>407.74</ele>
        <time>2017-03-05T09:47:21Z</time>
      </trkpt>
      <trkpt lat="43.15843" lon="-0.63692">
        <ele>410.62</ele>
        <time>2017-03-05T09:47:38Z</time>
      </trkpt>
      <trkpt lat="43.15855" lon="-0.63721">
        <ele>412.54</ele>
        <time>2017-03-05T09:47:56Z</time>
      </trkpt>
      <trkpt lat="43.15866" lon="-0.6375">
        <ele>414.47</ele>
        <time>2017-03-05T09:48:12Z</time>
      </trkpt>
      <trkpt lat="43.15875" lon="-0.63782">
        <ele>414.47</ele>
        <time>2017-03-05T09:48:29Z</time>
      </trkpt>
      <trkpt lat="43.15888" lon="-0.63801">
        <ele>415.43</ele>
        <time>2017-03-05T09:48:42Z</time>
      </trkpt>
      <trkpt lat="43.15896" lon="-0.63804">
        <ele>416.39</ele>
        <time>2017-03-05T09:48:53Z</time>
      </trkpt>
      <trkpt lat="43.15904" lon="-0.63806">
        <ele>419.27</ele>
        <time>2017-03-05T09:49:06Z</time>
      </trkpt>
      <trkpt lat="43.15912" lon="-0.63813">
        <ele>420.71</ele>
        <time>2017-03-05T09:49:21Z</time>
      </trkpt>
      <trkpt lat="43.15932" lon="-0.63839">
        <ele>420.71</ele>
        <time>2017-03-05T09:49:36Z</time>
      </trkpt>
      <trkpt lat="43.15929" lon="-0.63852">
        <ele>418.79</ele>
        <time>2017-03-05T09:49:39Z</time>
      </trkpt>
      <trkpt lat="43.15926" lon="-0.63872">
        <ele>416.39</ele>
        <time>2017-03-05T09:49:42Z</time>
      </trkpt>
      <trkpt lat="43.15918" lon="-0.63901">
        <ele>413.98</ele>
        <time>2017-03-05T09:49:46Z</time>
      </trkpt>
      <trkpt lat="43.15913" lon="-0.63922">
        <ele>412.54</ele>
        <time>2017-03-05T09:49:49Z</time>
      </trkpt>
      <trkpt lat="43.1589" lon="-0.63979">
        <ele>408.22</ele>
        <time>2017-03-05T09:50:01Z</time>
      </trkpt>
      <trkpt lat="43.15899" lon="-0.64031">
        <ele>405.81</ele>
        <time>2017-03-05T09:50:13Z</time>
      </trkpt>
      <trkpt lat="43.15914" lon="-0.64072">
        <ele>401.49</ele>
        <time>2017-03-05T09:50:22Z</time>
      </trkpt>
      <trkpt lat="43.15927" lon="-0.64081">
        <ele>396.68</ele>
        <time>2017-03-05T09:50:27Z</time>
      </trkpt>
      <trkpt lat="43.15935" lon="-0.64094">
        <ele>394.76</ele>
        <time>2017-03-05T09:50:31Z</time>
      </trkpt>
      <trkpt lat="43.15941" lon="-0.64104">
        <ele>392.36</ele>
        <time>2017-03-05T09:50:36Z</time>
      </trkpt>
      <trkpt lat="43.15947" lon="-0.64105">
        <ele>389.47</ele>
        <time>2017-03-05T09:50:40Z</time>
      </trkpt>
      <trkpt lat="43.15951" lon="-0.64106">
        <ele>388.51</ele>
        <time>2017-03-05T09:50:42Z</time>
      </trkpt>
      <trkpt lat="43.1597" lon="-0.64129">
        <ele>381.3</ele>
        <time>2017-03-05T09:50:53Z</time>
      </trkpt>
      <trkpt lat="43.15974" lon="-0.64135">
        <ele>379.38</ele>
        <time>2017-03-05T09:50:55Z</time>
      </trkpt>
      <trkpt lat="43.15979" lon="-0.64147">
        <ele>376.01</ele>
        <time>2017-03-05T09:50:59Z</time>
      </trkpt>
      <trkpt lat="43.15996" lon="-0.64191">
        <ele>368.32</ele>
        <time>2017-03-05T09:51:11Z</time>
      </trkpt>
      <trkpt lat="43.16014" lon="-0.64216">
        <ele>362.07</ele>
        <time>2017-03-05T09:51:21Z</time>
      </trkpt>
      <trkpt lat="43.16021" lon="-0.64231">
        <ele>357.27</ele>
        <time>2017-03-05T09:51:26Z</time>
      </trkpt>
      <trkpt lat="43.16035" lon="-0.64262">
        <ele>353.42</ele>
        <time>2017-03-05T09:51:35Z</time>
      </trkpt>
      <trkpt lat="43.16038" lon="-0.64271">
        <ele>351.98</ele>
        <time>2017-03-05T09:51:39Z</time>
      </trkpt>
      <trkpt lat="43.1604" lon="-0.64277">
        <ele>351.5</ele>
        <time>2017-03-05T09:51:41Z</time>
      </trkpt>
      <trkpt lat="43.16046" lon="-0.64301">
        <ele>350.54</ele>
        <time>2017-03-05T09:51:50Z</time>
      </trkpt>
      <trkpt lat="43.16029" lon="-0.64326">
        <ele>350.06</ele>
        <time>2017-03-05T09:51:58Z</time>
      </trkpt>
      <trkpt lat="43.16025" lon="-0.64371">
        <ele>345.73</ele>
        <time>2017-03-05T09:52:06Z</time>
      </trkpt>
      <trkpt lat="43.16021" lon="-0.64415">
        <ele>342.37</ele>
        <time>2017-03-05T09:52:12Z</time>
      </trkpt>
      <trkpt lat="43.16013" lon="-0.64442">
        <ele>337.08</ele>
        <time>2017-03-05T09:52:18Z</time>
      </trkpt>
      <trkpt lat="43.16026" lon="-0.6445">
        <ele>333.71</ele>
        <time>2017-03-05T09:52:25Z</time>
      </trkpt>
      <trkpt lat="43.1606" lon="-0.64461">
        <ele>334.2</ele>
        <time>2017-03-05T09:52:38Z</time>
      </trkpt>
      <trkpt lat="43.161" lon="-0.64468">
        <ele>328.91</ele>
        <time>2017-03-05T09:52:48Z</time>
      </trkpt>
      <trkpt lat="43.16123" lon="-0.64467">
        <ele>326.99</ele>
        <time>2017-03-05T09:52:55Z</time>
      </trkpt>
      <trkpt lat="43.16127" lon="-0.64474">
        <ele>326.99</ele>
        <time>2017-03-05T09:52:58Z</time>
      </trkpt>
      <trkpt lat="43.16127" lon="-0.64477">
        <ele>326.99</ele>
        <time>2017-03-05T09:52:59Z</time>
      </trkpt>
      <trkpt lat="43.16128" lon="-0.6448">
        <ele>326.99</ele>
        <time>2017-03-05T09:53:00Z</time>
      </trkpt>
      <trkpt lat="43.16128" lon="-0.64484">
        <ele>326.5</ele>
        <time>2017-03-05T09:53:01Z</time>
      </trkpt>
      <trkpt lat="43.16133" lon="-0.64495">
        <ele>326.02</ele>
        <time>2017-03-05T09:53:04Z</time>
      </trkpt>
      <trkpt lat="43.16153" lon="-0.64535">
        <ele>325.06</ele>
        <time>2017-03-05T09:53:14Z</time>
      </trkpt>
      <trkpt lat="43.16175" lon="-0.64583">
        <ele>322.18</ele>
        <time>2017-03-05T09:53:24Z</time>
      </trkpt>
      <trkpt lat="43.1618" lon="-0.64612">
        <ele>315.93</ele>
        <time>2017-03-05T09:53:31Z</time>
      </trkpt>
      <trkpt lat="43.16181" lon="-0.64615">
        <ele>315.45</ele>
        <time>2017-03-05T09:53:32Z</time>
      </trkpt>
      <trkpt lat="43.16181" lon="-0.64619">
        <ele>314.49</ele>
        <time>2017-03-05T09:53:33Z</time>
      </trkpt>
      <trkpt lat="43.16182" lon="-0.64623">
        <ele>313.53</ele>
        <time>2017-03-05T09:53:34Z</time>
      </trkpt>
      <trkpt lat="43.16182" lon="-0.64628">
        <ele>312.57</ele>
        <time>2017-03-05T09:53:35Z</time>
      </trkpt>
      <trkpt lat="43.16184" lon="-0.64634">
        <ele>311.6</ele>
        <time>2017-03-05T09:53:36Z</time>
      </trkpt>
      <trkpt lat="43.16185" lon="-0.64639">
        <ele>310.64</ele>
        <time>2017-03-05T09:53:37Z</time>
      </trkpt>
      <trkpt lat="43.16187" lon="-0.64644">
        <ele>309.68</ele>
        <time>2017-03-05T09:53:38Z</time>
      </trkpt>
      <trkpt lat="43.16187" lon="-0.64649">
        <ele>309.2</ele>
        <time>2017-03-05T09:53:39Z</time>
      </trkpt>
      <trkpt lat="43.16187" lon="-0.64654">
        <ele>308.72</ele>
        <time>2017-03-05T09:53:40Z</time>
      </trkpt>
      <trkpt lat="43.16187" lon="-0.64659">
        <ele>307.76</ele>
        <time>2017-03-05T09:53:41Z</time>
      </trkpt>
      <trkpt lat="43.16188" lon="-0.64664">
        <ele>307.28</ele>
        <time>2017-03-05T09:53:42Z</time>
      </trkpt>
      <trkpt lat="43.1619" lon="-0.6467">
        <ele>306.8</ele>
        <time>2017-03-05T09:53:43Z</time>
      </trkpt>
      <trkpt lat="43.1621" lon="-0.64705">
        <ele>299.11</ele>
        <time>2017-03-05T09:53:51Z</time>
      </trkpt>
      <trkpt lat="43.16228" lon="-0.64731">
        <ele>293.34</ele>
        <time>2017-03-05T09:53:59Z</time>
      </trkpt>
      <trkpt lat="43.16239" lon="-0.64728">
        <ele>288.05</ele>
        <time>2017-03-05T09:54:03Z</time>
      </trkpt>
      <trkpt lat="43.1626" lon="-0.64728">
        <ele>283.73</ele>
        <time>2017-03-05T09:54:11Z</time>
      </trkpt>
      <trkpt lat="43.16265" lon="-0.64732">
        <ele>282.77</ele>
        <time>2017-03-05T09:54:13Z</time>
      </trkpt>
      <trkpt lat="43.16281" lon="-0.64731">
        <ele>277.48</ele>
        <time>2017-03-05T09:54:22Z</time>
      </trkpt>
      <trkpt lat="43.16284" lon="-0.64737">
        <ele>276.04</ele>
        <time>2017-03-05T09:54:25Z</time>
      </trkpt>
      <trkpt lat="43.16295" lon="-0.64741">
        <ele>273.15</ele>
        <time>2017-03-05T09:54:31Z</time>
      </trkpt>
      <trkpt lat="43.16313" lon="-0.6473">
        <ele>267.86</ele>
        <time>2017-03-05T09:54:40Z</time>
      </trkpt>
      <trkpt lat="43.16368" lon="-0.64737">
        <ele>259.69</ele>
        <time>2017-03-05T09:54:52Z</time>
      </trkpt>
      <trkpt lat="43.16404" lon="-0.64744">
        <ele>253.93</ele>
        <time>2017-03-05T09:55:02Z</time>
      </trkpt>
      <trkpt lat="43.16434" lon="-0.64747">
        <ele>250.08</ele>
        <time>2017-03-05T09:55:13Z</time>
      </trkpt>
      <trkpt lat="43.16467" lon="-0.64753">
        <ele>245.27</ele>
        <time>2017-03-05T09:55:24Z</time>
      </trkpt>
      <trkpt lat="43.16478" lon="-0.64758">
        <ele>243.35</ele>
        <time>2017-03-05T09:55:27Z</time>
      </trkpt>
      <trkpt lat="43.16481" lon="-0.64761">
        <ele>243.35</ele>
        <time>2017-03-05T09:55:28Z</time>
      </trkpt>
      <trkpt lat="43.16488" lon="-0.64774">
        <ele>242.87</ele>
        <time>2017-03-05T09:55:31Z</time>
      </trkpt>
      <trkpt lat="43.16499" lon="-0.64792">
        <ele>242.39</ele>
        <time>2017-03-05T09:55:34Z</time>
      </trkpt>
      <trkpt lat="43.16503" lon="-0.64798">
        <ele>241.91</ele>
        <time>2017-03-05T09:55:35Z</time>
      </trkpt>
      <trkpt lat="43.16508" lon="-0.64803">
        <ele>241.43</ele>
        <time>2017-03-05T09:55:36Z</time>
      </trkpt>
      <trkpt lat="43.16513" lon="-0.64805">
        <ele>240.95</ele>
        <time>2017-03-05T09:55:37Z</time>
      </trkpt>
      <trkpt lat="43.16518" lon="-0.64807">
        <ele>240.47</ele>
        <time>2017-03-05T09:55:38Z</time>
      </trkpt>
      <trkpt lat="43.16532" lon="-0.64821">
        <ele>238.54</ele>
        <time>2017-03-05T09:55:45Z</time>
      </trkpt>
      <trkpt lat="43.16546" lon="-0.64862">
        <ele>237.58</ele>
        <time>2017-03-05T09:55:56Z</time>
      </trkpt>
      <trkpt lat="43.16555" lon="-0.64882">
        <ele>235.66</ele>
        <time>2017-03-05T09:56:02Z</time>
      </trkpt>
      <trkpt lat="43.16557" lon="-0.64883">
        <ele>235.18</ele>
        <time>2017-03-05T09:56:03Z</time>
      </trkpt>
      <trkpt lat="43.16558" lon="-0.64882">
        <ele>235.18</ele>
        <time>2017-03-05T09:56:04Z</time>
      </trkpt>
      <trkpt lat="43.16559" lon="-0.64877">
        <ele>235.66</ele>
        <time>2017-03-05T09:56:07Z</time>
      </trkpt>
      <trkpt lat="43.16549" lon="-0.64838">
        <ele>236.14</ele>
        <time>2017-03-05T09:56:19Z</time>
      </trkpt>
      <trkpt lat="43.1655" lon="-0.64821">
        <ele>236.14</ele>
        <time>2017-03-05T09:56:24Z</time>
      </trkpt>
      <trkpt lat="43.1655" lon="-0.64819">
        <ele>236.14</ele>
        <time>2017-03-05T09:56:25Z</time>
      </trkpt>
      <trkpt lat="43.1655" lon="-0.64816">
        <ele>236.14</ele>
        <time>2017-03-05T09:56:26Z</time>
      </trkpt>
      <trkpt lat="43.1655" lon="-0.64814">
        <ele>236.14</ele>
        <time>2017-03-05T09:56:27Z</time>
      </trkpt>
      <trkpt lat="43.16551" lon="-0.64811">
        <ele>236.14</ele>
        <time>2017-03-05T09:56:28Z</time>
      </trkpt>
      <trkpt lat="43.16551" lon="-0.64809">
        <ele>236.62</ele>
        <time>2017-03-05T09:56:29Z</time>
      </trkpt>
      <trkpt lat="43.16565" lon="-0.64768">
        <ele>241.91</ele>
        <time>2017-03-05T09:56:46Z</time>
      </trkpt>
      <trkpt lat="43.1658" lon="-0.64752">
        <ele>244.79</ele>
        <time>2017-03-05T09:56:59Z</time>
      </trkpt>
      <trkpt lat="43.16597" lon="-0.64737">
        <ele>246.23</ele>
        <time>2017-03-05T09:57:12Z</time>
      </trkpt>
      <trkpt lat="43.16603" lon="-0.6472">
        <ele>250.56</ele>
        <time>2017-03-05T09:57:26Z</time>
      </trkpt>
      <trkpt lat="43.16605" lon="-0.64711">
        <ele>252.48</ele>
        <time>2017-03-05T09:57:32Z</time>
      </trkpt>
      <trkpt lat="43.16607" lon="-0.64694">
        <ele>257.29</ele>
        <time>2017-03-05T09:57:43Z</time>
      </trkpt>
      <trkpt lat="43.16611" lon="-0.64683">
        <ele>259.21</ele>
        <time>2017-03-05T09:57:52Z</time>
      </trkpt>
      <trkpt lat="43.16626" lon="-0.64675">
        <ele>262.1</ele>
        <time>2017-03-05T09:58:06Z</time>
      </trkpt>
      <trkpt lat="43.16646" lon="-0.6467">
        <ele>264.02</ele>
        <time>2017-03-05T09:58:20Z</time>
      </trkpt>
      <trkpt lat="43.16674" lon="-0.64672">
        <ele>263.54</ele>
        <time>2017-03-05T09:58:34Z</time>
      </trkpt>
      <trkpt lat="43.16698" lon="-0.64654">
        <ele>259.69</ele>
        <time>2017-03-05T09:58:47Z</time>
      </trkpt>
      <trkpt lat="43.16702" lon="-0.64652">
        <ele>258.25</ele>
        <time>2017-03-05T09:58:51Z</time>
      </trkpt>
      <trkpt lat="43.16714" lon="-0.64653">
        <ele>252.96</ele>
        <time>2017-03-05T09:59:04Z</time>
      </trkpt>
      <trkpt lat="43.16715" lon="-0.64653">
        <ele>252</ele>
        <time>2017-03-05T09:59:05Z</time>
      </trkpt>
      <trkpt lat="43.16718" lon="-0.64652">
        <ele>251.52</ele>
        <time>2017-03-05T09:59:07Z</time>
      </trkpt>
      <trkpt lat="43.16729" lon="-0.64659">
        <ele>250.56</ele>
        <time>2017-03-05T09:59:16Z</time>
      </trkpt>
      <trkpt lat="43.16732" lon="-0.64664">
        <ele>249.6</ele>
        <time>2017-03-05T09:59:20Z</time>
      </trkpt>
      <trkpt lat="43.16734" lon="-0.64668">
        <ele>249.12</ele>
        <time>2017-03-05T09:59:23Z</time>
      </trkpt>
      <trkpt lat="43.16738" lon="-0.64671">
        <ele>246.72</ele>
        <time>2017-03-05T09:59:27Z</time>
      </trkpt>
      <trkpt lat="43.16751" lon="-0.64666">
        <ele>242.39</ele>
        <time>2017-03-05T09:59:38Z</time>
      </trkpt>
      <trkpt lat="43.16757" lon="-0.64667">
        <ele>241.43</ele>
        <time>2017-03-05T09:59:42Z</time>
      </trkpt>
      <trkpt lat="43.16764" lon="-0.64664">
        <ele>239.02</ele>
        <time>2017-03-05T09:59:46Z</time>
      </trkpt>
      <trkpt lat="43.1678" lon="-0.64669">
        <ele>237.58</ele>
        <time>2017-03-05T09:59:52Z</time>
      </trkpt>
      <trkpt lat="43.16783" lon="-0.64668">
        <ele>237.1</ele>
        <time>2017-03-05T09:59:53Z</time>
      </trkpt>
      <trkpt lat="43.16786" lon="-0.64668">
        <ele>236.62</ele>
        <time>2017-03-05T09:59:54Z</time>
      </trkpt>
      <trkpt lat="43.16789" lon="-0.64668">
        <ele>236.62</ele>
        <time>2017-03-05T09:59:55Z</time>
      </trkpt>
      <trkpt lat="43.16792" lon="-0.64668">
        <ele>236.62</ele>
        <time>2017-03-05T09:59:56Z</time>
      </trkpt>
      <trkpt lat="43.16795" lon="-0.64666">
        <ele>236.62</ele>
        <time>2017-03-05T09:59:59Z</time>
      </trkpt>
      <trkpt lat="43.16796" lon="-0.64665">
        <ele>237.1</ele>
        <time>2017-03-05T10:00:00Z</time>
      </trkpt>
      <trkpt lat="43.16798" lon="-0.64664">
        <ele>237.58</ele>
        <time>2017-03-05T10:00:01Z</time>
      </trkpt>
      <trkpt lat="43.16799" lon="-0.64663">
        <ele>238.06</ele>
        <time>2017-03-05T10:00:02Z</time>
      </trkpt>
      <trkpt lat="43.16801" lon="-0.64662">
        <ele>237.58</ele>
        <time>2017-03-05T10:00:04Z</time>
      </trkpt>
      <trkpt lat="43.16806" lon="-0.64655">
        <ele>237.58</ele>
        <time>2017-03-05T10:00:13Z</time>
      </trkpt>
      <trkpt lat="43.16809" lon="-0.6465">
        <ele>239.99</ele>
        <time>2017-03-05T10:00:24Z</time>
      </trkpt>
      <trkpt lat="43.16809" lon="-0.64648">
        <ele>239.99</ele>
        <time>2017-03-05T10:00:25Z</time>
      </trkpt>
      <trkpt lat="43.1681" lon="-0.64647">
        <ele>240.47</ele>
        <time>2017-03-05T10:00:26Z</time>
      </trkpt>
      <trkpt lat="43.1681" lon="-0.64645">
        <ele>240.47</ele>
        <time>2017-03-05T10:00:27Z</time>
      </trkpt>
      <trkpt lat="43.16811" lon="-0.64643">
        <ele>241.43</ele>
        <time>2017-03-05T10:00:28Z</time>
      </trkpt>
      <trkpt lat="43.16813" lon="-0.64641">
        <ele>241.43</ele>
        <time>2017-03-05T10:00:29Z</time>
      </trkpt>
      <trkpt lat="43.16814" lon="-0.64639">
        <ele>241.43</ele>
        <time>2017-03-05T10:00:30Z</time>
      </trkpt>
      <trkpt lat="43.16817" lon="-0.64638">
        <ele>241.43</ele>
        <time>2017-03-05T10:00:31Z</time>
      </trkpt>
      <trkpt lat="43.16819" lon="-0.64637">
        <ele>241.91</ele>
        <time>2017-03-05T10:00:32Z</time>
      </trkpt>
      <trkpt lat="43.16821" lon="-0.64638">
        <ele>241.91</ele>
        <time>2017-03-05T10:00:33Z</time>
      </trkpt>
      <trkpt lat="43.16824" lon="-0.64635">
        <ele>242.39</ele>
        <time>2017-03-05T10:00:37Z</time>
      </trkpt>
      <trkpt lat="43.16824" lon="-0.64633">
        <ele>242.87</ele>
        <time>2017-03-05T10:00:38Z</time>
      </trkpt>
      <trkpt lat="43.16825" lon="-0.64631">
        <ele>242.87</ele>
        <time>2017-03-05T10:00:39Z</time>
      </trkpt>
      <trkpt lat="43.16825" lon="-0.64628">
        <ele>242.87</ele>
        <time>2017-03-05T10:00:40Z</time>
      </trkpt>
      <trkpt lat="43.16826" lon="-0.64626">
        <ele>243.35</ele>
        <time>2017-03-05T10:00:41Z</time>
      </trkpt>
      <trkpt lat="43.16828" lon="-0.64623">
        <ele>243.35</ele>
        <time>2017-03-05T10:00:42Z</time>
      </trkpt>
      <trkpt lat="43.16829" lon="-0.6462">
        <ele>243.83</ele>
        <time>2017-03-05T10:00:43Z</time>
      </trkpt>
      <trkpt lat="43.16835" lon="-0.64606">
        <ele>243.35</ele>
        <time>2017-03-05T10:00:49Z</time>
      </trkpt>
      <trkpt lat="43.16835" lon="-0.64604">
        <ele>242.87</ele>
        <time>2017-03-05T10:00:50Z</time>
      </trkpt>
      <trkpt lat="43.16836" lon="-0.64602">
        <ele>242.39</ele>
        <time>2017-03-05T10:00:51Z</time>
      </trkpt>
      <trkpt lat="43.16856" lon="-0.64569">
        <ele>242.39</ele>
        <time>2017-03-05T10:01:01Z</time>
      </trkpt>
      <trkpt lat="43.16884" lon="-0.64533">
        <ele>239.99</ele>
        <time>2017-03-05T10:01:12Z</time>
      </trkpt>
      <trkpt lat="43.16918" lon="-0.64509">
        <ele>238.54</ele>
        <time>2017-03-05T10:01:21Z</time>
      </trkpt>
      <trkpt lat="43.1695" lon="-0.64497">
        <ele>235.18</ele>
        <time>2017-03-05T10:01:33Z</time>
      </trkpt>
      <trkpt lat="43.16978" lon="-0.64488">
        <ele>234.7</ele>
        <time>2017-03-05T10:01:45Z</time>
      </trkpt>
      <trkpt lat="43.17006" lon="-0.64475">
        <ele>235.18</ele>
        <time>2017-03-05T10:01:57Z</time>
      </trkpt>
      <trkpt lat="43.17014" lon="-0.64474">
        <ele>234.22</ele>
        <time>2017-03-05T10:02:01Z</time>
      </trkpt>
      <trkpt lat="43.17016" lon="-0.64471">
        <ele>233.74</ele>
        <time>2017-03-05T10:02:02Z</time>
      </trkpt>
      <trkpt lat="43.17017" lon="-0.64468">
        <ele>233.74</ele>
        <time>2017-03-05T10:02:03Z</time>
      </trkpt>
      <trkpt lat="43.1702" lon="-0.64461">
        <ele>233.26</ele>
        <time>2017-03-05T10:02:06Z</time>
      </trkpt>
      <trkpt lat="43.17022" lon="-0.6446">
        <ele>233.26</ele>
        <time>2017-03-05T10:02:07Z</time>
      </trkpt>
      <trkpt lat="43.17024" lon="-0.64458">
        <ele>233.26</ele>
        <time>2017-03-05T10:02:08Z</time>
      </trkpt>
      <trkpt lat="43.17026" lon="-0.64456">
        <ele>233.26</ele>
        <time>2017-03-05T10:02:09Z</time>
      </trkpt>
      <trkpt lat="43.17028" lon="-0.64455">
        <ele>233.26</ele>
        <time>2017-03-05T10:02:10Z</time>
      </trkpt>
      <trkpt lat="43.17031" lon="-0.64454">
        <ele>233.26</ele>
        <time>2017-03-05T10:02:11Z</time>
      </trkpt>
      <trkpt lat="43.17057" lon="-0.64437">
        <ele>234.22</ele>
        <time>2017-03-05T10:02:21Z</time>
      </trkpt>
      <trkpt lat="43.17084" lon="-0.64402">
        <ele>235.18</ele>
        <time>2017-03-05T10:02:34Z</time>
      </trkpt>
      <trkpt lat="43.17124" lon="-0.64367">
        <ele>233.74</ele>
        <time>2017-03-05T10:02:46Z</time>
      </trkpt>
      <trkpt lat="43.17135" lon="-0.64359">
        <ele>233.26</ele>
        <time>2017-03-05T10:02:49Z</time>
      </trkpt>
      <trkpt lat="43.17147" lon="-0.64351">
        <ele>233.26</ele>
        <time>2017-03-05T10:02:52Z</time>
      </trkpt>
      <trkpt lat="43.17152" lon="-0.64348">
        <ele>233.26</ele>
        <time>2017-03-05T10:02:53Z</time>
      </trkpt>
      <trkpt lat="43.17189" lon="-0.64314">
        <ele>231.81</ele>
        <time>2017-03-05T10:03:02Z</time>
      </trkpt>
      <trkpt lat="43.17213" lon="-0.6429">
        <ele>229.89</ele>
        <time>2017-03-05T10:03:07Z</time>
      </trkpt>
      <trkpt lat="43.17218" lon="-0.64288">
        <ele>229.89</ele>
        <time>2017-03-05T10:03:08Z</time>
      </trkpt>
      <trkpt lat="43.17223" lon="-0.64287">
        <ele>229.41</ele>
        <time>2017-03-05T10:03:09Z</time>
      </trkpt>
      <trkpt lat="43.17227" lon="-0.64286">
        <ele>229.41</ele>
        <time>2017-03-05T10:03:10Z</time>
      </trkpt>
      <trkpt lat="43.17232" lon="-0.64286">
        <ele>228.93</ele>
        <time>2017-03-05T10:03:11Z</time>
      </trkpt>
      <trkpt lat="43.1724" lon="-0.64285">
        <ele>228.93</ele>
        <time>2017-03-05T10:03:13Z</time>
      </trkpt>
      <trkpt lat="43.17258" lon="-0.64278">
        <ele>229.41</ele>
        <time>2017-03-05T10:03:17Z</time>
      </trkpt>
      <trkpt lat="43.17262" lon="-0.64275">
        <ele>229.41</ele>
        <time>2017-03-05T10:03:18Z</time>
      </trkpt>
      <trkpt lat="43.17266" lon="-0.64272">
        <ele>229.89</ele>
        <time>2017-03-05T10:03:19Z</time>
      </trkpt>
      <trkpt lat="43.17271" lon="-0.64269">
        <ele>229.89</ele>
        <time>2017-03-05T10:03:20Z</time>
      </trkpt>
      <trkpt lat="43.17276" lon="-0.64266">
        <ele>229.89</ele>
        <time>2017-03-05T10:03:21Z</time>
      </trkpt>
      <trkpt lat="43.17281" lon="-0.64263">
        <ele>229.89</ele>
        <time>2017-03-05T10:03:22Z</time>
      </trkpt>
      <trkpt lat="43.17286" lon="-0.64259">
        <ele>229.41</ele>
        <time>2017-03-05T10:03:23Z</time>
      </trkpt>
      <trkpt lat="43.17361" lon="-0.64222">
        <ele>230.37</ele>
        <time>2017-03-05T10:03:37Z</time>
      </trkpt>
      <trkpt lat="43.17428" lon="-0.64188">
        <ele>232.3</ele>
        <time>2017-03-05T10:03:49Z</time>
      </trkpt>
      <trkpt lat="43.17477" lon="-0.64153">
        <ele>229.41</ele>
        <time>2017-03-05T10:03:57Z</time>
      </trkpt>
      <trkpt lat="43.17484" lon="-0.64149">
        <ele>228.93</ele>
        <time>2017-03-05T10:03:58Z</time>
      </trkpt>
      <trkpt lat="43.17491" lon="-0.64147">
        <ele>228.93</ele>
        <time>2017-03-05T10:03:59Z</time>
      </trkpt>
      <trkpt lat="43.17499" lon="-0.64146">
        <ele>228.45</ele>
        <time>2017-03-05T10:04:00Z</time>
      </trkpt>
      <trkpt lat="43.17506" lon="-0.64145">
        <ele>228.45</ele>
        <time>2017-03-05T10:04:01Z</time>
      </trkpt>
      <trkpt lat="43.17513" lon="-0.64145">
        <ele>228.45</ele>
        <time>2017-03-05T10:04:02Z</time>
      </trkpt>
      <trkpt lat="43.17521" lon="-0.64147">
        <ele>227.97</ele>
        <time>2017-03-05T10:04:03Z</time>
      </trkpt>
      <trkpt lat="43.17528" lon="-0.6415">
        <ele>227.97</ele>
        <time>2017-03-05T10:04:04Z</time>
      </trkpt>
      <trkpt lat="43.17564" lon="-0.64167">
        <ele>230.85</ele>
        <time>2017-03-05T10:04:11Z</time>
      </trkpt>
      <trkpt lat="43.1762" lon="-0.64166">
        <ele>232.78</ele>
        <time>2017-03-05T10:04:24Z</time>
      </trkpt>
      <trkpt lat="43.17634" lon="-0.64163">
        <ele>232.78</ele>
        <time>2017-03-05T10:04:27Z</time>
      </trkpt>
      <trkpt lat="43.17679" lon="-0.64138">
        <ele>232.78</ele>
        <time>2017-03-05T10:04:37Z</time>
      </trkpt>
      <trkpt lat="43.17685" lon="-0.64133">
        <ele>233.26</ele>
        <time>2017-03-05T10:04:39Z</time>
      </trkpt>
      <trkpt lat="43.17686" lon="-0.64129">
        <ele>232.78</ele>
        <time>2017-03-05T10:04:40Z</time>
      </trkpt>
      <trkpt lat="43.17685" lon="-0.64125">
        <ele>233.26</ele>
        <time>2017-03-05T10:04:41Z</time>
      </trkpt>
      <trkpt lat="43.17683" lon="-0.64124">
        <ele>233.26</ele>
        <time>2017-03-05T10:04:42Z</time>
      </trkpt>
      <trkpt lat="43.17681" lon="-0.64123">
        <ele>233.74</ele>
        <time>2017-03-05T10:04:43Z</time>
      </trkpt>
      <trkpt lat="43.17679" lon="-0.64123">
        <ele>233.74</ele>
        <time>2017-03-05T10:04:44Z</time>
      </trkpt>
      <trkpt lat="43.1765" lon="-0.64118">
        <ele>237.58</ele>
        <time>2017-03-05T10:04:59Z</time>
      </trkpt>
      <trkpt lat="43.17629" lon="-0.64111">
        <ele>239.99</ele>
        <time>2017-03-05T10:05:14Z</time>
      </trkpt>
      <trkpt lat="43.1762" lon="-0.64106">
        <ele>240.47</ele>
        <time>2017-03-05T10:05:20Z</time>
      </trkpt>
      <trkpt lat="43.17618" lon="-0.64105">
        <ele>240.47</ele>
        <time>2017-03-05T10:05:21Z</time>
      </trkpt>
      <trkpt lat="43.17617" lon="-0.64104">
        <ele>240.47</ele>
        <time>2017-03-05T10:05:22Z</time>
      </trkpt>
      <trkpt lat="43.17615" lon="-0.64102">
        <ele>240.95</ele>
        <time>2017-03-05T10:05:23Z</time>
      </trkpt>
      <trkpt lat="43.17614" lon="-0.64101">
        <ele>240.95</ele>
        <time>2017-03-05T10:05:24Z</time>
      </trkpt>
      <trkpt lat="43.17613" lon="-0.64099">
        <ele>241.43</ele>
        <time>2017-03-05T10:05:25Z</time>
      </trkpt>
      <trkpt lat="43.17611" lon="-0.64097">
        <ele>241.43</ele>
        <time>2017-03-05T10:05:26Z</time>
      </trkpt>
      <trkpt lat="43.1761" lon="-0.64095">
        <ele>241.43</ele>
        <time>2017-03-05T10:05:27Z</time>
      </trkpt>
      <trkpt lat="43.17609" lon="-0.64093">
        <ele>241.91</ele>
        <time>2017-03-05T10:05:28Z</time>
      </trkpt>
      <trkpt lat="43.17609" lon="-0.64091">
        <ele>241.91</ele>
        <time>2017-03-05T10:05:29Z</time>
      </trkpt>
      <trkpt lat="43.17608" lon="-0.64089">
        <ele>241.91</ele>
        <time>2017-03-05T10:05:30Z</time>
      </trkpt>
      <trkpt lat="43.17608" lon="-0.64087">
        <ele>241.91</ele>
        <time>2017-03-05T10:05:31Z</time>
      </trkpt>
      <trkpt lat="43.17618" lon="-0.64053">
        <ele>246.72</ele>
        <time>2017-03-05T10:05:48Z</time>
      </trkpt>
      <trkpt lat="43.17634" lon="-0.64025">
        <ele>251.04</ele>
        <time>2017-03-05T10:06:04Z</time>
      </trkpt>
      <trkpt lat="43.1765" lon="-0.63999">
        <ele>256.33</ele>
        <time>2017-03-05T10:06:21Z</time>
      </trkpt>
      <trkpt lat="43.17656" lon="-0.63988">
        <ele>256.81</ele>
        <time>2017-03-05T10:06:28Z</time>
      </trkpt>
      <trkpt lat="43.17672" lon="-0.63965">
        <ele>260.17</ele>
        <time>2017-03-05T10:06:43Z</time>
      </trkpt>
      <trkpt lat="43.17685" lon="-0.63944">
        <ele>262.1</ele>
        <time>2017-03-05T10:06:55Z</time>
      </trkpt>
      <trkpt lat="43.1769" lon="-0.63934">
        <ele>262.58</ele>
        <time>2017-03-05T10:07:00Z</time>
      </trkpt>
      <trkpt lat="43.17691" lon="-0.63932">
        <ele>262.58</ele>
        <time>2017-03-05T10:07:01Z</time>
      </trkpt>
      <trkpt lat="43.17692" lon="-0.6393">
        <ele>262.1</ele>
        <time>2017-03-05T10:07:02Z</time>
      </trkpt>
      <trkpt lat="43.17692" lon="-0.63917">
        <ele>261.14</ele>
        <time>2017-03-05T10:07:07Z</time>
      </trkpt>
      <trkpt lat="43.17692" lon="-0.63915">
        <ele>261.14</ele>
        <time>2017-03-05T10:07:08Z</time>
      </trkpt>
      <trkpt lat="43.17691" lon="-0.63913">
        <ele>261.14</ele>
        <time>2017-03-05T10:07:09Z</time>
      </trkpt>
      <trkpt lat="43.1769" lon="-0.6391">
        <ele>261.62</ele>
        <time>2017-03-05T10:07:10Z</time>
      </trkpt>
      <trkpt lat="43.1769" lon="-0.63908">
        <ele>261.62</ele>
        <time>2017-03-05T10:07:11Z</time>
      </trkpt>
      <trkpt lat="43.17689" lon="-0.63905">
        <ele>262.1</ele>
        <time>2017-03-05T10:07:12Z</time>
      </trkpt>
      <trkpt lat="43.17689" lon="-0.63903">
        <ele>262.1</ele>
        <time>2017-03-05T10:07:13Z</time>
      </trkpt>
      <trkpt lat="43.17676" lon="-0.63868">
        <ele>264.98</ele>
        <time>2017-03-05T10:07:27Z</time>
      </trkpt>
      <trkpt lat="43.17657" lon="-0.63813">
        <ele>266.9</ele>
        <time>2017-03-05T10:07:45Z</time>
      </trkpt>
      <trkpt lat="43.17639" lon="-0.63762">
        <ele>267.86</ele>
        <time>2017-03-05T10:08:00Z</time>
      </trkpt>
      <trkpt lat="43.17622" lon="-0.63711">
        <ele>271.23</ele>
        <time>2017-03-05T10:08:15Z</time>
      </trkpt>
      <trkpt lat="43.17614" lon="-0.63688">
        <ele>272.19</ele>
        <time>2017-03-05T10:08:25Z</time>
      </trkpt>
      <trkpt lat="43.17614" lon="-0.63685">
        <ele>272.19</ele>
        <time>2017-03-05T10:08:26Z</time>
      </trkpt>
      <trkpt lat="43.17599" lon="-0.6364">
        <ele>274.11</ele>
        <time>2017-03-05T10:08:39Z</time>
      </trkpt>
      <trkpt lat="43.17584" lon="-0.63587">
        <ele>275.56</ele>
        <time>2017-03-05T10:08:54Z</time>
      </trkpt>
      <trkpt lat="43.17566" lon="-0.63525">
        <ele>278.44</ele>
        <time>2017-03-05T10:09:11Z</time>
      </trkpt>
      <trkpt lat="43.17553" lon="-0.63485">
        <ele>280.36</ele>
        <time>2017-03-05T10:09:23Z</time>
      </trkpt>
      <trkpt lat="43.1754" lon="-0.63434">
        <ele>284.21</ele>
        <time>2017-03-05T10:09:37Z</time>
      </trkpt>
      <trkpt lat="43.17534" lon="-0.63396">
        <ele>287.57</ele>
        <time>2017-03-05T10:09:50Z</time>
      </trkpt>
      <trkpt lat="43.17534" lon="-0.63353">
        <ele>288.05</ele>
        <time>2017-03-05T10:10:04Z</time>
      </trkpt>
      <trkpt lat="43.17535" lon="-0.63315">
        <ele>289.49</ele>
        <time>2017-03-05T10:10:17Z</time>
      </trkpt>
      <trkpt lat="43.17532" lon="-0.63278">
        <ele>293.34</ele>
        <time>2017-03-05T10:10:30Z</time>
      </trkpt>
      <trkpt lat="43.1752" lon="-0.63226">
        <ele>293.34</ele>
        <time>2017-03-05T10:10:49Z</time>
      </trkpt>
      <trkpt lat="43.17511" lon="-0.63189">
        <ele>295.26</ele>
        <time>2017-03-05T10:11:04Z</time>
      </trkpt>
      <trkpt lat="43.17501" lon="-0.63142">
        <ele>296.22</ele>
        <time>2017-03-05T10:11:19Z</time>
      </trkpt>
      <trkpt lat="43.17488" lon="-0.63075">
        <ele>297.18</ele>
        <time>2017-03-05T10:11:38Z</time>
      </trkpt>
      <trkpt lat="43.17471" lon="-0.62992">
        <ele>293.34</ele>
        <time>2017-03-05T10:11:54Z</time>
      </trkpt>
      <trkpt lat="43.17436" lon="-0.62893">
        <ele>284.21</ele>
        <time>2017-03-05T10:12:03Z</time>
      </trkpt>
      <trkpt lat="43.17403" lon="-0.62785">
        <ele>279.4</ele>
        <time>2017-03-05T10:12:14Z</time>
      </trkpt>
      <trkpt lat="43.17404" lon="-0.62778">
        <ele>278.92</ele>
        <time>2017-03-05T10:12:16Z</time>
      </trkpt>
      <trkpt lat="43.17405" lon="-0.62775">
        <ele>278.44</ele>
        <time>2017-03-05T10:12:17Z</time>
      </trkpt>
      <trkpt lat="43.17407" lon="-0.62773">
        <ele>278.44</ele>
        <time>2017-03-05T10:12:18Z</time>
      </trkpt>
      <trkpt lat="43.1741" lon="-0.62771">
        <ele>278.44</ele>
        <time>2017-03-05T10:12:19Z</time>
      </trkpt>
      <trkpt lat="43.17414" lon="-0.62769">
        <ele>278.44</ele>
        <time>2017-03-05T10:12:20Z</time>
      </trkpt>
      <trkpt lat="43.17419" lon="-0.62767">
        <ele>278.44</ele>
        <time>2017-03-05T10:12:21Z</time>
      </trkpt>
      <trkpt lat="43.17485" lon="-0.62738">
        <ele>271.71</ele>
        <time>2017-03-05T10:12:31Z</time>
      </trkpt>
      <trkpt lat="43.17503" lon="-0.62735">
        <ele>268.35</ele>
        <time>2017-03-05T10:12:33Z</time>
      </trkpt>
      <trkpt lat="43.17567" lon="-0.62729">
        <ele>255.85</ele>
        <time>2017-03-05T10:12:40Z</time>
      </trkpt>
      <trkpt lat="43.17576" lon="-0.62726">
        <ele>254.41</ele>
        <time>2017-03-05T10:12:41Z</time>
      </trkpt>
      <trkpt lat="43.17585" lon="-0.62722">
        <ele>252.96</ele>
        <time>2017-03-05T10:12:42Z</time>
      </trkpt>
      <trkpt lat="43.17593" lon="-0.62716">
        <ele>251.52</ele>
        <time>2017-03-05T10:12:43Z</time>
      </trkpt>
      <trkpt lat="43.176" lon="-0.6271">
        <ele>250.56</ele>
        <time>2017-03-05T10:12:44Z</time>
      </trkpt>
      <trkpt lat="43.17615" lon="-0.62698">
        <ele>248.64</ele>
        <time>2017-03-05T10:12:46Z</time>
      </trkpt>
      <trkpt lat="43.17622" lon="-0.62694">
        <ele>248.16</ele>
        <time>2017-03-05T10:12:47Z</time>
      </trkpt>
      <trkpt lat="43.17656" lon="-0.62673">
        <ele>246.72</ele>
        <time>2017-03-05T10:12:52Z</time>
      </trkpt>
      <trkpt lat="43.17662" lon="-0.62667">
        <ele>246.72</ele>
        <time>2017-03-05T10:12:53Z</time>
      </trkpt>
      <trkpt lat="43.17738" lon="-0.62575">
        <ele>247.2</ele>
        <time>2017-03-05T10:13:08Z</time>
      </trkpt>
      <trkpt lat="43.17754" lon="-0.62551">
        <ele>248.16</ele>
        <time>2017-03-05T10:13:12Z</time>
      </trkpt>
      <trkpt lat="43.17757" lon="-0.62545">
        <ele>248.16</ele>
        <time>2017-03-05T10:13:13Z</time>
      </trkpt>
      <trkpt lat="43.17759" lon="-0.6254">
        <ele>248.64</ele>
        <time>2017-03-05T10:13:14Z</time>
      </trkpt>
      <trkpt lat="43.1776" lon="-0.62534">
        <ele>249.12</ele>
        <time>2017-03-05T10:13:15Z</time>
      </trkpt>
      <trkpt lat="43.17761" lon="-0.62529">
        <ele>249.6</ele>
        <time>2017-03-05T10:13:16Z</time>
      </trkpt>
      <trkpt lat="43.17761" lon="-0.62524">
        <ele>249.6</ele>
        <time>2017-03-05T10:13:17Z</time>
      </trkpt>
      <trkpt lat="43.17793" lon="-0.62453">
        <ele>247.2</ele>
        <time>2017-03-05T10:13:28Z</time>
      </trkpt>
      <trkpt lat="43.1784" lon="-0.62368">
        <ele>247.2</ele>
        <time>2017-03-05T10:13:44Z</time>
      </trkpt>
      <trkpt lat="43.17882" lon="-0.62285">
        <ele>246.23</ele>
        <time>2017-03-05T10:13:59Z</time>
      </trkpt>
      <trkpt lat="43.17923" lon="-0.62203">
        <ele>246.72</ele>
        <time>2017-03-05T10:14:15Z</time>
      </trkpt>
      <trkpt lat="43.17949" lon="-0.62164">
        <ele>246.23</ele>
        <time>2017-03-05T10:14:23Z</time>
      </trkpt>
      <trkpt lat="43.17998" lon="-0.62113">
        <ele>245.75</ele>
        <time>2017-03-05T10:14:37Z</time>
      </trkpt>
      <trkpt lat="43.18052" lon="-0.62072">
        <ele>244.31</ele>
        <time>2017-03-05T10:14:51Z</time>
      </trkpt>
      <trkpt lat="43.18053" lon="-0.62074">
        <ele>244.31</ele>
        <time>2017-03-05T10:14:52Z</time>
      </trkpt>
      <trkpt lat="43.18055" lon="-0.62078">
        <ele>244.31</ele>
        <time>2017-03-05T10:14:53Z</time>
      </trkpt>
      <trkpt lat="43.18057" lon="-0.62083">
        <ele>244.31</ele>
        <time>2017-03-05T10:14:54Z</time>
      </trkpt>
      <trkpt lat="43.18058" lon="-0.62087">
        <ele>244.31</ele>
        <time>2017-03-05T10:14:55Z</time>
      </trkpt>
      <trkpt lat="43.1806" lon="-0.62092">
        <ele>244.31</ele>
        <time>2017-03-05T10:14:56Z</time>
      </trkpt>
      <trkpt lat="43.18062" lon="-0.62097">
        <ele>244.79</ele>
        <time>2017-03-05T10:14:57Z</time>
      </trkpt>
      <trkpt lat="43.18074" lon="-0.62138">
        <ele>244.79</ele>
        <time>2017-03-05T10:15:06Z</time>
      </trkpt>
      <trkpt lat="43.18074" lon="-0.62143">
        <ele>244.79</ele>
        <time>2017-03-05T10:15:07Z</time>
      </trkpt>
      <trkpt lat="43.18074" lon="-0.62149">
        <ele>244.79</ele>
        <time>2017-03-05T10:15:08Z</time>
      </trkpt>
      <trkpt lat="43.18072" lon="-0.62155">
        <ele>244.79</ele>
        <time>2017-03-05T10:15:09Z</time>
      </trkpt>
      <trkpt lat="43.18071" lon="-0.62161">
        <ele>244.79</ele>
        <time>2017-03-05T10:15:10Z</time>
      </trkpt>
      <trkpt lat="43.18069" lon="-0.62166">
        <ele>244.79</ele>
        <time>2017-03-05T10:15:11Z</time>
      </trkpt>
      <trkpt lat="43.18065" lon="-0.62176">
        <ele>244.79</ele>
        <time>2017-03-05T10:15:13Z</time>
      </trkpt>
      <trkpt lat="43.18051" lon="-0.62199">
        <ele>244.31</ele>
        <time>2017-03-05T10:15:18Z</time>
      </trkpt>
      <trkpt lat="43.18048" lon="-0.62203">
        <ele>244.31</ele>
        <time>2017-03-05T10:15:19Z</time>
      </trkpt>
      <trkpt lat="43.18041" lon="-0.62212">
        <ele>243.83</ele>
        <time>2017-03-05T10:15:21Z</time>
      </trkpt>
      <trkpt lat="43.18039" lon="-0.62217">
        <ele>243.83</ele>
        <time>2017-03-05T10:15:22Z</time>
      </trkpt>
      <trkpt lat="43.18001" lon="-0.62296">
        <ele>243.83</ele>
        <time>2017-03-05T10:15:37Z</time>
      </trkpt>
      <trkpt lat="43.17998" lon="-0.62301">
        <ele>244.31</ele>
        <time>2017-03-05T10:15:38Z</time>
      </trkpt>
      <trkpt lat="43.17975" lon="-0.62329">
        <ele>244.79</ele>
        <time>2017-03-05T10:15:45Z</time>
      </trkpt>
      <trkpt lat="43.17957" lon="-0.62361">
        <ele>244.79</ele>
        <time>2017-03-05T10:15:52Z</time>
      </trkpt>
      <trkpt lat="43.17949" lon="-0.62383">
        <ele>245.27</ele>
        <time>2017-03-05T10:15:56Z</time>
      </trkpt>
      <trkpt lat="43.17953" lon="-0.62416">
        <ele>245.75</ele>
        <time>2017-03-05T10:16:02Z</time>
      </trkpt>
      <trkpt lat="43.17955" lon="-0.6242">
        <ele>245.75</ele>
        <time>2017-03-05T10:16:03Z</time>
      </trkpt>
      <trkpt lat="43.17959" lon="-0.62425">
        <ele>245.27</ele>
        <time>2017-03-05T10:16:04Z</time>
      </trkpt>
      <trkpt lat="43.17962" lon="-0.6243">
        <ele>245.27</ele>
        <time>2017-03-05T10:16:05Z</time>
      </trkpt>
      <trkpt lat="43.17969" lon="-0.62437">
        <ele>245.27</ele>
        <time>2017-03-05T10:16:07Z</time>
      </trkpt>
      <trkpt lat="43.17973" lon="-0.62441">
        <ele>245.27</ele>
        <time>2017-03-05T10:16:08Z</time>
      </trkpt>
      <trkpt lat="43.17976" lon="-0.62446">
        <ele>245.27</ele>
        <time>2017-03-05T10:16:09Z</time>
      </trkpt>
      <trkpt lat="43.1798" lon="-0.6245">
        <ele>245.27</ele>
        <time>2017-03-05T10:16:10Z</time>
      </trkpt>
      <trkpt lat="43.17983" lon="-0.62455">
        <ele>244.79</ele>
        <time>2017-03-05T10:16:11Z</time>
      </trkpt>
      <trkpt lat="43.18002" lon="-0.62475">
        <ele>244.31</ele>
        <time>2017-03-05T10:16:16Z</time>
      </trkpt>
      <trkpt lat="43.18075" lon="-0.62536">
        <ele>242.39</ele>
        <time>2017-03-05T10:16:34Z</time>
      </trkpt>
      <trkpt lat="43.18083" lon="-0.62542">
        <ele>242.39</ele>
        <time>2017-03-05T10:16:36Z</time>
      </trkpt>
      <trkpt lat="43.18087" lon="-0.62546">
        <ele>242.39</ele>
        <time>2017-03-05T10:16:37Z</time>
      </trkpt>
      <trkpt lat="43.18103" lon="-0.62558">
        <ele>242.39</ele>
        <time>2017-03-05T10:16:41Z</time>
      </trkpt>
      <trkpt lat="43.18107" lon="-0.62562">
        <ele>242.39</ele>
        <time>2017-03-05T10:16:42Z</time>
      </trkpt>
      <trkpt lat="43.18111" lon="-0.62566">
        <ele>242.39</ele>
        <time>2017-03-05T10:16:43Z</time>
      </trkpt>
      <trkpt lat="43.18126" lon="-0.62578">
        <ele>242.39</ele>
        <time>2017-03-05T10:16:47Z</time>
      </trkpt>
      <trkpt lat="43.18129" lon="-0.62582">
        <ele>242.39</ele>
        <time>2017-03-05T10:16:48Z</time>
      </trkpt>
      <trkpt lat="43.1813" lon="-0.62587">
        <ele>242.39</ele>
        <time>2017-03-05T10:16:49Z</time>
      </trkpt>
      <trkpt lat="43.18129" lon="-0.62591">
        <ele>242.39</ele>
        <time>2017-03-05T10:16:50Z</time>
      </trkpt>
      <trkpt lat="43.18128" lon="-0.62596">
        <ele>242.39</ele>
        <time>2017-03-05T10:16:51Z</time>
      </trkpt>
      <trkpt lat="43.18126" lon="-0.62601">
        <ele>242.39</ele>
        <time>2017-03-05T10:16:52Z</time>
      </trkpt>
      <trkpt lat="43.18122" lon="-0.62654">
        <ele>242.87</ele>
        <time>2017-03-05T10:17:04Z</time>
      </trkpt>
      <trkpt lat="43.18125" lon="-0.6267">
        <ele>243.35</ele>
        <time>2017-03-05T10:17:16Z</time>
      </trkpt>
      <trkpt lat="43.18124" lon="-0.62668">
        <ele>243.35</ele>
        <time>2017-03-05T10:17:19Z</time>
      </trkpt>
    </trkseg>
  </trk>
</gpx>